Date StartTime U_cm/s V_cm/s W_cm/s Ustd_cm/s Vstd_cm/s Wstd_cm/s Uvar_(cm/s)^2 Vvar_(cm/s)^2 Wvar_(cm/s)^2 KE_(m/s)^2 TurbulentKE_(m/s)^2 HorizWindSpeed_cm/s FrictionSpeec_cm/s DragCoef SpeedOfSound_m/s SonicTemperature_C Pressure_mb 
08/09/2014  00:00:00       13.027      -12.164       -1.096       14.563       14.523        7.914      212.079      210.924       62.625        0.040        0.024       17.823        6.343        0.127      345.606       23.256      861.726
08/09/2014  00:01:00        5.213       -3.430       13.926       25.958       20.993       14.851      673.832      440.721      220.564        0.078        0.067        6.240       11.031        3.125      345.532       23.128      861.711
08/09/2014  00:02:00      -39.397      -20.781        0.718       25.645       20.022       15.121      657.675      400.869      228.647        0.164        0.064       44.542        7.305        0.027      345.560       23.176      861.724
08/09/2014  00:03:00      -96.785      -31.151        0.402       35.131       28.931       14.972     1234.174      837.000      224.162        0.632        0.115      101.674       10.497        0.011      345.317       22.761      861.742
08/09/2014  00:04:00      -76.383      -28.792        3.198       60.744       28.386       16.653     3689.867      805.770      277.334        0.572        0.239       81.630       20.486        0.063      345.272       22.684      861.752
08/09/2014  00:05:00      -34.534       20.535        9.489       40.044       23.434       22.160     1603.517      549.139      491.052        0.217        0.132       40.178       20.442        0.259      345.451       22.990      861.730
08/09/2014  00:06:00      -86.275      -15.690       -2.085       24.804       30.456       10.809      615.215      927.540      116.839        0.468        0.083       87.691        7.002        0.006      345.463       23.011      861.742
08/09/2014  00:07:00      -48.724      -90.582       -4.301       20.607       27.763       13.326      424.636      770.761      177.579        0.599        0.069      102.855        4.152        0.002      345.641       23.316      861.737
08/09/2014  00:08:00      -64.356     -119.978        4.504       33.125       60.827       23.582     1097.235     3699.908      556.109        1.195        0.268      136.148       29.195        0.046      345.776       23.548      861.726
08/09/2014  00:09:00      -54.003      -36.238       -3.708       28.336       40.990       21.829      802.911     1680.142      476.492        0.360        0.148       65.035       18.723        0.083      345.695       23.411      861.728
08/09/2014  00:10:00      -28.202       13.328        7.230       15.602       14.332       13.454      243.435      205.407      181.007        0.083        0.031       31.193       12.734        0.167      345.517       23.103      861.712
08/09/2014  00:11:00        0.490      -17.806        1.448       12.678        9.332        6.408      160.744       87.087       41.068        0.030        0.014       17.812        5.045        0.080      345.476       23.033      861.704
08/09/2014  00:12:00      -50.488       55.160      -10.616       27.661       30.464        9.409      765.136      928.038       88.532        0.374        0.089       74.777       15.582        0.043      345.525       23.117      861.716
08/09/2014  00:13:00      -70.550        5.917       -9.489       17.708       29.991       11.037      313.557      899.489      121.821        0.322        0.067       70.798        9.071        0.016      345.442       22.975      861.745
08/09/2014  00:14:00     -111.492      -12.966       -5.985       35.511       26.960       17.858     1261.031      726.842      318.901        0.747        0.115      112.244       16.618        0.022      345.078       22.352      861.747
08/09/2014  00:15:00     -101.652      -26.474       -3.301       46.873       19.170       16.933     2197.097      367.500      286.716        0.695        0.143      105.043       22.888        0.047      345.399       22.903      861.741
08/09/2014  00:16:00     -133.018        1.404       -7.253       67.177       48.602       23.089     4512.695     2362.148      533.111        1.258        0.370      133.026       29.212        0.048      345.701       23.418      861.725
08/09/2014  00:17:00     -122.100      -97.325       -0.824       73.739       45.751       28.938     5437.383     2093.191      837.416        1.637        0.418      156.142       33.062        0.045      346.138       24.170      861.703
08/09/2014  00:18:00     -156.566      -34.981        2.151       69.247       63.220       34.927     4795.136     3996.801     1219.862        1.787        0.501      160.426       34.278        0.046      346.011       23.951      861.694
08/09/2014  00:19:00      -50.267       -3.496       -0.717       44.893       42.692       20.182     2015.361     1822.617      407.302        0.339        0.212       50.389       22.639        0.202      345.660       23.349      861.708
08/09/2014  00:20:00      -73.383       37.653        4.177       51.332       28.977       28.467     2634.941      839.648      810.393        0.555        0.214       82.479       11.616        0.020      345.548       23.156      861.721
08/09/2014  00:21:00      -34.546       81.879       -5.187       34.728       30.392       21.886     1206.017      923.688      478.989        0.527        0.130       88.868       18.572        0.044      345.485       23.049      861.726
08/09/2014  00:22:00       27.349       47.779       -3.034       37.577       18.533       15.208     1412.020      343.462      231.272        0.251        0.099       55.053        9.091        0.027      345.239       22.626      861.712
08/09/2014  00:23:00      -39.415       63.163      -17.959       25.263       37.960       13.800      638.206     1440.945      190.449        0.407        0.113       74.452       15.838        0.045      345.593       23.234      861.743
08/09/2014  00:24:00      -63.703       22.088       -6.045       18.529       25.637       14.248      343.327      657.277      203.009        0.289        0.060       67.424        9.688        0.021      345.331       22.784      861.775
08/09/2014  00:25:00      -10.748       -8.463      -13.492       28.166       17.035       11.541      793.298      290.193      133.186        0.079        0.061       13.680        9.300        0.462      345.198       22.558      861.789
08/09/2014  00:26:00       -2.687      -27.546        7.098       12.394       28.469       17.000      153.608      810.512      288.993        0.103        0.063       27.677       17.079        0.381      345.240       22.628      861.792
08/09/2014  00:27:00        9.207      -57.104       -8.400       20.532       15.632       14.607      421.568      244.362      213.375        0.215        0.044       57.841       10.839        0.035      345.276       22.690      861.786
08/09/2014  00:28:00       -8.405       -3.218       24.070       10.638       20.555        9.519      113.169      422.501       90.617        0.064        0.031        9.000        8.557        0.904      345.144       22.466      861.790
08/09/2014  00:29:00        8.377      -11.472       19.264       13.979       23.764       15.893      195.412      564.736      252.602        0.079        0.051       14.205       15.929        1.257      345.188       22.542      861.796
08/09/2014  00:30:00        5.388      -39.720      -10.727       28.180       21.015       15.725      794.131      441.613      247.268        0.160        0.074       40.084       10.170        0.064      345.490       23.057      861.816
08/09/2014  00:31:00      -43.002      -20.702       -7.490       15.854       13.145       10.404      251.346      172.778      108.239        0.143        0.027       47.726        5.242        0.012      345.337       22.793      861.827
08/09/2014  00:32:00      -19.860       -4.434       -5.601       16.752       14.050        8.641      280.614      197.400       74.672        0.050        0.028       20.348        4.751        0.055      345.180       22.527      861.838
08/09/2014  00:33:00       -6.275       29.178       -2.789       50.826       44.369       33.695     2583.248     1968.651     1135.344        0.329        0.284       29.845       27.251        0.834      345.602       23.250      861.840
08/09/2014  00:34:00       57.621       70.192       11.410       33.072       21.227       32.703     1093.771      450.603     1069.468        0.549        0.131       90.813       18.530        0.042      345.729       23.469      861.850
08/09/2014  00:35:00        8.118       20.998      -18.290       12.215       18.731        9.496      149.202      350.856       90.167        0.072        0.030       22.513        7.308        0.105      345.692       23.404      861.874
08/09/2014  00:36:00        1.248       19.949       -7.647       14.287       12.653        9.362      204.123      160.087       87.648        0.045        0.023       19.988        5.750        0.083      345.485       23.049      861.892
08/09/2014  00:37:00      -19.180      -16.037      -12.999       13.437       12.569        8.736      180.552      157.991       76.316        0.060        0.021       25.001        8.079        0.104      345.032       22.272      861.901
08/09/2014  00:38:00       -1.964       -2.587       -4.192       18.994       13.153       10.931      360.783      173.007      119.477        0.034        0.033        3.248       12.574       14.988      345.195       22.554      861.906
08/09/2014  00:39:00       84.379       43.838       10.280       23.209       22.269       13.464      538.655      495.927      181.278        0.518        0.061       95.087       12.686        0.018      345.339       22.799      861.899
08/09/2014  00:40:00      170.585      100.072       24.575       39.779       36.985       35.933     1582.393     1367.924     1291.163        2.198        0.212      197.772       23.196        0.014      345.362       22.836      861.866
08/09/2014  00:41:00      101.723       77.534       53.925       97.170       53.983       46.362     9441.950     2914.166     2149.473        1.688        0.725      127.903       49.788        0.152      345.478       23.035      861.825
08/09/2014  00:42:00      108.601       80.832       67.655       97.258       53.833       53.562     9459.196     2897.992     2868.873        1.906        0.761      135.381       58.865        0.189      345.344       22.805      861.801
08/09/2014  00:43:00      112.231      122.826       96.429      100.290       68.902       68.825    10058.052     4747.520     4736.877        2.826        0.977      166.379       69.946        0.177      345.597       23.238      861.783
08/09/2014  00:44:00       21.330       77.646       86.676       44.459       48.369       35.222     1976.636     2339.580     1240.578        0.978        0.278       80.523       25.598        0.101      345.509       23.088      861.785
08/09/2014  00:45:00      -16.250        9.948       27.678       31.019       38.247       24.951      962.208     1462.834      622.564        0.209        0.152       19.053       26.163        1.886      345.499       23.073      861.790
08/09/2014  00:46:00      -51.170      -35.264        4.572       32.229       28.911       20.740     1038.737      835.844      430.151        0.309        0.115       62.145       20.894        0.113      345.111       22.408      861.808
08/09/2014  00:47:00      -48.548      -41.010       -0.342       21.790       25.382       14.763      474.790      644.263      217.955        0.269        0.067       63.551        9.185        0.021      345.050       22.305      861.820
08/09/2014  00:48:00      -34.453      -23.593       -5.527       16.281        8.663        9.681      265.084       75.043       93.716        0.110        0.022       41.757        6.002        0.021      345.198       22.557      861.827
08/09/2014  00:49:00       17.447      -30.963       -0.897       14.902       21.326       14.891      222.060      454.790      221.729        0.108        0.045       35.541       12.724        0.128      345.109       22.404      861.822
08/09/2014  00:50:00       29.545      -12.391        3.661       12.472       16.947       11.226      155.542      287.184      126.025        0.080        0.028       32.038        7.110        0.049      345.187       22.537      861.823
08/09/2014  00:51:00       -6.820       -3.872       -3.974       27.804        8.070        6.518      773.064       65.132       42.486        0.048        0.044        7.843        6.541        0.696      345.372       22.855      861.838
08/09/2014  00:52:00      -87.883       12.239      -16.513       14.947       12.629       14.186      223.420      159.486      201.237        0.436        0.029       88.731        8.307        0.009      344.879       22.009      861.854
08/09/2014  00:53:00     -119.095      -35.732      -16.256       19.640       19.301       12.448      385.726      372.529      154.960        0.832        0.046      124.340        5.160        0.002      344.758       21.804      861.863
08/09/2014  00:54:00      -60.446      -58.985       -3.737       26.126       32.796       20.371      682.567     1075.574      414.959        0.466        0.109       84.457       16.695        0.039      344.566       21.477      861.862
08/09/2014  00:55:00      -51.732      -48.809        6.175       35.999       21.522       18.589     1295.940      463.199      345.541        0.360        0.105       71.124       17.021        0.057      344.799       21.875      861.866
08/09/2014  00:56:00      -43.570      -23.873       -1.022       22.625       14.964       11.527      511.881      223.934      132.882        0.167        0.043       49.681       12.275        0.061      344.903       22.051      861.872
08/09/2014  00:57:00      -24.594      -25.592      -10.018       16.978       15.025       12.532      288.246      225.762      157.039        0.102        0.034       35.493        9.133        0.066      345.070       22.339      861.871
08/09/2014  00:58:00      -18.802      -12.882       -5.024        7.775        7.278        5.632       60.444       52.964       31.724        0.034        0.007       22.792        2.619        0.013      345.154       22.482      861.862
08/09/2014  00:59:00       -1.141       -6.984       -1.935        3.713        7.335        5.628       13.783       53.801       31.673        0.008        0.005        7.076        4.375        0.382      345.140       22.457      861.861
08/09/2014  01:00:00        5.619       -9.488       -1.086        8.392        6.666        4.239       70.419       44.438       17.968        0.013        0.007       11.027        1.429        0.017      345.169       22.508      861.871
08/09/2014  01:01:00      -30.135      -32.794       -6.166       34.720       12.618        9.237     1205.512      159.214       85.330        0.174        0.073       44.537       12.210        0.075      345.056       22.314      861.871
08/09/2014  01:02:00     -130.531      -53.722       -4.968       27.416       27.040       13.276      751.628      731.145      176.259        1.080        0.083      141.154        6.846        0.002      344.596       21.527      861.878
08/09/2014  01:03:00     -150.207      -91.447        2.737       64.846       38.173       27.019     4204.949     1457.171      730.047        1.866        0.320      175.855       26.615        0.023      344.459       21.292      861.894
08/09/2014  01:04:00     -122.632       -9.447       -2.946       65.780       38.429       27.941     4327.052     1476.760      780.677        1.086        0.329      122.995       29.930        0.059      344.435       21.250      861.909
08/09/2014  01:05:00     -126.223        5.875      -11.662       53.587       40.205       27.913     2871.571     1616.473      779.118        1.068        0.263      126.360       29.057        0.053      344.510       21.380      861.915
08/09/2014  01:06:00      -57.310       -2.446        3.736       31.001       21.273       21.538      961.090      452.551      463.867        0.259        0.094       57.362       20.825        0.132      344.500       21.363      861.912
08/09/2014  01:07:00      -34.286       -2.788        4.210       29.440       16.386       11.765      866.730      268.485      138.420        0.124        0.064       34.399       10.073        0.086      344.506       21.373      861.912
08/09/2014  01:08:00       11.343       -3.213        6.908       15.381       10.615        9.833      236.578      112.670       96.686        0.032        0.022       11.789        9.487        0.648      344.521       21.397      861.912
08/09/2014  01:09:00      -52.183      -50.298        1.189       21.236       15.852       13.425      450.948      251.276      180.218        0.307        0.044       72.477       13.527        0.035      344.620       21.568      861.922
08/09/2014  01:10:00      -77.833      -53.523        2.759       44.676       31.822       21.273     1995.912     1012.656      452.524        0.619        0.173       94.460       22.482        0.057      344.518       21.393      861.925
08/09/2014  01:11:00      -62.635      -67.851        8.441       41.066       31.582       27.105     1686.457      997.453      734.675        0.601        0.171       92.341       27.157        0.086      344.460       21.295      861.930
08/09/2014  01:12:00      -21.629      -43.680        9.209       27.759       25.296       18.957      770.552      639.873      359.374        0.211        0.088       48.741       17.855        0.134      344.518       21.394      861.930
08/09/2014  01:13:00      -33.020      -99.588       -2.081       19.812       25.776       14.278      392.496      664.415      203.875        0.614        0.063      104.920       12.234        0.014      345.168       22.506      861.926
08/09/2014  01:14:00      -48.749      -37.915        2.947       28.292       45.291       20.696      800.444     2051.238      428.342        0.355        0.164       61.758       21.998        0.127      344.723       21.745      861.912
08/09/2014  01:15:00      -13.655      -32.628        5.515       15.412       23.323        9.094      237.538      543.964       82.693        0.107        0.043       35.370       13.115        0.137      344.725       21.748      861.917
08/09/2014  01:16:00      -34.784      -10.382        3.805       32.856       13.829       12.085     1079.511      191.246      146.059        0.137        0.071       36.300       10.216        0.079      344.824       21.918      861.919
08/09/2014  01:17:00      -31.690      -25.465        0.565       28.542       15.320       13.253      814.646      234.717      175.651        0.144        0.061       40.654       13.346        0.108      344.915       22.073      861.921
08/09/2014  01:18:00      -26.010      -49.214       -1.286       31.062       16.970       11.571      964.872      287.989      133.889        0.224        0.069       55.664        9.318        0.028      344.907       22.060      861.926
08/09/2014  01:19:00      -10.494      -39.905        2.111       21.512       14.633       11.663      462.764      214.113      136.028        0.126        0.041       41.262        5.675        0.019      344.853       21.966      861.925
08/09/2014  01:20:00       -5.797      -71.198       -0.082       15.268       30.104       13.085      233.101      906.236      171.211        0.321        0.066       71.434        7.027        0.010      344.758       21.806      861.924
08/09/2014  01:21:00      -51.526      -52.019       -1.655       22.201       28.515       15.166      492.886      813.128      230.019        0.345        0.077       73.218       14.056        0.037      344.667       21.647      861.925
08/09/2014  01:22:00      -95.436      -52.200       -2.602       32.713       32.524       18.545     1070.117     1057.834      343.901        0.716        0.124      108.779       14.582        0.018      344.589       21.514      861.920
08/09/2014  01:23:00     -158.498      -73.222       -8.040       37.009       25.926       21.264     1369.659      672.155      452.145        1.652        0.125      174.594       12.627        0.005      344.707       21.716      861.917
08/09/2014  01:24:00      -94.194      -37.700        4.588       49.144       43.199       22.870     2415.104     1866.116      523.056        0.756        0.240      101.458       28.484        0.079      344.545       21.438      861.921
08/09/2014  01:25:00     -130.272      -74.138       -0.148       48.730       38.226       22.950     2374.607     1461.217      526.714        1.341        0.218      149.890       26.281        0.031      344.481       21.330      861.930
08/09/2014  01:26:00     -128.995      -85.987        5.022       51.068       43.618       29.219     2607.928     1902.547      853.747        1.471        0.268      155.027       24.024        0.024      344.423       21.228      861.947
08/09/2014  01:27:00     -117.978     -112.047        3.185       56.385       43.200       33.978     3179.258     1866.217     1154.508        1.634        0.310      162.706       33.493        0.042      344.460       21.294      861.948
08/09/2014  01:28:00      -90.220      -82.355        3.202       52.271       39.140       26.301     2732.229     1531.938      691.765        0.994        0.248      122.155       19.274        0.025      344.429       21.240      861.939
08/09/2014  01:29:00      -77.661      -85.141       -2.167       58.540       57.572       36.967     3426.953     3314.485     1366.573        1.069        0.405      115.240       34.694        0.091      344.393       21.180      861.947
08/09/2014  01:30:00     -119.105      -82.709        4.707       91.535       45.589       42.570     8378.707     2078.338     1812.184        1.666        0.613      145.006       46.643        0.103      344.326       21.066      861.966
08/09/2014  01:31:00     -131.626      -58.579        6.330       80.078       46.402       33.999     6412.526     2153.151     1155.904        1.526        0.486      144.072       41.055        0.081      344.296       21.013      861.968
08/09/2014  01:32:00     -119.509     -110.343       -0.052       60.991       85.006       42.840     3719.864     7226.027     1835.259        1.962        0.639      162.660       39.831        0.060      344.370       21.139      861.963
08/09/2014  01:33:00     -151.509      -47.760        1.701       80.677       64.960       36.950     6508.753     4219.818     1365.277        1.866        0.605      158.858       41.455        0.068      344.271       20.968      861.949
08/09/2014  01:34:00     -147.686      -11.406       -0.286       60.983       67.959       37.512     3718.980     4618.414     1407.153        1.584        0.487      148.126       37.818        0.065      344.124       20.719      861.959
08/09/2014  01:35:00     -155.726       -6.171        2.288       71.456       56.851       34.953     5105.921     3232.053     1221.747        1.692        0.478      155.849       36.357        0.054      344.023       20.547      861.942
08/09/2014  01:36:00     -156.397      -23.134        5.889       77.857       56.100       34.740     6061.735     3147.263     1206.865        1.772        0.521      158.099       34.157        0.047      344.033       20.563      861.931
08/09/2014  01:37:00     -210.890      -64.228        1.060       45.806       42.650       30.262     2098.158     1819.065      915.801        2.672        0.242      220.453       27.841        0.016      343.905       20.342      861.941
08/09/2014  01:38:00     -110.890      -68.336        1.894       80.425       48.963       34.939     6468.215     2397.336     1220.716        1.353        0.504      130.255       38.150        0.086      343.862       20.272      861.948
08/09/2014  01:39:00     -165.388      -84.326       -6.072       68.061       51.564       33.177     4632.356     2658.881     1100.687        2.144        0.420      185.645       36.028        0.038      343.887       20.313      861.963
08/09/2014  01:40:00     -172.814     -149.106      -15.783       57.645       43.942       36.129     3322.936     1930.886     1305.276        2.945        0.328      228.248       30.196        0.018      344.054       20.597      861.951
08/09/2014  01:41:00     -140.113     -104.702        1.622       61.325       53.134       29.708     3760.755     2823.222      882.552        1.903        0.373      174.912       31.342        0.032      344.021       20.544      861.947
08/09/2014  01:42:00     -145.754      -81.878       -4.926       60.996       46.480       33.544     3720.526     2160.360     1125.171        1.749        0.350      167.178       37.035        0.049      344.087       20.655      861.962
08/09/2014  01:43:00     -127.162     -101.591       -5.300       50.718       40.988       27.004     2572.307     1680.028      729.201        1.575        0.249      162.760       30.338        0.035      344.135       20.738      861.963
08/09/2014  01:44:00     -150.536     -133.748       -6.217       62.050       59.626       34.469     3850.201     3555.271     1188.093        2.459        0.430      201.369       30.890        0.024      344.266       20.961      861.966
08/09/2014  01:45:00     -146.662     -119.354      -11.200       47.641       53.710       28.038     2269.664     2884.815      786.122        2.091        0.297      189.090       20.515        0.012      344.347       21.100      861.989
08/09/2014  01:46:00      -75.408     -101.805       -1.493       68.523       31.966       24.744     4695.466     1021.847      612.248        1.119        0.316      126.691       27.514        0.047      344.318       21.052      862.002
08/09/2014  01:47:00      -37.574      -36.619       -3.069       24.543       28.848       21.500      602.380      832.200      462.265        0.233        0.095       52.466       13.796        0.069      344.217       20.878      862.002
08/09/2014  01:48:00      -17.379        9.568        0.302       28.124       18.878       15.338      790.969      356.368      235.268        0.089        0.069       19.839       15.675        0.624      343.975       20.466      862.017
08/09/2014  01:49:00      -66.607       42.714       -6.186       20.333       24.810       15.485      413.424      615.551      239.777        0.378        0.063       79.126       15.842        0.040      343.866       20.279      862.022
08/09/2014  01:50:00      -29.606       41.232       -2.569       31.381       36.258       20.304      984.786     1314.628      412.257        0.265        0.136       50.761       17.481        0.119      343.860       20.269      862.022
08/09/2014  01:51:00      -69.134        1.583       -4.209       30.041       29.045       15.141      902.453      843.600      229.264        0.339        0.099       69.152       16.092        0.054      343.946       20.416      862.039
08/09/2014  01:52:00      -58.496        3.135       -0.671       20.024       12.750        9.652      400.946      162.560       93.163        0.204        0.033       58.580        8.039        0.019      343.889       20.319      862.046
08/09/2014  01:53:00      -46.049        3.261       -0.360       14.404       17.944       12.748      207.474      321.977      162.510        0.141        0.035       46.164        5.189        0.013      343.856       20.262      862.052
08/09/2014  01:54:00      -52.953       -0.004       -4.448       21.155       21.005       10.242      447.536      441.196      104.898        0.191        0.050       52.953        7.427        0.020      343.762       20.104      862.065
08/09/2014  01:55:00      -68.413      -13.642       -3.969       14.077       20.686       12.279      198.171      427.925      150.782        0.283        0.039       69.760       11.236        0.026      343.800       20.166      862.075
08/09/2014  01:56:00      -47.703      -21.297       -1.375       16.903       21.936       10.956      285.717      481.177      120.040        0.181        0.044       52.241        8.830        0.029      343.676       19.955      862.073
08/09/2014  01:57:00      -80.162        0.561       -9.962       19.289       15.571       11.247      372.084      242.442      126.484        0.363        0.037       80.164        8.132        0.010      343.644       19.900      862.071
08/09/2014  01:58:00     -101.602       -0.678       -3.413       18.839       19.506       12.374      354.910      380.502      153.122        0.561        0.044      101.604        9.479        0.009      343.676       19.954      862.078
08/09/2014  01:59:00      -99.603      -19.804        0.683       42.877       24.299       17.777     1838.442      590.428      316.021        0.653        0.137      101.553       19.509        0.037      343.648       19.909      862.078
08/09/2014  02:00:00     -110.248      -11.855       -1.018       38.902       27.250       20.129     1513.386      742.542      405.166        0.748        0.133      110.884       20.705        0.035      343.576       19.784      862.075
08/09/2014  02:01:00      -87.182      -36.200       -3.026       42.646       23.514       17.820     1818.686      552.913      317.548        0.580        0.134       94.399       21.217        0.051      343.564       19.764      862.084
08/09/2014  02:02:00      -93.481      -51.176        2.365       55.069       50.093       26.185     3032.559     2509.356      685.634        0.879        0.311      106.572       27.405        0.066      343.692       19.984      862.087
08/09/2014  02:03:00     -113.299     -105.444       -0.643       48.551       57.012       22.414     2357.224     3250.378      502.379        1.503        0.305      154.774       19.140        0.015      344.052       20.598      862.080
08/09/2014  02:04:00      -65.908      -58.778       19.042       56.960       35.253       25.899     3244.444     1242.771      670.734        0.666        0.258       88.311       25.137        0.081      343.931       20.390      862.078
08/09/2014  02:05:00      -83.620      -63.457       -3.796       48.353       36.583       24.933     2338.027     1338.333      621.653        0.766        0.215      104.971       18.677        0.032      343.847       20.248      862.094
08/09/2014  02:06:00     -112.415      -76.648       -2.158       65.013       49.652       34.624     4226.703     2465.361     1198.846        1.320        0.395      136.059       37.006        0.074      343.954       20.431      862.096
08/09/2014  02:07:00     -115.851      -45.813       -1.272       56.207       32.891       24.452     3159.189     1081.815      597.917        1.018        0.242      124.580       28.153        0.051      343.854       20.258      862.088
08/09/2014  02:08:00     -155.379      -87.437       -7.714       52.551       39.592       21.274     2761.615     1567.565      452.574        1.831        0.239      178.292        5.777        0.001      343.907       20.349      862.088
08/09/2014  02:09:00     -155.610     -126.536       -8.371       59.623       54.590       33.720     3554.887     2980.027     1137.069        2.398        0.384      200.564       29.977        0.022      343.928       20.383      862.083
08/09/2014  02:10:00     -162.326      -51.902        1.230       36.011       34.803       20.496     1296.765     1211.234      420.072        1.599        0.146      170.422       18.528        0.012      343.796       20.160      862.075
08/09/2014  02:11:00     -101.530      -56.536        1.407       51.351       47.363       30.940     2636.952     2243.210      957.296        0.967        0.292      116.210       29.887        0.066      343.767       20.110      862.078
08/09/2014  02:12:00     -105.479      -30.588       -3.169       51.753       38.229       24.895     2678.370     1461.453      619.745        0.841        0.238      109.825       21.959        0.040      343.703       20.001      862.082
08/09/2014  02:13:00     -121.418      -60.367        4.956       38.413       35.941       21.831     1475.562     1291.752      476.573        1.083        0.162      135.597       15.375        0.013      343.722       20.034      862.086
08/09/2014  02:14:00     -112.633      -68.234        8.827       66.516       64.289       28.162     4424.327     4133.084      793.104        1.338        0.468      131.689       30.409        0.053      343.700       19.995      862.073
08/09/2014  02:15:00     -123.165      -42.274        4.628       64.891       46.141       36.698     4210.792     2128.965     1346.749        1.233        0.384      130.218       35.476        0.074      343.739       20.061      862.060
08/09/2014  02:16:00      -93.320      -78.318       -2.587       69.279       53.858       29.872     4799.548     2900.688      892.356        1.172        0.430      121.829       33.097        0.074      343.712       20.015      862.061
08/09/2014  02:17:00     -126.879      -32.105       -2.906       44.329       55.001       23.977     1965.062     3025.058      574.879        1.135        0.278      130.878       26.736        0.042      343.697       19.991      862.066
08/09/2014  02:18:00     -163.389       19.280      -15.650       39.223       33.050       26.090     1538.442     1092.320      680.701        1.531        0.166      164.523       20.352        0.015      343.416       19.512      862.073
08/09/2014  02:19:00     -197.540       32.115      -19.866       56.964       30.969       20.772     3244.926      959.078      431.489        2.254        0.232      200.134       23.737        0.014      343.210       19.158      862.101
08/09/2014  02:20:00     -149.832       -8.607      -12.353       44.760       50.793       34.142     2003.443     2579.905     1165.679        1.421        0.287      150.079       24.578        0.027      343.096       18.966      862.117
08/09/2014  02:21:00     -138.529      -48.681      -14.251       36.463       39.265       26.239     1329.545     1541.765      688.500        1.266        0.178      146.833       18.529        0.016      343.056       18.898      862.113
08/09/2014  02:22:00     -175.648      -68.094      -10.815       34.635       38.148       25.651     1199.585     1455.291      657.963        1.946        0.166      188.385       20.399        0.012      343.178       19.106      862.111
08/09/2014  02:23:00     -127.186      -56.332       14.377       67.180       45.662       31.629     4513.150     2084.989     1000.404        1.358        0.380      139.103       35.221        0.064      343.262       19.250      862.106
08/09/2014  02:24:00     -180.453      -75.734       -9.319       37.822       31.725       22.547     1430.480     1006.458      508.381        2.066        0.147      195.701       12.193        0.004      343.318       19.344      862.105
08/09/2014  02:25:00     -129.006      -36.143        6.921       63.321       43.003       30.845     4009.575     1849.290      951.435        1.240        0.341      133.974       32.998        0.061      343.193       19.131      862.126
08/09/2014  02:26:00     -141.054      -21.233       -1.938       59.958       44.678       27.347     3594.924     1996.129      747.870        1.334        0.317      142.643       28.970        0.041      343.060       18.904      862.142
08/09/2014  02:27:00     -161.827      -64.818        6.413       48.038       39.937       29.046     2307.635     1594.954      843.678        1.759        0.237      174.325       29.096        0.028      343.091       18.958      862.149
08/09/2014  02:28:00     -139.137     -117.409        1.865       65.733       44.600       32.959     4320.835     1989.130     1086.271        2.027        0.370      182.055       33.774        0.034      343.241       19.212      862.147
08/09/2014  02:29:00     -163.610     -125.510        0.418       83.338       66.165       43.488     6945.210     4377.854     1891.249        2.787        0.661      206.207       49.763        0.058      343.367       19.424      862.133
08/09/2014  02:30:00     -107.779      -45.217       -1.832       53.426       46.207       28.314     2854.366     2135.049      801.686        0.973        0.290      116.880       22.569        0.037      343.292       19.300      862.139
08/09/2014  02:31:00     -100.689       -1.173       -0.564       57.155       41.899       26.176     3266.744     1755.491      685.183        0.792        0.285      100.695       27.033        0.072      343.145       19.051      862.152
08/09/2014  02:32:00      -94.320      -14.024        4.441       45.830       34.557       27.105     2100.346     1194.205      734.664        0.657        0.201       95.357       26.706        0.078      343.070       18.922      862.163
08/09/2014  02:33:00     -138.977        3.807       -8.401       41.641       35.730       23.108     1733.973     1276.625      533.970        1.147        0.177      139.029       21.612        0.024      343.247       19.224      862.167
08/09/2014  02:34:00      -90.139       39.210       -3.513       34.114       21.264       18.015     1163.751      452.177      324.541        0.581        0.097       98.298       12.044        0.015      343.108       18.987      862.192
08/09/2014  02:35:00     -126.910       32.875       -7.557       21.064       26.625       15.607      443.675      708.913      243.569        0.932        0.070      131.099       11.400        0.008      343.173       19.098      862.203
08/09/2014  02:36:00     -123.560        7.830      -12.904       25.535       26.604       16.258      652.042      707.793      264.332        0.856        0.081      123.808       15.643        0.016      343.132       19.029      862.210
08/09/2014  02:37:00     -136.248      -49.473      -11.762       32.311       41.017       19.174     1043.978     1682.408      367.649        1.212        0.155      144.952       18.714        0.017      343.058       18.902      862.211
08/09/2014  02:38:00     -126.266      -39.209       -3.694       38.886       30.196       19.197     1512.159      911.781      368.509        1.014        0.140      132.213       19.219        0.021      342.929       18.683      862.203
08/09/2014  02:39:00     -117.089      -48.920      -11.129       33.050       31.252       19.357     1092.283      976.677      374.710        0.933        0.122      126.898       16.007        0.016      343.110       18.992      862.201
08/09/2014  02:40:00      -84.082      -46.987       -0.334       61.014       38.594       17.798     3722.713     1489.495      316.759        0.740        0.276       96.320       24.295        0.064      343.183       19.115      862.211
08/09/2014  02:41:00     -123.674      -70.003       -4.157       39.613       33.416       22.469     1569.164     1116.616      504.837        1.170        0.160      142.111       22.418        0.025      343.273       19.269      862.198
08/09/2014  02:42:00      -93.120      -26.072       -7.974       42.728       34.498       18.566     1825.690     1190.141      344.708        0.639        0.168       96.701       21.313        0.049      343.143       19.048      862.194
08/09/2014  02:43:00     -141.861      -24.209      -11.498       40.004       24.525       18.761     1600.314      601.489      351.980        1.170        0.128      143.912       22.107        0.024      343.190       19.128      862.212
08/09/2014  02:44:00     -147.401      -23.797      -14.300       25.620       23.466       15.207      656.361      550.660      231.250        1.197        0.072      149.310       13.904        0.009      343.101       18.975      862.206
08/09/2014  02:45:00     -120.237      -36.150        0.132       41.456       33.021       22.726     1718.627     1090.388      516.493        0.954        0.166      125.554       21.185        0.028      343.080       18.941      862.206
08/09/2014  02:46:00     -100.640      -32.907       -3.380       33.365       26.401       16.352     1113.244      697.008      267.376        0.665        0.104      105.883       15.166        0.021      343.083       18.946      862.216
08/09/2014  02:47:00     -114.021      -37.388       -9.718       27.596       30.452       15.357      761.512      927.343      235.849        0.821        0.096      119.994       13.704        0.013      343.146       19.053      862.227
08/09/2014  02:48:00      -87.867       -6.770       -4.459       41.999       29.973       21.500     1763.933      898.378      462.235        0.545        0.156       88.127       22.205        0.063      343.104       18.981      862.225
08/09/2014  02:49:00     -126.513       10.163      -11.549       40.217       32.925       19.906     1617.376     1084.072      396.248        0.967        0.155      126.920       20.797        0.027      343.404       19.491      862.236
08/09/2014  02:50:00      -92.652       43.522      -12.596       25.751       26.749       18.572      663.106      715.519      344.934        0.618        0.086      102.365       14.353        0.020      343.307       19.327      862.251
08/09/2014  02:51:00     -111.918       25.216       -4.683       34.530       29.970       23.722     1192.329      898.204      562.724        0.792        0.133      114.723       18.407        0.026      343.267       19.259      862.257
08/09/2014  02:52:00     -162.215       -1.318      -14.746       38.703       31.134       21.337     1497.955      969.327      455.251        1.473        0.146      162.220       20.214        0.016      343.283       19.286      862.271
08/09/2014  02:53:00     -162.305       21.747      -12.243       34.624       28.041       18.269     1198.843      786.271      333.772        1.464        0.116      163.756       16.486        0.010      343.138       19.039      862.288
08/09/2014  02:54:00     -115.270       31.897       -8.846       56.862       27.235       21.220     3233.267      741.768      450.277        0.940        0.221      119.602       20.519        0.029      343.214       19.169      862.289
08/09/2014  02:55:00      -94.354       77.446      -24.215       24.925       27.849       18.957      621.269      775.589      359.366        0.862        0.088      122.068       17.076        0.020      343.586       19.802      862.303
08/09/2014  02:56:00      -77.600      110.567      -24.199       27.149       31.089       14.964      737.089      966.502      223.922        1.038        0.096      135.081       15.262        0.013      343.605       19.834      862.322
08/09/2014  02:57:00      -88.566       86.552      -16.032       23.142       38.270       17.788      535.564     1464.622      316.415        0.895        0.116      123.835       15.621        0.016      343.481       19.623      862.329
08/09/2014  02:58:00      -72.776       35.909      -11.934       21.552       29.360       12.978      464.481      862.022      168.439        0.411        0.075       81.153       12.515        0.024      343.487       19.633      862.329
08/09/2014  02:59:00      -48.218      -22.325      -14.004       14.123       16.331       13.975      199.459      266.702      195.313        0.184        0.033       53.135        9.203        0.030      343.242       19.215      862.340
08/09/2014  03:00:00      -59.668      -16.962       -6.677       19.457       16.239       11.844      378.589      263.716      140.280        0.234        0.039       62.032        6.386        0.011      343.058       18.903      862.346
08/09/2014  03:01:00      -78.218      -30.200       -3.403       45.124       20.203       15.224     2036.186      408.148      231.783        0.486        0.134       83.846       15.496        0.034      342.968       18.748      862.338
08/09/2014  03:02:00     -105.923      -32.799       -2.795       37.672       20.678       16.215     1419.145      427.559      262.932        0.721        0.105      110.885       11.624        0.011      342.962       18.740      862.337
08/09/2014  03:03:00      -72.043      -22.706       -4.189       19.020       14.996       11.208      361.765      224.868      125.612        0.322        0.036       75.536        7.827        0.011      343.038       18.868      862.331
08/09/2014  03:04:00      -54.964      -16.603       -9.349       11.695       10.351        7.656      136.770      107.146       58.619        0.184        0.015       57.417        5.962        0.011      343.122       19.012      862.333
08/09/2014  03:05:00      -44.102      -11.190        2.878       23.649       16.613       12.693      559.277      275.990      161.121        0.154        0.050       45.499        6.832        0.023      343.152       19.063      862.326
08/09/2014  03:06:00      -18.924       12.046       -3.142       15.626       14.000        7.879      244.161      196.005       62.071        0.051        0.025       22.433        4.256        0.036      343.336       19.375      862.320
08/09/2014  03:07:00      -22.887       15.080       -9.445       11.189       20.423        8.726      125.187      417.080       76.141        0.073        0.031       27.409       10.388        0.144      343.406       19.495      862.330
08/09/2014  03:08:00      -23.882       23.859      -10.240       19.079       29.456       12.415      363.996      867.632      154.134        0.131        0.069       33.758        9.912        0.086      343.522       19.692      862.322
08/09/2014  03:09:00      -37.558      -12.239       -6.993       11.673       10.463       10.100      136.258      109.480      102.011        0.098        0.017       39.502        4.014        0.010      343.426       19.530      862.310
08/09/2014  03:10:00      -19.047      -17.760        0.108       17.758       15.225       10.299      315.331      231.803      106.078        0.067        0.033       26.042        6.645        0.065      343.382       19.456      862.298
08/09/2014  03:11:00      -32.907      -24.585       -6.153        9.605       15.421        9.774       92.251      237.810       95.529        0.108        0.021       41.077        4.972        0.015      343.406       19.495      862.294
08/09/2014  03:12:00      -53.414      -26.088       -9.779       12.303       14.060       12.008      151.365      197.677      144.193        0.206        0.025       59.444        5.983        0.010      343.268       19.260      862.281
08/09/2014  03:13:00      -63.942      -13.178      -11.327       17.159       11.676        7.733      294.416      136.332       59.801        0.244        0.025       65.286        4.607        0.005      343.147       19.055      862.268
08/09/2014  03:14:00      -80.762       -6.106      -16.278       11.457       12.043        8.190      131.256      145.024       67.079        0.358        0.017       80.992        5.099        0.004      343.099       18.971      862.258
08/09/2014  03:15:00      -46.818       -6.912       -9.154       13.857       11.825        6.616      192.016      139.835       43.771        0.135        0.019       47.325        7.232        0.023      343.156       19.070      862.252
08/09/2014  03:16:00      -33.387       10.195      -13.482       23.107       36.462       11.400      533.932     1329.485      129.954        0.170        0.100       34.909        5.211        0.022      343.417       19.515      862.249
08/09/2014  03:17:00      -50.825      -15.626      -11.090       10.299       10.515       10.358      106.078      110.570      107.280        0.164        0.016       53.173        7.848        0.022      343.127       19.019      862.254
08/09/2014  03:18:00      -63.049       -9.785       -4.592       13.106       15.843        9.889      171.764      250.998       97.794        0.231        0.026       63.804        6.675        0.011      343.066       18.916      862.248
08/09/2014  03:19:00      -61.676      -13.685      -10.143       15.054       21.955        9.842      226.625      482.014       96.862        0.245        0.040       63.176        6.866        0.012      343.133       19.031      862.245
08/09/2014  03:20:00     -129.953       11.663      -11.425       63.027       34.752       27.046     3972.432     1207.717      731.492        1.153        0.296      130.476       29.515        0.051      342.834       18.522      862.251
08/09/2014  03:21:00     -172.216       12.659      -13.129       45.451       45.336       23.101     2065.798     2055.331      533.643        1.732        0.233      172.680       22.223        0.017      342.901       18.634      862.256
08/09/2014  03:22:00     -136.077       -3.466      -13.054       34.308       31.520       20.230     1177.012      993.503      409.250        1.064        0.129      136.121       14.685        0.012      342.841       18.535      862.264
08/09/2014  03:23:00     -119.647      -12.760      -11.822       36.761       45.638       20.602     1351.349     2082.790      424.437        0.924        0.193      120.326       14.710        0.015      342.763       18.399      862.280
08/09/2014  03:24:00     -119.311      -20.163      -15.068       31.744       35.531       26.113     1007.653     1262.449      681.863        0.891        0.148      121.002       16.846        0.019      342.820       18.499      862.280
08/09/2014  03:25:00     -129.382       -9.140      -12.683       39.863       28.593       23.201     1589.067      817.561      538.280        0.996        0.147      129.705       23.500        0.033      342.737       18.355      862.282
08/09/2014  03:26:00     -139.447       -8.361      -10.594       42.550       34.733       23.179     1810.526     1206.405      537.252        1.159        0.178      139.697       19.323        0.019      342.639       18.189      862.284
08/09/2014  03:27:00     -169.315      -16.015       -8.182       56.563       47.735       28.046     3199.427     2278.650      786.575        1.763        0.313      170.071       30.705        0.033      342.604       18.128      862.289
08/09/2014  03:28:00     -172.094        1.346      -23.227       26.708       23.440       20.412      713.294      549.434      416.643        1.592        0.084      172.100       11.072        0.004      342.714       18.318      862.298
08/09/2014  03:29:00     -123.078      -31.084       -8.095       44.447       29.231       20.050     1975.538      854.426      401.988        0.971        0.162      126.942       18.824        0.022      342.676       18.250      862.292
08/09/2014  03:30:00     -181.997       11.194      -22.334       39.438       35.407       18.450     1555.369     1253.630      340.389        1.845        0.157      182.341       19.227        0.011      342.886       18.610      862.290
08/09/2014  03:31:00     -115.220      -52.887       -4.653       38.564       32.177       23.245     1487.199     1035.359      540.313        0.958        0.153      126.778       25.073        0.039      342.825       18.505      862.288
08/09/2014  03:32:00     -101.253      -13.088       -2.931       50.400       36.360       24.326     2540.124     1322.084      591.763        0.744        0.223      102.095       24.679        0.058      342.610       18.139      862.298
08/09/2014  03:33:00     -140.012      -27.398       -9.594       43.439       51.961       27.519     1886.973     2699.977      757.278        1.289        0.267      142.667       23.098        0.026      342.632       18.179      862.312
08/09/2014  03:34:00      -87.450        9.304       -8.581       44.368       41.373       30.371     1968.536     1711.732      922.372        0.620        0.230       87.944       22.781        0.067      342.518       17.984      862.314
08/09/2014  03:35:00     -154.198       -8.074      -13.596       33.763       42.243       26.776     1139.923     1784.467      716.938        1.383        0.182      154.410       19.210        0.015      342.551       18.041      862.322
08/09/2014  03:36:00     -139.161      -21.480      -12.930       33.966       30.319       22.855     1153.712      919.258      522.345        1.129        0.130      140.809       17.755        0.016      342.485       17.927      862.334
08/09/2014  03:37:00     -167.601      -22.230      -25.430       27.608       29.487       21.678      762.198      869.510      469.927        1.567        0.105      169.068       16.417        0.009      342.382       17.752      862.336
08/09/2014  03:38:00     -137.356      -58.155       -6.397       45.539       51.003       28.576     2073.797     2601.313      816.596        1.389        0.275      149.160       20.260        0.018      342.375       17.739      862.330
08/09/2014  03:39:00     -136.309      -20.392      -11.688       36.784       36.530       23.395     1353.027     1334.451      547.335        1.118        0.162      137.826       13.574        0.010      342.422       17.819      862.329
08/09/2014  03:40:00      -76.045      -34.648       -5.050       30.751       43.299       23.223      945.617     1874.791      539.292        0.518        0.168       83.566       18.946        0.051      342.393       17.771      862.331
08/09/2014  03:41:00     -119.260      -54.418       -8.959       31.625       40.401       18.698     1000.170     1632.257      349.623        1.012        0.149      131.089        8.602        0.004      342.430       17.834      862.318
08/09/2014  03:42:00     -164.638      -42.722       -9.364       30.852       30.338       21.612      951.866      920.368      467.079        1.568        0.117      170.090       13.691        0.006      342.390       17.766      862.326
08/09/2014  03:43:00     -166.687      -51.108      -10.944       29.150       32.412       18.263      849.720     1050.517      333.527        1.637        0.112      174.346       14.837        0.007      342.419       17.816      862.325
08/09/2014  03:44:00      -85.243      -36.560        1.701       69.494       32.355       27.927     4829.464     1046.873      779.899        0.763        0.333       92.753       27.689        0.089      342.409       17.797      862.323
08/09/2014  03:45:00      -74.270      -48.643        6.328       46.429       46.533       26.707     2155.643     2165.337      713.278        0.648        0.252       88.782       29.365        0.109      342.394       17.773      862.347
08/09/2014  03:46:00     -106.335      -31.360       -1.258       36.729       26.902       17.914     1349.013      723.718      320.903        0.734        0.120      110.863       15.477        0.019      342.380       17.747      862.354
08/09/2014  03:47:00      -96.543      -19.937       -0.238       19.614       28.608       17.034      384.701      818.431      290.171        0.561        0.075       98.580       12.257        0.015      342.321       17.649      862.353
08/09/2014  03:48:00      -91.389      -23.876       -7.315       26.421       23.148       13.297      698.058      535.812      176.821        0.519        0.071       94.456        9.705        0.011      342.273       17.567      862.350
08/09/2014  03:49:00      -73.254      -17.488        1.562       28.192       24.938       16.300      794.802      621.888      265.701        0.368        0.084       75.313       14.551        0.037      342.194       17.434      862.349
08/09/2014  03:50:00      -73.255       -3.834       -2.985       19.563       25.428       15.687      382.711      646.586      246.089        0.333        0.064       73.355       15.045        0.042      342.207       17.455      862.343
08/09/2014  03:51:00      -58.909       -0.650      -10.338       15.124        8.413        7.713      228.727       70.776       59.496        0.197        0.018       58.912        5.493        0.009      342.223       17.483      862.340
08/09/2014  03:52:00       -5.528       -0.385      -11.259       13.716       11.069       10.159      188.123      122.519      103.203        0.029        0.021        5.542       10.287        3.446      342.293       17.602      862.339
08/09/2014  03:53:00       -3.010      -18.343       -6.962       17.787       11.765        9.768      316.386      138.409       95.410        0.047        0.028       18.588        8.821        0.225      342.526       17.997      862.348
08/09/2014  03:54:00      -10.875        1.359       -6.752       13.395       10.122        6.078      179.434      102.453       36.945        0.024        0.016       10.960        5.760        0.276      342.421       17.819      862.354
08/09/2014  03:55:00      -48.831       -6.454       -6.205       16.553       10.587        6.766      273.989      112.076       45.777        0.145        0.022       49.256        8.847        0.032      342.398       17.778      862.357
08/09/2014  03:56:00      -71.317      -28.911      -13.605       10.655       10.116        7.107      113.529      102.335       50.506        0.319        0.013       76.955        3.690        0.002      342.072       17.226      862.375
08/09/2014  03:57:00      -44.784      -28.032      -10.848       37.240       17.135       14.319     1386.821      293.621      205.029        0.240        0.094       52.834       14.312        0.073      342.033       17.160      862.374
08/09/2014  03:58:00      -37.479      -16.425        0.092       31.503       18.449       20.388      992.441      340.374      415.680        0.171        0.087       40.921       21.088        0.266      342.081       17.241      862.359
08/09/2014  03:59:00       -8.672      -23.237       -0.865       29.076       20.130       13.039      845.402      405.237      170.004        0.102        0.071       24.802       18.022        0.528      342.199       17.442      862.352
08/09/2014  04:00:00      -14.191      -18.431       -1.598       14.344       15.515       14.204      205.738      240.722      201.749        0.060        0.032       23.262       11.784        0.257      342.036       17.164      862.351
08/09/2014  04:01:00        6.535       -1.128       -7.877        7.871       11.890        9.517       61.958      141.362       90.572        0.020        0.015        6.632        8.007        1.458      342.067       17.216      862.352
08/09/2014  04:02:00       -6.246      -15.508       -8.970       14.503       14.983        7.216      210.338      224.489       52.070        0.042        0.024       16.719        5.923        0.126      342.276       17.571      862.346
08/09/2014  04:03:00      -35.100      -24.704      -11.180       12.153        9.094        6.902      147.689       82.702       47.641        0.112        0.014       42.922        4.757        0.012      342.248       17.523      862.347
08/09/2014  04:04:00      -47.514      -27.871       -5.625       15.732        7.467        6.788      247.495       55.752       46.072        0.171        0.017       55.085        2.512        0.002      342.406       17.793      862.346
08/09/2014  04:05:00      -69.142      -34.405      -11.137        9.787       11.217        7.340       95.795      125.823       53.881        0.318        0.014       77.229        2.867        0.001      342.289       17.594      862.362
08/09/2014  04:06:00     -114.247      -43.621       -3.294       18.971       14.128        7.542      359.917      199.597       56.882        0.779        0.031      122.291        4.310        0.001      342.211       17.461      862.380
08/09/2014  04:07:00     -116.519      -41.216       -7.491       19.402       12.767       12.592      376.423      162.995      158.570        0.801        0.035      123.594        8.368        0.005      342.087       17.251      862.391
08/09/2014  04:08:00     -106.776      -44.954       -1.302       21.756       20.134       12.762      473.319      405.363      162.864        0.723        0.052      115.854        2.210        0.000      342.038       17.168      862.397
08/09/2014  04:09:00      -71.900      -54.431       -1.549       27.731       17.286       15.668      768.994      298.821      245.496        0.472        0.066       90.180       13.609        0.023      342.160       17.374      862.393
08/09/2014  04:10:00      -40.906      -27.850        6.604       29.760       22.019       20.430      885.640      484.840      417.365        0.214        0.089       49.487       20.459        0.171      342.119       17.306      862.405
08/09/2014  04:11:00      -56.731      -42.351        2.689       25.694       15.334       14.913      660.199      235.139      222.387        0.307        0.056       70.796       13.899        0.039      342.119       17.305      862.422
08/09/2014  04:12:00      -82.502      -22.778       -6.066       17.593       19.123       12.066      309.529      365.692      145.581        0.409        0.041       85.588        8.916        0.011      342.079       17.238      862.422
08/09/2014  04:13:00     -100.105      -15.127       -6.593       13.244       15.287       10.809      175.398      233.683      116.840        0.541        0.026      101.241        3.619        0.001      342.019       17.135      862.422
08/09/2014  04:14:00      -94.946      -21.039       -4.750       23.050       18.170       15.031      531.325      330.157      225.933        0.528        0.054       97.249       12.634        0.017      341.946       17.012      862.423
08/09/2014  04:15:00     -116.593      -36.012       -2.151       23.493       26.627       17.949      551.939      708.976      322.167        0.824        0.079      122.028       11.655        0.009      341.915       16.959      862.432
08/09/2014  04:16:00      -88.928      -21.489        3.307       31.366       26.120       16.697      983.817      682.278      278.781        0.516        0.097       91.488       16.593        0.033      341.811       16.783      862.437
08/09/2014  04:17:00      -78.414      -15.658        0.702       37.403       30.399       21.410     1398.968      924.116      458.398        0.459        0.139       79.962       22.268        0.078      341.755       16.688      862.437
08/09/2014  04:18:00     -103.692      -26.022        1.661       28.375       22.763       16.613      805.124      518.137      275.978        0.652        0.080      106.907       14.553        0.019      341.805       16.772      862.432
08/09/2014  04:19:00      -78.770      -36.575        3.800       26.777       29.333       15.360      717.010      860.423      235.944        0.468        0.091       86.847       12.806        0.022      341.896       16.929      862.440
08/09/2014  04:20:00      -85.275      -30.769        2.495       29.405       21.741       13.643      864.675      472.654      186.132        0.487        0.076       90.656       13.614        0.023      341.887       16.912      862.448
08/09/2014  04:21:00      -49.721      -51.574        7.210       40.623       22.954       21.969     1650.235      526.893      482.647        0.392        0.133       71.639       20.704        0.084      341.976       17.062      862.464
08/09/2014  04:22:00      -43.901      -48.422        4.782       40.676       31.758       20.979     1654.501     1008.597      440.122        0.370        0.155       65.360       18.586        0.081      342.003       17.108      862.468
08/09/2014  04:23:00     -115.721      -67.756       -1.156       48.037       26.120       25.536     2307.557      682.256      652.084        1.081        0.182      134.098       27.735        0.043      342.030       17.156      862.469
08/09/2014  04:24:00      -65.934      -64.733       -1.713       43.065       30.576       18.779     1854.562      934.889      352.643        0.584        0.157       92.399       17.557        0.036      342.006       17.114      862.465
08/09/2014  04:25:00      -99.720      -60.134       -2.983       45.275       30.208       24.285     2049.819      912.514      589.754        0.856        0.178      116.448       20.972        0.032      341.965       17.043      862.475
08/09/2014  04:26:00     -115.565      -60.355        5.454       36.494       32.505       19.872     1331.797     1056.592      394.878        0.990        0.139      130.376       18.625        0.020      341.959       17.034      862.479
08/09/2014  04:27:00      -84.984      -61.703        9.067       42.317       30.548       23.758     1790.690      933.177      564.442        0.720        0.164      105.022       24.870        0.056      341.911       16.951      862.471
08/09/2014  04:28:00      -91.302      -61.677        5.395       47.479       28.456       25.902     2254.303      809.723      670.928        0.795        0.187      110.183       24.234        0.048      341.920       16.967      862.475
08/09/2014  04:29:00      -91.138      -65.700        8.540       60.985       43.345       27.172     3719.217     1878.786      738.333        0.951        0.317      112.350       27.047        0.058      341.911       16.954      862.492
08/09/2014  04:30:00     -125.786      -72.241        2.407       53.988       42.832       30.906     2914.706     1834.540      955.176        1.337        0.285      145.055       24.887        0.029      341.912       16.955      862.479
08/09/2014  04:31:00     -113.961      -83.873        8.688       53.801       42.868       28.106     2894.578     1837.697      789.970        1.281        0.276      141.498       32.572        0.053      341.910       16.951      862.463
08/09/2014  04:32:00     -128.225      -84.262        2.968       48.036       33.592       24.382     2307.466     1128.418      594.476        1.379        0.202      153.433       22.808        0.022      341.917       16.963      862.467
08/09/2014  04:33:00     -107.680      -77.782        1.816       48.180       32.994       26.323     2321.350     1088.586      692.916        1.087        0.205      132.834       22.478        0.029      341.908       16.949      862.472
08/09/2014  04:34:00      -78.784      -62.296        2.959       49.902       27.114       24.831     2490.229      735.188      616.577        0.697        0.192      100.438       25.501        0.064      341.921       16.970      862.467
08/09/2014  04:35:00      -54.225      -30.439        4.627       56.339       30.175       22.229     3174.066      910.531      494.150        0.423        0.229       62.185       29.075        0.219      341.865       16.875      862.471
08/09/2014  04:36:00      -53.305      -29.594       -2.380       30.964       26.296       17.438      958.764      691.496      304.095        0.284        0.098       60.969       10.374        0.029      341.855       16.857      862.473
08/09/2014  04:37:00      -41.956      -44.850        7.011       34.106       27.966       20.441     1163.215      782.080      417.832        0.309        0.118       61.415       14.884        0.059      341.820       16.797      862.496
08/09/2014  04:38:00      -53.946      -46.646        1.959       37.628       21.192       24.803     1415.845      449.080      615.174        0.378        0.124       71.317       26.129        0.134      341.854       16.857      862.499
08/09/2014  04:39:00      -46.011      -37.229        1.718       32.851       22.686       15.611     1079.206      514.657      243.715        0.267        0.092       59.186       14.409        0.059      341.835       16.824      862.513
08/09/2014  04:40:00      -51.953      -36.279        1.404       18.897       21.989       14.883      357.086      483.507      221.516        0.254        0.053       63.366       13.584        0.046      341.800       16.764      862.526
08/09/2014  04:41:00      -62.712      -16.195        2.273       25.107       20.169       14.126      630.353      406.793      199.547        0.272        0.062       64.769       14.150        0.048      341.784       16.738      862.527
08/09/2014  04:42:00      -78.621      -37.349       -6.299       23.407       25.638       11.091      547.895      657.329      123.008        0.447        0.066       87.041        8.632        0.010      341.820       16.798      862.525
08/09/2014  04:43:00      -67.757      -50.600       -1.772       26.102       25.277       11.642      681.310      638.937      135.533        0.430        0.073       84.566       13.144        0.024      341.810       16.783      862.533
08/09/2014  04:44:00      -53.515      -41.973       -2.374       26.219       20.021       12.526      687.457      400.841      156.890        0.294        0.062       68.012       13.083        0.037      341.796       16.757      862.536
08/09/2014  04:45:00      -28.141      -27.258        7.999       18.420       19.987       11.549      339.286      399.460      133.386        0.124        0.044       39.178        7.797        0.040      341.723       16.633      862.532
08/09/2014  04:46:00      -30.290      -29.903        6.398       26.956       18.745       17.243      726.647      351.371      297.332        0.161        0.069       42.564       11.484        0.073      341.703       16.601      862.547
08/09/2014  04:47:00      -23.506      -54.917       -1.486       31.743       34.929       15.348     1007.639     1220.049      235.561        0.302        0.123       59.736       11.207        0.035      341.750       16.680      862.557
08/09/2014  04:48:00      -64.074      -96.256       -0.138       35.858       40.849       13.834     1285.812     1668.601      191.380        0.826        0.157      115.632       14.672        0.016      341.785       16.740      862.573
08/09/2014  04:49:00      -54.705      -53.070        3.363       48.644       37.063       18.029     2366.194     1373.696      325.043        0.494        0.203       76.218       13.057        0.029      341.705       16.604      862.575
08/09/2014  04:50:00      -53.606      -38.634       -1.179       44.309       35.719       22.517     1963.293     1275.842      507.020        0.406        0.187       66.077       24.619        0.139      341.665       16.536      862.567
08/09/2014  04:51:00      -93.154      -32.926       -0.943       30.372       23.297       19.381      922.458      542.745      375.620        0.580        0.092       98.802       13.943        0.020      341.644       16.500      862.579
08/09/2014  04:52:00      -43.688      -45.723        9.929       51.267       29.954       21.529     2628.332      897.243      463.491        0.404        0.199       63.240       25.890        0.168      341.674       16.552      862.599
08/09/2014  04:53:00      -64.578     -102.230       -2.954       48.680       39.941       24.549     2369.754     1595.259      602.661        0.960        0.228      120.919       17.778        0.022      341.652       16.513      862.602
08/09/2014  04:54:00      -91.156     -118.709      -14.002       42.767       48.003       24.339     1829.025     2304.253      592.403        1.366        0.236      149.670       20.368        0.019      341.617       16.451      862.598
08/09/2014  04:55:00     -112.759     -103.975       -1.333       54.139       42.483       22.332     2931.014     1804.799      498.704        1.438        0.262      153.380       27.176        0.031      341.628       16.474      862.601
08/09/2014  04:56:00      -70.038      -80.953        9.585       54.867       34.946       28.699     3010.349     1221.256      823.615        0.830        0.253      107.045       27.183        0.064      341.621       16.462      862.597
08/09/2014  04:57:00      -41.789      -71.361        4.020       34.961       43.487       18.506     1222.251     1891.162      342.459        0.515        0.173       82.697       16.239        0.039      341.670       16.543      862.592
08/09/2014  04:58:00      -64.706      -42.039       -4.253       34.731       28.801       17.803     1206.228      829.512      316.959        0.416        0.118       77.163       16.799        0.047      341.702       16.598      862.595
08/09/2014  04:59:00      -66.911      -66.872       -6.357       21.515       17.909       13.694      462.911      320.734      187.532        0.498        0.049       94.599        7.244        0.006      341.677       16.556      862.602
08/09/2014  05:00:00      -34.904      -44.800        4.055       31.894       25.522       19.548     1017.244      651.372      382.126        0.265        0.103       56.792       11.462        0.041      341.702       16.599      862.608
08/09/2014  05:01:00      -55.523      -48.756        2.852       40.020       22.543       17.109     1601.625      508.190      292.718        0.393        0.120       73.892       21.519        0.085      341.702       16.600      862.607
08/09/2014  05:02:00      -80.419      -53.265       -3.441       28.215       15.407       16.344      796.069      237.384      267.136        0.531        0.065       96.459       14.661        0.023      341.614       16.447      862.598
08/09/2014  05:03:00      -93.872      -52.519       -3.056       24.472       13.788       17.966      598.877      190.107      322.786        0.635        0.056      107.565       14.783        0.019      341.571       16.377      862.595
08/09/2014  05:04:00      -85.425      -52.582       -4.038       25.046       25.411       15.344      627.300      645.722      235.445        0.579        0.075      100.311       11.001        0.012      341.516       16.283      862.601
08/09/2014  05:05:00     -112.247      -38.846       -3.512       21.623       20.139       14.228      467.536      405.588      202.449        0.760        0.054      118.779       10.757        0.008      341.441       16.155      862.608
08/09/2014  05:06:00      -88.972      -48.531       10.332       37.773       30.404       18.945     1426.821      924.420      358.916        0.654        0.136      101.347       20.459        0.041      341.458       16.183      862.619
08/09/2014  05:07:00      -84.269      -50.263       -0.785       50.216       22.190       19.285     2521.685      492.398      371.916        0.651        0.169       98.120       18.313        0.035      341.496       16.247      862.645
08/09/2014  05:08:00      -69.122      -53.511        2.439       34.453       28.882       18.387     1187.002      834.151      338.092        0.500        0.118       87.415       19.485        0.050      341.479       16.219      862.674
08/09/2014  05:09:00      -47.327      -56.843       -1.618       37.001       27.821       18.486     1369.055      773.991      341.731        0.398        0.124       73.966       19.281        0.068      341.600       16.424      862.694
08/09/2014  05:10:00      -71.195      -82.514        0.968       51.082       51.223       25.699     2609.415     2623.763      660.436        0.888        0.295      108.983       14.788        0.018      341.497       16.250      862.725
08/09/2014  05:11:00     -103.164      -51.062        3.442       38.321       34.768       22.276     1468.462     1208.821      496.242        0.822        0.159      115.109       13.666        0.014      341.445       16.162      862.743
08/09/2014  05:12:00      -90.912      -48.083       11.025       61.487       38.330       28.788     3780.667     1469.195      828.766        0.839        0.304      102.844       32.401        0.099      341.354       16.007      862.749
08/09/2014  05:13:00     -106.898      -48.143        2.400       44.788       33.605       26.781     2005.926     1129.309      717.248        0.880        0.193      117.239       21.765        0.034      341.337       15.979      862.748
08/09/2014  05:14:00      -50.136      -55.702        5.139       57.546       39.533       26.439     3311.572     1562.842      699.032        0.561        0.279       74.943       30.627        0.167      341.354       16.006      862.744
08/09/2014  05:15:00     -104.200      -70.783        3.853       74.661       46.779       35.541     5574.266     2188.280     1263.186        1.245        0.451      125.968       37.532        0.089      341.284       15.891      862.753
08/09/2014  05:16:00     -124.778      -79.775        2.927       47.828       42.073       29.392     2287.493     1770.122      863.918        1.343        0.246      148.100       21.925        0.022      341.336       15.979      862.754
08/09/2014  05:17:00     -122.878      -70.658        9.825       76.129       48.307       29.144     5795.631     2333.598      849.365        1.458        0.449      141.745       32.715        0.053      341.304       15.922      862.749
08/09/2014  05:18:00     -128.024      -86.113       -2.998       42.338       50.083       28.661     1792.497     2508.344      821.468        1.447        0.256      154.290       24.617        0.025      341.299       15.915      862.741
08/09/2014  05:19:00     -145.352      -92.371       -0.802       48.295       40.337       28.456     2332.432     1627.062      809.728        1.721        0.238      172.220       19.630        0.013      341.294       15.906      862.749
08/09/2014  05:20:00     -115.563      -70.983        9.154       74.261       39.563       28.447     5514.736     1565.208      809.208        1.318        0.394      135.622       26.760        0.039      341.279       15.880      862.761
08/09/2014  05:21:00     -130.147      -81.671        0.742       52.103       45.233       30.749     2714.751     2045.991      945.514        1.466        0.285      153.651       32.671        0.045      341.319       15.949      862.773
08/09/2014  05:22:00     -110.575      -99.441        1.813       49.255       31.534       26.856     2426.104      994.388      721.258        1.313        0.207      148.712       25.530        0.029      341.284       15.892      862.769
08/09/2014  05:23:00     -147.662      -98.441       -8.025       23.757       31.023       20.022      564.375      962.416      400.872        1.674        0.096      177.467       14.100        0.006      341.298       15.914      862.767
08/09/2014  05:24:00     -132.765      -73.852       -3.853       26.418       21.931       21.338      697.902      480.952      455.313        1.236        0.082      151.924       16.700        0.012      341.291       15.900      862.764
08/09/2014  05:25:00     -121.350      -65.196       -3.424       31.342       30.457       23.121      982.311      927.655      534.558        1.072        0.122      137.755       19.990        0.021      341.265       15.858      862.762
08/09/2014  05:26:00     -109.783      -70.939       -4.708       37.209       31.962       17.841     1384.480     1021.572      318.297        0.992        0.136      130.708       13.047        0.010      341.271       15.866      862.754
08/09/2014  05:27:00     -125.588      -46.664      -10.931       34.827       34.366       21.377     1212.940     1181.049      456.972        1.046        0.143      133.977       16.824        0.016      341.284       15.890      862.755
08/09/2014  05:28:00     -119.618      -45.487       -3.966       29.239       28.761       24.383      854.909      827.197      594.547        0.933        0.114      127.975       17.729        0.019      341.271       15.869      862.743
08/09/2014  05:29:00     -124.259      -45.278        3.959       54.507       34.873       25.939     2970.993     1216.149      672.829        1.118        0.243      132.251       29.316        0.049      341.181       15.715      862.738
08/09/2014  05:30:00     -104.252      -30.678        0.078       34.368       32.841       23.317     1181.140     1078.560      543.689        0.731        0.140      108.672       21.337        0.039      341.201       15.749      862.753
08/09/2014  05:31:00     -133.734      -36.480      -11.573       25.675       31.071       17.021      659.188      965.410      289.725        1.063        0.096      138.620       11.000        0.006      341.148       15.660      862.766
08/09/2014  05:32:00     -128.427      -31.076       -9.586       28.059       27.450       14.274      787.329      753.523      203.745        0.965        0.087      132.133        8.587        0.004      341.313       15.939      862.773
08/09/2014  05:33:00     -121.817      -25.479      -12.222       26.371       17.856       18.053      695.439      318.843      325.898        0.849        0.067      124.453       18.222        0.021      341.290       15.900      862.773
08/09/2014  05:34:00     -106.451      -29.219       -9.419       21.880       17.232       12.661      478.743      296.934      160.294        0.660        0.047      110.388       11.052        0.010      341.352       16.004      862.790
08/09/2014  05:35:00      -98.752      -30.252       -3.412       29.878       19.318       11.322      892.697      373.194      128.183        0.604        0.070      103.282       13.196        0.016      341.275       15.875      862.792
08/09/2014  05:36:00      -82.350      -37.142        0.358       42.599       24.849       15.948     1814.692      617.471      254.335        0.542        0.134       90.338       18.287        0.041      341.210       15.764      862.800
08/09/2014  05:37:00      -54.966      -63.651        3.190       54.264       44.380       28.285     2944.557     1969.608      800.061        0.640        0.286       84.100       27.085        0.104      341.241       15.817      862.799
08/09/2014  05:38:00     -141.920      -75.675        1.798       53.065       36.369       29.597     2815.881     1322.714      876.001        1.544        0.251      160.836       23.138        0.021      341.276       15.876      862.806
08/09/2014  05:39:00     -126.841      -64.182        8.787       66.027       48.065       34.998     4359.597     2310.266     1224.868        1.409        0.395      142.154       40.547        0.081      341.338       15.982      862.801
08/09/2014  05:40:00     -109.968      -76.891        6.548       65.850       44.521       26.708     4336.230     1982.138      713.343        1.254        0.352      134.184       32.630        0.059      341.277       15.877      862.790
08/09/2014  05:41:00      -92.883      -72.306        9.010       57.940       43.559       33.332     3357.057     1897.421     1110.989        1.015        0.318      117.709       31.849        0.073      341.197       15.743      862.789
08/09/2014  05:42:00     -144.023     -105.067        1.541       43.380       41.332       27.449     1881.842     1708.306      753.422        1.806        0.217      178.275       21.703        0.015      341.211       15.766      862.789
08/09/2014  05:43:00     -139.017      -96.199        2.509       52.597       33.838       28.988     2766.475     1144.986      840.276        1.667        0.238      169.056       29.960        0.031      341.210       15.765      862.779
08/09/2014  05:44:00     -150.678      -64.636      -11.288       43.223       46.414       23.100     1868.238     2154.231      533.596        1.578        0.228      163.956       21.669        0.017      341.192       15.734      862.785
08/09/2014  05:45:00     -101.102      -34.022        1.313       49.482       45.175       24.503     2448.474     2040.792      600.385        0.823        0.254      106.673       20.827        0.038      341.149       15.663      862.784
08/09/2014  05:46:00     -111.095      -64.127       -5.490       46.946       31.308       26.757     2203.899      980.170      715.932        1.019        0.195      128.274       24.411        0.036      341.278       15.880      862.789
08/09/2014  05:47:00      -98.851      -51.072       -2.393       44.229       32.977       27.534     1956.214     1087.512      758.105        0.809        0.190      111.265       22.548        0.041      341.177       15.707      862.787
08/09/2014  05:48:00     -104.092      -79.964       -0.533       56.633       40.585       26.522     3207.260     1647.163      703.400        1.139        0.278      131.261       31.619        0.058      341.195       15.739      862.794
08/09/2014  05:49:00      -93.057      -88.885        7.305       50.837       38.358       25.171     2584.382     1471.336      633.593        1.065        0.234      128.686       29.464        0.052      341.145       15.654      862.801
08/09/2014  05:50:00     -102.613      -72.254        4.984       80.877       44.613       32.204     6541.043     1990.318     1037.117        1.267        0.478      125.500       40.438        0.104      341.081       15.545      862.796
08/09/2014  05:51:00     -134.417      -91.933        2.935       67.999       45.114       28.519     4623.828     2035.254      813.339        1.700        0.374      162.848       29.119        0.032      341.135       15.636      862.801
08/09/2014  05:52:00     -119.254      -91.139       -3.272       42.137       30.959       24.330     1775.530      958.470      591.946        1.293        0.166      150.093       26.694        0.032      341.155       15.671      862.814
08/09/2014  05:53:00      -70.539      -60.739        3.488       61.056       31.762       28.586     3727.788     1008.827      817.177        0.711        0.278       93.086       31.041        0.111      341.182       15.719      862.823
08/09/2014  05:54:00     -146.885      -99.412       -6.647       35.327       46.424       28.083     1247.994     2155.198      788.655        1.785        0.210      177.364       17.293        0.010      341.135       15.637      862.817
08/09/2014  05:55:00     -147.180      -70.282        2.966       66.247       41.370       34.166     4388.606     1711.517     1167.319        1.694        0.363      163.100       34.167        0.044      341.084       15.549      862.812
08/09/2014  05:56:00     -111.928      -55.805        5.306       61.145       39.324       23.032     3738.755     1546.339      530.461        1.074        0.291      125.069       23.888        0.036      341.077       15.539      862.824
08/09/2014  05:57:00      -97.539      -65.060        4.264       46.299       29.537       24.146     2143.634      872.427      583.028        0.868        0.180      117.246       21.144        0.033      341.089       15.559      862.825
08/09/2014  05:58:00     -123.437      -64.527       -3.849       54.175       27.407       21.958     2934.969      751.145      482.170        1.179        0.208      139.285       24.541        0.031      341.091       15.562      862.829
08/09/2014  05:59:00      -86.461      -54.550        1.336       38.702       51.919       26.749     1497.866     2695.630      715.525        0.768        0.245      102.231       24.690        0.058      341.090       15.562      862.841
08/09/2014  06:00:00     -109.592      -46.612      -10.012       27.016       34.447       17.086      729.839     1186.611      291.937        0.825        0.110      119.092       13.823        0.013      341.150       15.663      862.837
08/09/2014  06:01:00      -92.164      -58.228       -2.270       25.952       36.128       21.097      673.526     1305.230      445.095        0.716        0.121      109.017        9.940        0.008      341.128       15.624      862.829
08/09/2014  06:02:00      -73.067      -48.252        3.054       42.615       35.132       22.536     1816.032     1234.228      507.855        0.562        0.178       87.562       21.038        0.058      341.135       15.638      862.824
08/09/2014  06:03:00     -138.331      -84.570       -7.580       37.487       27.650       22.930     1405.285      764.525      525.803        1.452        0.135      162.135       17.879        0.012      341.112       15.599      862.824
08/09/2014  06:04:00     -112.804      -77.891        0.236       41.017       32.878       23.144     1682.431     1080.971      535.642        1.104        0.165      137.083       23.206        0.029      341.091       15.563      862.830
08/09/2014  06:05:00     -119.967      -94.211       10.720       47.456       49.712       30.822     2252.049     2471.309      950.019        1.453        0.284      152.538       32.657        0.046      341.037       15.471      862.828
08/09/2014  06:06:00     -105.266      -85.368        6.180       47.572       40.681       25.857     2263.117     1654.907      668.606        1.150        0.229      135.531       25.262        0.035      341.042       15.480      862.839
08/09/2014  06:07:00     -174.744     -137.625      -18.861       46.889       61.908       30.989     2198.537     3832.644      960.305        2.841        0.350      222.432       29.133        0.017      341.021       15.440      862.850
08/09/2014  06:08:00     -117.166     -100.431        1.472       50.352       42.469       30.250     2535.350     1803.650      915.059        1.453        0.263      154.319       24.328        0.025      340.969       15.355      862.853
08/09/2014  06:09:00     -131.357      -96.366        0.521       68.649       65.380       36.435     4712.710     4274.579     1327.489        1.843        0.516      162.914       41.204        0.064      340.923       15.277      862.856
08/09/2014  06:10:00     -133.645      -82.021        0.785       61.492       62.923       38.575     3781.314     3959.340     1488.013        1.691        0.461      156.806       31.464        0.040      340.932       15.292      862.867
08/09/2014  06:11:00     -118.857      -65.893       -4.476       55.534       39.303       38.871     3084.023     1544.701     1510.944        1.231        0.307      135.900       29.235        0.046      340.932       15.294      862.874
08/09/2014  06:12:00     -126.013      -77.646       -4.649       48.322       36.375       30.684     2334.989     1323.122      941.487        1.326        0.230      148.014       22.002        0.022      340.914       15.265      862.874
08/09/2014  06:13:00     -118.122      -56.363        2.397       53.257       67.356       34.059     2836.319     4536.890     1160.035        1.283        0.427      130.880       32.907        0.063      340.907       15.250      862.875
08/09/2014  06:14:00      -97.485      -77.226       -6.262       57.309       46.629       31.552     3284.375     2174.301      995.549        1.098        0.323      124.367       28.144        0.051      340.961       15.342      862.893
08/09/2014  06:15:00      -88.351      -64.660        5.554       53.929       64.073       30.605     2908.372     4105.291      936.641        0.998        0.398      109.484       22.627        0.043      340.917       15.269      862.904
08/09/2014  06:16:00      -90.472      -33.832        4.446       50.972       43.450       28.898     2598.108     1887.877      835.099        0.733        0.266       96.591       28.663        0.088      340.899       15.237      862.894
08/09/2014  06:17:00     -125.214      -60.528        5.758       67.512       59.302       41.232     4557.868     3516.748     1700.111        1.457        0.489      139.076       43.343        0.097      340.906       15.250      862.888
08/09/2014  06:18:00     -108.594      -37.731       -0.244       69.771       38.220       30.036     4867.923     1460.784      902.174        1.022        0.362      114.962       33.021        0.083      340.932       15.293      862.891
08/09/2014  06:19:00     -144.748      -85.144       -3.016       46.161       48.589       29.707     2130.871     2360.915      882.525        1.679        0.269      167.933       18.689        0.012      340.923       15.278      862.890
08/09/2014  06:20:00     -140.033      -85.335      -10.844       40.832       36.222       23.822     1667.213     1312.035      567.468        1.528        0.177      163.986       20.095        0.015      340.951       15.324      862.890
08/09/2014  06:21:00     -113.728      -59.464       -4.949       46.159       30.756       23.191     2130.648      945.917      537.824        1.005        0.181      128.335       22.632        0.031      340.898       15.237      862.904
08/09/2014  06:22:00     -106.037     -105.136       -1.410       49.846       59.222       26.824     2484.586     3507.207      719.545        1.450        0.336      149.324       25.183        0.028      340.918       15.268      862.912
08/09/2014  06:23:00     -150.125      -90.789      -11.142       31.754       44.452       22.899     1008.306     1975.967      524.376        1.721        0.175      175.443       13.156        0.006      340.935       15.298      862.910
08/09/2014  06:24:00      -73.223      -47.263       14.529       75.833       52.226       28.581     5750.602     2727.551      816.894        0.855        0.465       87.152       35.653        0.167      340.850       15.156      862.918
08/09/2014  06:25:00      -84.323      -56.181        4.266       59.448       47.676       29.946     3534.085     2272.968      896.752        0.849        0.335      101.324       33.959        0.112      340.874       15.197      862.937
08/09/2014  06:26:00     -124.992      -87.745      -10.637       42.544       35.739       27.136     1809.990     1277.279      736.373        1.363        0.191      152.716       24.629        0.026      340.879       15.203      862.951
08/09/2014  06:27:00     -127.504      -65.128        1.228       56.044       47.366       30.950     3140.894     2243.579      957.875        1.342        0.317      143.175       32.328        0.051      340.850       15.153      862.960
08/09/2014  06:28:00     -121.561      -61.394       -6.002       35.108       41.829       19.710     1232.566     1749.675      388.501        1.098        0.169      136.185       15.841        0.014      340.857       15.165      862.966
08/09/2014  06:29:00     -142.556      -72.999      -16.653       36.259       47.086       20.339     1314.734     2217.050      413.661        1.494        0.197      160.160       21.123        0.017      340.890       15.224      862.984
08/09/2014  06:30:00     -108.657      -36.794       -3.350       32.030       33.634       22.565     1025.930     1131.269      509.194        0.792        0.133      114.717       22.506        0.038      340.861       15.174      863.005
08/09/2014  06:31:00     -101.233      -24.374        2.709       43.520       29.518       24.487     1893.994      871.293      599.600        0.711        0.168      104.126       26.824        0.066      340.783       15.043      863.011
08/09/2014  06:32:00     -102.518      -38.523       -1.935       30.486       46.134       20.074      929.373     2128.363      402.968        0.773        0.173      109.517       12.983        0.014      340.776       15.030      863.015
08/09/2014  06:33:00     -107.477      -37.658       -4.700       26.291       25.837       12.512      691.202      667.563      156.561        0.725        0.076      113.884        6.952        0.004      340.830       15.123      863.015
08/09/2014  06:34:00      -76.734      -32.056        2.289       29.148       29.017       15.930      849.581      842.004      253.766        0.443        0.097       83.160       13.722        0.027      340.818       15.102      863.028
08/09/2014  06:35:00      -23.974      -30.114       11.882       24.573       21.269       16.694      603.833      452.365      278.682        0.148        0.067       38.492       16.119        0.175      340.938       15.304      863.039
08/09/2014  06:36:00      -48.778       -5.533        7.251       30.694       20.824       16.244      942.147      433.654      263.861        0.205        0.082       49.090       16.953        0.119      340.920       15.271      863.047
08/09/2014  06:37:00      -59.491      -22.394        9.003       19.332       26.825       15.210      373.719      719.589      231.334        0.272        0.066       63.566       11.042        0.030      340.915       15.265      863.057
08/09/2014  06:38:00      -56.336      -32.471        7.905       31.044       26.917       19.081      963.742      724.525      364.087        0.317        0.103       65.024       17.530        0.073      340.960       15.340      863.067
08/09/2014  06:39:00      -38.022      -56.545        5.874       39.391       27.174       24.653     1551.687      738.452      607.780        0.379        0.145       68.140       27.406        0.162      341.024       15.450      863.080
08/09/2014  06:40:00      -55.274      -35.367        6.838       36.069       25.159       15.998     1300.971      632.969      255.939        0.327        0.109       65.620       14.892        0.052      340.979       15.374      863.084
08/09/2014  06:41:00      -56.466      -23.638        4.056       26.745       20.998       12.262      715.288      440.913      150.350        0.253        0.065       61.214       13.458        0.048      340.918       15.271      863.090
08/09/2014  06:42:00      -49.675      -32.597        4.297       34.258       18.209       11.839     1173.631      331.569      140.168        0.260        0.082       59.416       12.989        0.048      340.956       15.334      863.091
08/09/2014  06:43:00      -42.871      -43.738        4.368       41.393       20.710       19.946     1713.403      428.884      397.860        0.315        0.127       61.245       21.817        0.127      341.019       15.442      863.099
08/09/2014  06:44:00       -7.687      -31.647       15.628       23.903       18.775       17.259      571.376      352.500      297.888        0.126        0.061       32.567       16.377        0.253      341.085       15.554      863.114
08/09/2014  06:45:00      -20.735      -49.718        0.213       31.055       20.825       16.922      964.439      433.696      286.358        0.229        0.084       53.868       12.494        0.054      341.044       15.484      863.144
08/09/2014  06:46:00      -94.361      -97.594        6.432       59.302       51.657       29.381     3516.757     2668.497      863.245        1.276        0.352      135.752       29.661        0.048      341.032       15.462      863.161
08/09/2014  06:47:00     -122.910      -71.120       -2.508       48.067       47.050       27.545     2310.480     2213.683      758.741        1.273        0.264      142.003       26.390        0.035      341.051       15.495      863.175
08/09/2014  06:48:00      -69.110      -39.978        0.357       38.319       31.615       16.790     1468.355      999.539      281.897        0.456        0.137       79.839       16.720        0.044      341.096       15.572      863.175
08/09/2014  06:49:00      -73.970      -70.689       -6.694       27.668       20.412       15.774      765.531      416.654      248.806        0.597        0.072      102.316        8.264        0.007      341.135       15.638      863.190
08/09/2014  06:50:00      -21.111      -63.294        0.778       21.569       24.651       13.569      465.203      607.696      184.107        0.285        0.063       66.722        9.595        0.021      341.254       15.838      863.198
08/09/2014  06:51:00      -56.410      -34.155        0.485       26.162       14.584       15.420      684.467      212.691      237.781        0.274        0.057       65.945       14.552        0.049      341.174       15.704      863.211
08/09/2014  06:52:00      -19.288      -30.566       10.521       19.982       23.192       14.361      399.284      537.870      206.241        0.128        0.057       36.143       11.377        0.099      341.290       15.899      863.207
08/09/2014  06:53:00      -54.316      -25.889        6.503       42.730       23.480       15.733     1825.860      551.314      247.518        0.314        0.131       60.170       20.850        0.120      341.259       15.849      863.217
08/09/2014  06:54:00      -71.002      -53.984       -0.175       24.367       20.889       15.570      593.766      436.370      242.421        0.461        0.064       89.194       11.037        0.015      341.213       15.771      863.226
08/09/2014  06:55:00      -66.952      -48.122       -2.212       25.991       21.479       15.235      675.553      461.338      232.102        0.409        0.068       82.452       13.989        0.029      341.186       15.725      863.225
08/09/2014  06:56:00      -25.449      -30.560        2.687       26.031       19.422       17.992      677.621      377.207      323.707        0.148        0.069       39.769       15.649        0.155      341.291       15.902      863.244
08/09/2014  06:57:00      -44.647      -53.302      -11.084       20.104       17.315       12.421      404.169      299.802      154.272        0.291        0.043       69.530        5.093        0.005      341.331       15.970      863.271
08/09/2014  06:58:00      -47.551      -39.350        3.052       36.252       29.837       21.678     1314.194      890.274      469.932        0.325        0.134       61.721       18.970        0.094      341.276       15.876      863.279
08/09/2014  06:59:00     -102.641      -86.888       -4.664       27.857       22.200       18.858      776.029      492.824      355.606        0.987        0.081      134.479       13.561        0.010      341.238       15.811      863.289
08/09/2014  07:00:00     -109.377      -66.723       -8.401       23.172       21.383       13.917      536.949      457.221      193.688        0.884        0.059      128.122       14.541        0.013      341.252       15.835      863.273
08/09/2014  07:01:00      -76.176      -25.996        1.330       17.229       14.301       11.767      296.833      204.531      138.452        0.356        0.032       80.490        7.106        0.008      341.276       15.877      863.256
08/09/2014  07:02:00      -48.548      -27.965       -0.933       27.139       22.836       12.617      736.501      521.496      159.179        0.228        0.071       56.026       12.225        0.048      341.297       15.911      863.245
08/09/2014  07:03:00      -70.994      -27.002        0.463       22.880       33.057       15.748      523.476     1092.771      247.999        0.382        0.093       75.956       12.995        0.029      341.282       15.887      863.225
08/09/2014  07:04:00      -38.540      -61.424        4.518       31.762       39.349       20.002     1008.851     1548.382      400.096        0.412        0.148       72.514       22.083        0.093      341.380       16.051      863.233
08/09/2014  07:05:00      -88.891      -92.434       -0.581       33.238       25.012       24.144     1104.736      625.602      582.930        0.938        0.116      128.241       20.489        0.026      341.357       16.012      863.237
08/09/2014  07:06:00      -80.928      -91.481        1.157       29.974       27.971       20.788      898.432      782.396      432.127        0.852        0.106      122.140       15.221        0.016      341.324       15.957      863.252
08/09/2014  07:07:00      -98.396      -45.029       -6.239       29.823       41.620       18.655      889.397     1732.210      347.991        0.736        0.148      108.210       12.189        0.013      341.359       16.016      863.261
08/09/2014  07:08:00      -89.367      -30.660       -3.006       29.265       23.928       18.191      856.428      572.550      330.920        0.535        0.088       94.480       13.861        0.022      341.399       16.085      863.268
08/09/2014  07:09:00      -61.792      -94.008        0.548       28.727       41.641       15.503      825.231     1733.949      240.355        0.773        0.140      112.498       18.775        0.028      341.425       16.127      863.294
08/09/2014  07:10:00      -93.972      -75.129       -2.319       31.232       37.390       21.585      975.454     1398.005      465.923        0.866        0.142      120.312       11.879        0.010      341.426       16.130      863.314
08/09/2014  07:11:00      -94.239      -78.991        3.034       51.442       47.272       23.424     2646.308     2234.622      548.691        1.028        0.271      122.966       26.432        0.046      341.418       16.114      863.329
08/09/2014  07:12:00      -58.485      -43.733        5.191       42.899       29.058       16.406     1840.314      844.381      269.151        0.416        0.148       73.028       15.176        0.043      341.447       16.167      863.338
08/09/2014  07:13:00      -14.278      -13.288       10.522       17.615       23.160       14.027      310.280      536.383      196.750        0.077        0.052       19.505       13.803        0.501      341.697       16.589      863.342
08/09/2014  07:14:00      -41.636       -9.100        5.924       22.873       16.253       13.059      523.156      264.174      170.525        0.140        0.048       42.619       12.073        0.080      341.557       16.351      863.341
08/09/2014  07:15:00      -69.694      -20.897        2.153       20.915       15.889       14.281      437.454      252.448      203.944        0.310        0.045       72.760       12.820        0.031      341.473       16.208      863.340
08/09/2014  07:16:00      -69.708      -29.920       -1.587       19.583       21.854       12.406      383.497      477.600      153.912        0.339        0.051       75.858       10.738        0.020      341.542       16.326      863.349
08/09/2014  07:17:00      -60.294      -68.004        2.393       35.031       25.459       19.218     1227.154      648.136      369.320        0.525        0.112       90.884       17.254        0.036      341.551       16.341      863.357
08/09/2014  07:18:00      -43.744      -20.619        7.452       44.920       19.612       16.811     2017.784      384.636      282.608        0.254        0.134       48.360       22.262        0.212      341.596       16.417      863.368
08/09/2014  07:19:00      -69.733      -15.512        2.254       37.471       19.450       16.191     1404.110      378.304      262.153        0.358        0.102       71.437       18.896        0.070      341.572       16.377      863.359
08/09/2014  07:20:00      -73.431      -32.555       -2.404       21.501       26.675       15.957      462.312      711.530      254.621        0.394        0.071       80.324        4.941        0.004      341.545       16.331      863.373
08/09/2014  07:21:00      -60.620      -17.418       -0.067       13.011       21.337       11.966      169.296      455.267      143.184        0.237        0.038       63.073        9.974        0.025      341.582       16.394      863.377
08/09/2014  07:22:00      -32.365      -24.676       12.365       34.821       17.852       14.346     1212.516      318.679      205.819        0.177        0.087       40.699       17.288        0.180      341.769       16.713      863.403
08/09/2014  07:23:00      -79.900      -43.015       -4.078       16.324       18.525       11.856      266.470      343.168      140.561        0.450        0.038       90.743       10.591        0.014      341.641       16.496      863.411
08/09/2014  07:24:00      -83.532      -65.536       -2.413       21.107       19.040       13.988      445.489      362.531      195.652        0.614        0.050      106.172       12.619        0.014      341.648       16.508      863.424
08/09/2014  07:25:00      -78.849      -81.976       -4.717       20.522       18.651       14.059      421.172      347.878      197.646        0.696        0.048      113.742        7.631        0.005      341.676       16.556      863.432
08/09/2014  07:26:00      -80.194     -102.170       -6.919       21.764       32.118       17.730      473.658     1031.536      314.336        0.937        0.091      129.883        9.551        0.005      341.664       16.535      863.449
08/09/2014  07:27:00     -118.955     -108.930      -15.823       32.606       26.343       22.667     1063.137      693.932      513.805        1.427        0.114      161.295       10.975        0.005      341.671       16.546      863.457
08/09/2014  07:28:00      -77.891      -93.237       -3.467       47.115       48.050       21.220     2219.787     2308.832      450.309        0.987        0.249      121.491       28.635        0.056      341.713       16.616      863.463
08/09/2014  07:29:00      -85.962      -92.998      -13.687       25.718       22.724       14.480      661.410      516.379      209.661        0.881        0.069      126.642        8.286        0.004      341.732       16.651      863.463
08/09/2014  07:30:00      -58.614      -45.047        6.561       37.779       32.007       23.042     1427.219     1024.441      530.937        0.424        0.149       73.925       24.095        0.106      341.830       16.814      863.459
08/09/2014  07:31:00      -45.502      -45.546        3.466       27.286       22.732       13.576      744.543      516.762      184.315        0.280        0.072       64.381       10.265        0.025      341.840       16.833      863.466
08/09/2014  07:32:00      -17.216      -76.130        7.262       14.354       30.043       14.796      206.039      902.602      218.909        0.374        0.066       78.052       14.543        0.035      341.866       16.874      863.466
08/09/2014  07:33:00      -49.011      -58.607       -1.046       31.328       23.009       15.880      981.415      529.402      252.166        0.380        0.088       76.399       11.732        0.024      341.889       16.914      863.474
08/09/2014  07:34:00      -66.282      -60.688       -2.088       32.475       23.255       23.007     1054.637      540.811      529.309        0.510        0.106       89.868       14.038        0.024      341.892       16.919      863.471
08/09/2014  07:35:00      -63.547      -60.607      -10.487       35.541       25.118       19.994     1263.155      630.934      399.757        0.506        0.115       87.815       10.627        0.015      341.902       16.935      863.462
08/09/2014  07:36:00      -64.263      -70.911       -6.628       24.896       20.030       13.222      619.819      401.182      174.833        0.520        0.060       95.698       10.739        0.013      341.846       16.841      863.450
08/09/2014  07:37:00      -76.949      -49.838      -11.424       15.135       18.800        7.053      229.083      353.430       49.747        0.458        0.032       91.679        4.939        0.003      341.910       16.951      863.436
08/09/2014  07:38:00      -41.087      -49.553       -0.163       13.771       13.211        9.507      189.629      174.519       90.384        0.230        0.023       64.370        7.881        0.015      341.933       16.989      863.440
08/09/2014  07:39:00      -23.490      -34.648        2.110       11.008       18.694        8.607      121.169      349.471       74.083        0.115        0.027       41.860        8.386        0.040      341.994       17.092      863.445
08/09/2014  07:40:00      -21.078      -27.044       -3.972       13.064       13.301        8.595      170.679      176.909       73.869        0.081        0.021       34.288        6.809        0.039      342.093       17.262      863.452
08/09/2014  07:41:00      -15.244      -60.410        1.049       20.690       18.561       13.525      428.078      344.516      182.932        0.242        0.048       62.304        6.781        0.012      342.100       17.271      863.468
08/09/2014  07:42:00      -39.092      -52.764       -1.863       20.527       21.087       12.366      421.338      444.662      152.908        0.267        0.051       65.667        7.703        0.014      342.155       17.366      863.476
08/09/2014  07:43:00      -30.687      -51.954       -4.751       22.542       20.312       15.025      508.138      412.576      225.743        0.240        0.057       60.340       10.466        0.030      342.173       17.395      863.485
08/09/2014  07:44:00      -38.180      -34.725        1.962       22.421       27.790       16.846      502.709      772.300      283.783        0.211        0.078       51.610       12.189        0.056      342.186       17.419      863.486
08/09/2014  07:45:00      -50.832      -49.555       10.904       35.919       35.455       21.541     1290.142     1257.073      463.994        0.408        0.151       70.989       25.319        0.127      342.242       17.514      863.485
08/09/2014  07:46:00      -70.070      -78.631       -1.125       30.460       43.318       17.692      927.840     1876.446      313.002        0.710        0.156      105.322       17.060        0.026      342.155       17.365      863.484
08/09/2014  07:47:00     -103.314     -106.232       -9.780       30.246       34.912       18.883      914.815     1218.821      356.567        1.227        0.125      148.186       11.813        0.006      342.121       17.310      863.472
08/09/2014  07:48:00      -85.244     -100.555       -0.664       42.519       33.768       25.187     1807.894     1140.278      634.368        1.048        0.179      131.825       27.220        0.043      342.164       17.381      863.474
08/09/2014  07:49:00      -85.180      -79.104       -4.390       38.805       31.930       21.852     1505.800     1019.524      477.503        0.827        0.150      116.245       20.912        0.032      342.202       17.447      863.473
08/09/2014  07:50:00      -28.716      -27.376        9.393       32.904       42.913       22.999     1082.674     1841.553      528.964        0.256        0.173       39.674       24.327        0.376      342.550       18.038      863.471
08/09/2014  07:51:00      -76.334      -66.647       -5.047       35.144       40.188       16.337     1235.093     1615.107      266.886        0.671        0.156      101.335       17.334        0.029      342.282       17.583      863.482
08/09/2014  07:52:00      -72.185      -60.163      -11.400       19.831       22.161       11.665      393.286      491.109      136.064        0.499        0.051       93.969        6.683        0.005      342.313       17.635      863.477
08/09/2014  07:53:00      -29.111     -103.857        1.433       24.127       35.750       24.333      582.093     1278.049      592.081        0.704        0.123      107.860       17.687        0.027      342.376       17.743      863.492
08/09/2014  07:54:00      -47.971     -100.546        0.097       26.596       25.964       17.596      707.371      674.126      309.603        0.705        0.085      111.403       13.011        0.014      342.329       17.662      863.491
08/09/2014  07:55:00      -73.949     -121.406       -3.264       24.104       39.853       18.733      581.011     1588.287      350.910        1.137        0.126      142.154       15.402        0.012      342.299       17.611      863.487
08/09/2014  07:56:00      -66.319     -106.844        3.980       26.370       31.353       21.682      695.365      982.982      470.124        0.899        0.107      125.753       16.223        0.017      342.346       17.692      863.498
08/09/2014  07:57:00      -53.565      -99.050       -0.714       33.703       34.744       21.222     1135.888     1207.163      450.370        0.774        0.140      112.606        6.140        0.003      342.371       17.733      863.498
08/09/2014  07:58:00      -71.316      -98.789       -5.402       40.156       47.195       24.496     1612.500     2227.325      600.066        0.966        0.222      121.841       24.415        0.040      342.374       17.737      863.496
08/09/2014  07:59:00      -97.305      -87.728       -7.002       34.294       30.461       23.675     1176.105      927.859      560.484        0.994        0.133      131.013       20.405        0.024      342.387       17.759      863.509
08/09/2014  08:00:00      -91.861      -68.876       -7.277       23.673       25.306       17.650      560.432      640.418      311.508        0.737        0.076      114.814       15.691        0.019      342.440       17.850      863.515
08/09/2014  08:01:00      -60.637      -67.383       -2.156       31.258       25.218       16.878      977.076      635.967      284.882        0.506        0.095       90.649       14.021        0.024      342.487       17.933      863.525
08/09/2014  08:02:00      -67.260      -93.372        4.019       48.342       37.339       23.908     2336.986     1394.192      571.609        0.878        0.215      115.076       25.055        0.047      342.525       17.997      863.544
08/09/2014  08:03:00      -72.628      -79.950       -5.262       31.194       27.510       21.253      973.064      756.784      451.693        0.694        0.109      108.013       20.052        0.034      342.514       17.977      863.546
08/09/2014  08:04:00      -70.121      -90.246       -6.050       19.673       32.271       12.217      387.031     1041.401      149.249        0.734        0.079      114.286       11.265        0.010      342.474       17.910      863.568
08/09/2014  08:05:00      -61.383     -110.000       -3.394       28.022       25.322       14.767      785.218      641.192      218.070        0.876        0.082      125.968       10.704        0.007      342.518       17.983      863.587
08/09/2014  08:06:00      -38.006      -63.982        4.760       24.455       37.447       19.341      598.041     1402.305      374.070        0.397        0.119       74.419       17.148        0.053      342.580       18.090      863.597
08/09/2014  08:07:00      -33.155      -76.852        5.178       25.188       32.683       19.973      634.415     1068.155      398.911        0.457        0.105       83.699       21.371        0.065      342.696       18.285      863.609
08/09/2014  08:08:00      -67.162      -64.705       -2.947       31.378       25.580       20.738      984.598      654.350      430.046        0.539        0.103       93.260       15.343        0.027      342.651       18.209      863.611
08/09/2014  08:09:00      -63.344      -20.454       -1.650       21.046       21.003       14.608      442.946      441.116      213.396        0.277        0.055       66.565       13.766        0.043      342.676       18.252      863.619
08/09/2014  08:10:00      -65.712       -8.690        0.847       20.845       32.093       11.969      434.509     1029.944      143.249        0.300        0.080       66.284       11.977        0.033      342.610       18.140      863.622
08/09/2014  08:11:00      -49.129      -36.833        1.507       13.817       11.986        9.661      190.911      143.657       93.339        0.210        0.021       61.403        5.637        0.008      342.720       18.328      863.626
08/09/2014  08:12:00      -37.905      -23.881        3.448       16.916       10.112        9.720      286.162      102.253       94.469        0.125        0.024       44.801        7.843        0.031      342.804       18.469      863.632
08/09/2014  08:13:00      -28.259      -62.996       -0.931       15.036       18.574       10.501      226.069      344.988      110.269        0.272        0.034       69.044        4.621        0.004      342.750       18.376      863.639
08/09/2014  08:14:00      -35.035      -54.383        7.673       16.266       14.291       14.305      264.596      204.229      204.620        0.246        0.034       64.691        8.489        0.017      342.922       18.670      863.647
08/09/2014  08:15:00      -30.898      -52.234       -4.349       10.443        9.818       12.852      109.058       96.387      165.165        0.204        0.019       60.688        5.389        0.008      342.852       18.554      863.653
08/09/2014  08:16:00      -18.965       -9.380        7.227       15.630       18.115       13.499      244.292      328.157      182.225        0.063        0.038       21.157        9.908        0.219      343.203       19.149      863.660
08/09/2014  08:17:00      -32.617       -3.333       -1.656        5.418        7.531        6.873       29.354       56.709       47.236        0.061        0.007       32.787        3.836        0.014      342.929       18.682      863.671
08/09/2014  08:18:00      -13.321       -8.728        3.091       11.375       11.815       11.279      129.392      139.589      127.210        0.033        0.020       15.926        6.605        0.172      343.113       18.997      863.669
08/09/2014  08:19:00      -48.999        7.502       -1.525       21.061       19.880       11.522      443.545      395.199      132.767        0.172        0.049       49.570        4.150        0.007      342.922       18.672      863.679
08/09/2014  08:20:00      -18.265       -3.654        0.100       15.762        8.596        7.212      248.433       73.895       52.013        0.036        0.019       18.627        8.309        0.199      343.187       19.121      863.675
08/09/2014  08:21:00      -23.160       -0.929        3.745       16.782       12.919       15.267      281.639      166.900      233.091        0.062        0.034       23.179        6.056        0.068      343.355       19.410      863.660
08/09/2014  08:22:00      -25.040      -22.314       -5.527        9.491       24.011       11.767       90.087      576.530      138.460        0.098        0.040       33.540        7.526        0.050      343.005       18.810      863.647
08/09/2014  08:23:00      -37.308      -34.191       -1.588       13.451       10.257        8.207      180.929      105.210       67.363        0.146        0.018       50.605        3.391        0.004      342.970       18.752      863.630
08/09/2014  08:24:00      -26.224      -39.546        3.181       22.267       22.526       16.358      495.831      507.440      267.571        0.177        0.064       47.450       16.229        0.117      343.130       19.024      863.614
08/09/2014  08:25:00      -27.639      -31.614        6.456       19.725       19.358       15.177      389.089      374.750      230.343        0.140        0.050       41.992       13.367        0.101      343.279       19.280      863.616
08/09/2014  08:26:00       -8.984      -18.158        0.942        5.209        8.550        6.954       27.139       73.099       48.363        0.028        0.007       20.259        4.907        0.059      343.065       18.915      863.613
08/09/2014  08:27:00      -27.806        2.018        3.052       18.072       19.170       13.184      326.615      367.484      173.821        0.083        0.043       27.879       10.117        0.132      343.262       19.250      863.612
08/09/2014  08:28:00      -14.566       10.676       18.760       27.201       13.952       22.917      739.875      194.671      525.201        0.107        0.073       18.060       19.215        1.132      344.014       20.535      863.621
08/09/2014  08:29:00        0.224        0.061       12.252       15.296       21.128       16.266      233.965      446.412      264.570        0.055        0.047        0.232       11.836     2601.915      343.805       20.177      863.617
08/09/2014  08:30:00        3.205      -21.836       -2.959       11.444       19.466       18.649      130.976      378.909      347.786        0.068        0.043       22.071        9.114        0.171      343.458       19.585      863.607
08/09/2014  08:31:00       -3.958      -20.814        0.709        6.665       10.667       10.724       44.417      113.792      115.011        0.036        0.014       21.187        4.838        0.052      343.394       19.475      863.602
08/09/2014  08:32:00       -8.836       -7.458       13.976        7.149        8.660        8.445       51.111       74.987       71.318        0.026        0.010       11.563        5.074        0.193      343.982       20.478      863.598
08/09/2014  08:33:00      -34.178        0.278       -3.986       11.675        8.677        7.592      136.306       75.295       57.639        0.073        0.013       34.179        2.737        0.006      343.297       19.309      863.596
08/09/2014  08:34:00      -29.314       -4.092        8.684       13.100       19.541       14.289      171.605      381.842      204.188        0.085        0.038       29.598        5.749        0.038      343.466       19.597      863.603
08/09/2014  08:35:00      -32.265        7.183      -10.492       15.367       11.462       10.184      236.143      131.373      103.719        0.084        0.024       33.055        8.231        0.062      343.337       19.377      863.611
08/09/2014  08:36:00      -15.821       -2.215       -5.575       10.585        8.025        6.189      112.047       64.399       38.298        0.025        0.011       15.975        5.066        0.101      343.518       19.686      863.611
08/09/2014  08:37:00      -10.481       -4.415      -12.122       10.544       17.746        8.361      111.176      314.923       69.903        0.039        0.025       11.373        3.330        0.086      343.566       19.767      863.614
08/09/2014  08:38:00       -4.260       -8.296       20.441       11.870       14.594       16.917      140.887      212.981      286.200        0.057        0.032        9.326       13.065        1.963      344.284       20.997      863.612
08/09/2014  08:39:00      -23.432        0.619       -1.657       12.437        7.331        6.846      154.683       53.738       46.871        0.040        0.013       23.440        6.239        0.071      343.582       19.795      863.604
08/09/2014  08:40:00      -26.246        8.279        6.677       12.674       12.415       10.934      160.628      154.137      119.553        0.062        0.022       27.521        6.636        0.058      343.689       19.979      863.589
08/09/2014  08:41:00      -21.699       17.947       20.511       15.975       15.456       18.853      255.212      238.892      355.430        0.103        0.042       28.159        7.494        0.071      344.195       20.843      863.584
08/09/2014  08:42:00      -24.076        0.197        6.640       11.687       10.207       11.713      136.597      104.184      137.203        0.050        0.019       24.076        7.306        0.092      343.899       20.335      863.575
08/09/2014  08:43:00      -24.493        2.827       11.493       11.870       12.952       14.530      140.908      167.766      211.107        0.063        0.026       24.655       10.080        0.167      344.192       20.837      863.571
08/09/2014  08:44:00      -34.653       18.097        9.369       17.497       16.229       14.548      306.157      263.382      211.631        0.120        0.039       39.094       11.759        0.090      343.859       20.269      863.565
08/09/2014  08:45:00       -4.545       13.328       25.618       12.217       20.265       12.737      149.256      410.674      162.241        0.079        0.036       14.082        6.648        0.223      344.771       21.827      863.555
08/09/2014  08:46:00      -16.376       39.632       17.085       14.814       22.408       22.554      219.469      502.108      508.699        0.168        0.062       42.882       17.710        0.171      344.437       21.257      863.557
08/09/2014  08:47:00      -34.797       17.613       28.134       19.454       17.554       19.639      378.461      308.148      385.706        0.169        0.054       39.001       12.007        0.095      344.283       20.992      863.559
08/09/2014  08:48:00      -16.781       -5.065       15.420       16.768       12.498       13.847      281.180      156.211      191.743        0.059        0.031       17.528        8.701        0.246      344.378       21.153      863.553
08/09/2014  08:49:00      -12.047        5.800       34.536       17.639       22.796       16.113      311.144      519.643      259.614        0.123        0.055       13.370       14.481        1.173      344.654       21.628      863.549
08/09/2014  08:50:00      -26.853       -8.572       13.594       27.332       21.223       22.529      747.034      450.431      507.551        0.134        0.085       28.188       20.722        0.540      344.096       20.672      863.552
08/09/2014  08:51:00        3.128       22.292       27.133       23.403       17.633       16.615      547.705      310.935      276.058        0.119        0.057       22.510        7.511        0.111      344.446       21.271      863.555
08/09/2014  08:52:00      -18.462        2.519        8.838       29.446       17.852       18.718      867.055      318.706      350.363        0.098        0.077       18.633       21.998        1.394      344.361       21.127      863.549
08/09/2014  08:53:00      -31.810      -31.607        2.021       31.538       28.232       16.838      994.638      797.069      283.510        0.204        0.104       44.843       10.453        0.054      344.102       20.683      863.550
08/09/2014  08:54:00      -31.083      -40.522        8.256       21.703       25.526       20.420      471.000      651.590      416.987        0.211        0.077       51.071       16.692        0.107      344.022       20.546      863.549
08/09/2014  08:55:00       16.422     -101.037       -5.181       36.443       30.998       24.055     1328.119      960.852      578.633        0.669        0.143      102.363       11.717        0.013      344.172       20.801      863.553
08/09/2014  08:56:00        2.012      -35.725       27.627       35.327       45.715       32.922     1247.988     2089.895     1083.848        0.323        0.221       35.782       24.714        0.477      344.602       21.538      863.556
08/09/2014  08:57:00      -16.367        6.356       28.835       22.424       26.996       31.310      502.849      728.800      980.329        0.168        0.111       17.558       24.695        1.978      344.663       21.641      863.560
08/09/2014  08:58:00      -26.893       -8.732       13.936       30.469       20.993       18.597      928.330      440.686      345.867        0.135        0.086       28.275       16.481        0.340      344.588       21.515      863.562
08/09/2014  08:59:00      -29.322      -32.066       -1.871       30.826       30.245       21.330      950.237      914.783      454.980        0.211        0.116       43.451       19.777        0.207      344.262       20.955      863.556
08/09/2014  09:00:00      -51.121      -29.745        6.036       40.224       30.014       20.631     1617.938      900.859      425.632        0.324        0.147       59.145       12.729        0.046      344.208       20.864      863.547
08/09/2014  09:01:00      -54.190      -16.907       13.199       38.345       34.180       22.407     1470.376     1168.301      502.058        0.327        0.157       56.766       22.385        0.156      344.359       21.122      863.548
08/09/2014  09:02:00      -50.491       16.009      -14.790       24.451        9.102       12.822      597.860       82.837      164.407        0.193        0.042       52.968        6.804        0.017      343.939       20.403      863.550
08/09/2014  09:03:00      -45.302      -15.991       -9.998       12.644       20.529       10.809      159.864      421.441      116.829        0.155        0.035       48.041        4.454        0.009      344.166       20.792      863.537
08/09/2014  09:04:00      -16.180       -4.490        7.412       16.531       10.971       12.624      273.282      120.372      159.359        0.044        0.028       16.791        9.867        0.345      344.480       21.330      863.532
08/09/2014  09:05:00      -35.164        6.202        0.839       11.553        7.224       10.875      133.465       52.193      118.256        0.079        0.015       35.707        6.115        0.029      344.099       20.679      863.534
08/09/2014  09:06:00      -16.371       -3.744        1.325       15.393       13.491       12.622      236.945      181.995      159.321        0.043        0.029       16.794       10.106        0.362      344.420       21.226      863.538
08/09/2014  09:07:00      -18.949       -4.046       13.807       12.156       17.469       17.651      147.761      305.183      311.569        0.067        0.038       19.376       12.061        0.387      345.003       22.226      863.541
08/09/2014  09:08:00        0.977       16.675       23.621       17.655       23.895       21.839      311.715      570.967      476.959        0.110        0.068       16.704       13.016        0.607      345.574       23.203      863.543
08/09/2014  09:09:00        0.381        1.372       25.589       16.465       30.170       16.040      271.095      910.246      257.275        0.105        0.072        1.424       13.658       92.002      345.434       22.963      863.552
08/09/2014  09:10:00      -12.808       14.327       20.054       23.718       18.908       13.862      562.567      357.524      192.167        0.094        0.056       19.217       10.110        0.277      344.948       22.130      863.561
08/09/2014  09:11:00      -30.291       -0.016       22.995       26.722       23.369       20.841      714.046      546.133      434.347        0.157        0.085       30.291       16.580        0.300      345.110       22.408      863.569
08/09/2014  09:12:00      -46.471      -47.870        8.160       44.512       33.202       20.195     1981.337     1102.358      407.831        0.400        0.175       66.717       21.623        0.105      344.683       21.677      863.572
08/09/2014  09:13:00      -70.074      -25.015        0.963       35.561       27.701       19.607     1264.570      767.352      384.420        0.398        0.121       74.405       22.374        0.090      344.675       21.664      863.576
08/09/2014  09:14:00      -54.646       -0.903        1.548       27.187       29.906       18.369      739.151      894.342      337.402        0.248        0.099       54.653       17.081        0.098      344.662       21.642      863.578
08/09/2014  09:15:00      -17.242       -1.709       -1.548       14.555       10.200       13.961      211.861      104.042      194.910        0.041        0.026       17.327        7.209        0.173      344.921       22.083      863.578
08/09/2014  09:16:00      -26.332       -0.419        0.785       14.576       12.374       19.621      212.448      153.110      384.971        0.072        0.038       26.336       13.157        0.250      344.916       22.076      863.574
08/09/2014  09:17:00      -21.508        0.215       -3.495       50.031       31.393       19.424     2503.150      985.526      377.302        0.217        0.193       21.509       17.429        0.657      344.779       21.839      863.561
08/09/2014  09:18:00      -86.278      -47.394        8.033       49.387       39.996       25.112     2439.055     1599.671      630.630        0.721        0.233       98.438       29.351        0.089      344.769       21.824      863.559
08/09/2014  09:19:00      -61.053      -61.086        7.074       42.325       32.198       23.248     1791.363     1036.710      540.469        0.544        0.168       86.366       11.900        0.019      344.545       21.439      863.560
08/09/2014  09:20:00      -37.249      -61.751       -5.529       32.898       40.880       17.472     1082.256     1671.174      305.271        0.414        0.153       72.116       10.091        0.020      344.561       21.467      863.569
08/09/2014  09:21:00      -34.263      -53.002       -4.761       33.817       32.999       22.096     1143.558     1088.937      488.219        0.336        0.136       63.112       20.640        0.107      344.601       21.537      863.583
08/09/2014  09:22:00       -0.078      -17.264       22.312       16.125       20.532       19.080      260.025      421.571      364.065        0.092        0.052       17.264       17.060        0.977      345.308       22.745      863.590
08/09/2014  09:23:00      -22.891      -36.321       -7.349       15.979       17.208       15.323      255.330      296.120      234.788        0.134        0.039       42.932       13.026        0.092      344.475       21.321      863.592
08/09/2014  09:24:00      -52.397      -30.807       -5.358       14.373       17.780        8.514      206.590      316.142       72.481        0.216        0.030       60.783        6.326        0.011      344.462       21.296      863.583
08/09/2014  09:25:00      -11.589        3.052       15.928       19.196       19.248       14.805      368.489      370.501      219.198        0.068        0.048       11.984       11.106        0.859      345.262       22.669      863.583
08/09/2014  09:26:00       -5.400        0.053       14.253       20.376       17.621       20.670      415.198      310.502      427.251        0.069        0.058        5.401       14.418        7.127      345.557       23.173      863.573
08/09/2014  09:27:00       16.865       39.716       51.554       37.541       25.073       30.850     1409.349      628.646      951.705        0.375        0.149       43.149       19.338        0.201      345.232       22.618      863.564
08/09/2014  09:28:00       57.685       50.304       14.796       20.204       17.559       21.898      408.185      308.315      479.524        0.364        0.060       76.538       11.046        0.021      344.769       21.822      863.558
08/09/2014  09:29:00        8.782       17.660       29.635       35.514       18.927       26.154     1261.243      358.248      684.017        0.178        0.115       19.723       25.724        1.701      345.995       23.927      863.546
08/09/2014  09:30:00      -62.912       12.142        1.697       17.211       20.717       12.278      296.233      429.186      150.742        0.249        0.044       64.073        6.821        0.011      344.846       21.954      863.541
08/09/2014  09:31:00      -26.500       15.261       17.235       26.558       19.880       22.434      705.315      395.205      503.305        0.142        0.080       30.580       19.313        0.399      345.679       23.383      863.541
08/09/2014  09:32:00      -13.869       23.557       24.593       26.027       22.589       15.904      677.414      510.277      252.927        0.140        0.072       27.336        9.319        0.116      346.114       24.130      863.529
08/09/2014  09:33:00      -11.553       -4.013        9.104       38.264       24.688       23.043     1464.127      609.513      530.982        0.142        0.130       12.231       18.077        2.185      345.670       23.368      863.530
08/09/2014  09:34:00      -23.679      -70.563        8.589       27.820       47.957       24.871      773.959     2299.886      618.573        0.465        0.185       74.429       25.611        0.118      345.014       22.241      863.536
08/09/2014  09:35:00      -65.300      -59.254       -6.436       15.501       18.288       12.889      240.289      334.439      166.124        0.428        0.037       88.177       10.114        0.013      344.807       21.889      863.532
08/09/2014  09:36:00      -24.271        8.235       24.207       24.109       23.455       22.217      581.242      550.132      493.587        0.143        0.081       25.630       20.443        0.636      345.890       23.745      863.527
08/09/2014  09:37:00       -8.157       19.171       46.792       18.796       19.670       16.117      353.295      386.892      259.769        0.181        0.050       20.834       10.411        0.250      346.136       24.167      863.526
08/09/2014  09:38:00       16.731       37.260       51.839       25.541       26.022       23.805      652.355      677.140      566.685        0.313        0.095       40.844        9.516        0.054      345.524       23.117      863.517
08/09/2014  09:39:00        8.148       18.323        4.837       23.972       27.170       23.427      574.674      738.228      548.823        0.114        0.093       20.053       12.332        0.378      345.720       23.452      863.512
08/09/2014  09:40:00       12.903      -32.806       28.000       27.800       41.891       28.303      772.864     1754.865      801.077        0.268        0.166       35.252       24.483        0.482      346.244       24.352      863.512
08/09/2014  09:41:00       15.376      -19.562       37.316       38.166       64.949       37.710     1456.660     4218.336     1422.022        0.455        0.355       24.881       44.434        3.189      345.868       23.707      863.512
08/09/2014  09:42:00       19.212       54.256       69.665       33.017       42.492       31.675     1090.100     1805.551     1003.332        0.603        0.195       57.557       17.406        0.091      345.734       23.477      863.515
08/09/2014  09:43:00       98.024       90.562       48.819       42.916       24.751       40.935     1841.793      612.618     1675.642        1.216        0.207      133.455       37.078        0.077      345.217       22.589      863.520
08/09/2014  09:44:00       80.014       47.908       20.704       26.908       20.791       21.697      724.055      432.277      470.743        0.538        0.081       93.260       16.147        0.030      345.182       22.531      863.523
08/09/2014  09:45:00       50.449       55.643       -3.367       33.056       23.775       22.779     1092.697      565.271      518.876        0.391        0.109       75.108       17.883        0.057      345.216       22.589      863.524
08/09/2014  09:46:00        0.538       48.541       -2.363       19.896       28.973       27.500      395.852      839.407      756.231        0.218        0.100       48.544       13.787        0.081      345.609       23.262      863.515
08/09/2014  09:47:00      -48.885       33.273       -2.445       30.379       22.006       30.579      922.860      484.251      935.045        0.292        0.117       59.134       13.541        0.052      345.419       22.938      863.505
08/09/2014  09:48:00      -41.603       10.275       -6.375        9.366       20.307       14.298       87.722      412.389      204.419        0.129        0.035       42.853       11.299        0.070      345.227       22.606      863.513
08/09/2014  09:49:00      -44.319       14.446       -5.609       15.714       10.451        9.170      246.925      109.216       84.092        0.132        0.022       46.614        6.766        0.021      345.275       22.689      863.507
08/09/2014  09:50:00      -19.947       16.537       13.599       22.914       18.858       16.139      525.054      355.613      260.472        0.100        0.057       25.910        8.859        0.117      345.780       23.556      863.508
08/09/2014  09:51:00       18.666       28.571       29.671       55.918       33.307       36.401     3126.861     1109.367     1324.997        0.380        0.278       34.128       23.186        0.462      345.904       23.769      863.510
08/09/2014  09:52:00        9.756       13.726       10.048       44.180       40.949       25.277     1951.899     1676.843      638.927        0.233        0.213       16.840       22.586        1.799      345.892       23.748      863.506
08/09/2014  09:53:00      -21.276      -11.739       16.251       12.668       14.734       15.590      160.473      217.092      243.051        0.074        0.031       24.299        8.535        0.123      346.115       24.130      863.505
08/09/2014  09:54:00      -17.279       -6.881       23.839       19.328       18.591       20.403      373.561      345.634      416.277        0.102        0.057       18.599       17.030        0.838      346.702       25.140      863.507
08/09/2014  09:55:00       28.463       -9.534       45.339       33.228       29.809       20.355     1104.122      888.577      414.338        0.268        0.120       30.018       15.117        0.254      346.488       24.773      863.509
08/09/2014  09:56:00       20.173       20.381       41.822       36.013       22.381       15.794     1296.940      500.889      249.456        0.231        0.102       28.677       15.483        0.292      347.140       25.895      863.504
08/09/2014  09:57:00       73.422       37.630       20.899       67.122       44.639       27.786     4505.399     1992.642      772.064        0.726        0.364       82.504       15.235        0.034      346.357       24.547      863.494
08/09/2014  09:58:00       90.095       36.372        9.312       51.500       37.007       39.148     2652.262     1369.522     1532.582        0.754        0.278       97.160       23.719        0.060      345.998       23.930      863.485
08/09/2014  09:59:00      121.371       67.930       10.746       45.721       39.170       32.416     2090.447     1534.325     1050.790        1.207        0.234      139.088       21.810        0.025      345.742       23.491      863.463
08/09/2014  10:00:00      103.809       50.604       18.435       43.513       30.842       35.223     1893.406      951.253     1240.633        0.888        0.204      115.486       28.882        0.063      345.740       23.486      863.471
08/09/2014  10:01:00       65.213       55.473       44.560       37.709       29.449       29.102     1421.935      867.261      846.945        0.623        0.157       85.616       19.586        0.052      346.289       24.429      863.466
08/09/2014  10:02:00       61.318       63.784       38.092       45.612       35.471       37.027     2080.449     1258.204     1371.014        0.699        0.235       88.477       28.645        0.105      346.182       24.245      863.470
08/09/2014  10:03:00       57.862       68.417       40.797       29.100       23.849       26.879      846.782      568.779      722.474        0.592        0.107       89.604       17.741        0.039      345.651       23.334      863.463
08/09/2014  10:04:00       34.625       30.277       17.930       20.706       31.758       21.877      428.723     1008.573      478.619        0.218        0.096       45.995       23.332        0.257      345.851       23.677      863.458
08/09/2014  10:05:00       23.857       30.476       12.109       18.496       26.992       27.202      342.120      728.592      739.926        0.173        0.091       38.703       22.783        0.347      346.176       24.235      863.448
08/09/2014  10:06:00        5.827       43.260       45.772       27.155       30.309       42.608      737.416      918.654     1815.406        0.374        0.174       43.651       18.188        0.174      346.564       24.901      863.446
08/09/2014  10:07:00       52.279       52.432        0.802       38.103       36.782       32.619     1451.869     1352.887     1063.981        0.468        0.193       74.042       25.206        0.116      346.226       24.321      863.448
08/09/2014  10:08:00       77.463       69.880        2.661       30.977       35.174       31.717      959.581     1237.205     1005.996        0.705        0.160      104.325       18.967        0.033      345.974       23.887      863.447
08/09/2014  10:09:00       31.242       28.486        9.540       29.958       33.181       29.254      897.492     1100.981      855.824        0.237        0.143       42.279       19.525        0.213      346.766       25.252      863.443
08/09/2014  10:10:00       45.144      -29.781       12.579       90.220       62.381       36.432     8139.708     3891.449     1327.315        0.822        0.668       54.082       25.546        0.223      346.360       24.551      863.441
08/09/2014  10:11:00      -31.377      -59.634        8.046       29.449       32.913       28.753      867.265     1083.240      826.727        0.369        0.139       67.385       17.687        0.069      346.441       24.690      863.442
08/09/2014  10:12:00       16.363      -46.096       10.704       37.040       66.057       36.228     1371.983     4363.516     1312.435        0.478        0.352       48.914       33.389        0.466      346.639       25.031      863.448
08/09/2014  10:13:00       21.481     -103.785       -8.542       33.548       39.938       29.567     1125.474     1595.075      874.184        0.745        0.180      105.984       17.856        0.028      346.295       24.441      863.449
08/09/2014  10:14:00       37.149      -16.414       46.056       50.268       94.539       60.541     2526.841     8937.577     3665.174        0.945        0.756       40.614       65.144        2.573      346.801       25.310      863.439
08/09/2014  10:15:00       63.615       43.818       60.554       51.621       40.965       41.661     2664.686     1678.092     1735.675        0.785        0.304       77.245       34.328        0.197      346.289       24.431      863.445
08/09/2014  10:16:00       21.065       10.117       29.061       24.905       60.250       29.448      620.266     3630.035      867.166        0.325        0.256       23.369       15.197        0.423      346.712       25.157      863.438
08/09/2014  10:17:00       21.244       33.171       71.941       45.710       59.757       38.575     2089.440     3570.927     1488.023        0.694        0.357       39.391       38.141        0.938      346.941       25.551      863.437
08/09/2014  10:18:00      -11.402       21.563       50.812       18.396       49.129       38.404      338.430     2413.674     1474.878        0.370        0.211       24.392       38.344        2.471      346.689       25.119      863.437
08/09/2014  10:19:00      -70.969       28.124       17.577       33.607       28.939       25.028     1129.441      837.491      626.378        0.436        0.130       76.339       18.061        0.056      346.361       24.553      863.426
08/09/2014  10:20:00        2.327       30.010       26.558       63.559       22.279       28.424     4039.760      496.333      807.949        0.348        0.267       30.100       30.781        1.046      346.530       24.844      863.420
08/09/2014  10:21:00       49.747       42.687       20.814       33.373       26.763       27.858     1113.731      716.233      776.063        0.367        0.130       65.551       23.381        0.127      347.066       25.765      863.413
08/09/2014  10:22:00      -18.316       -8.757       11.827       21.012       17.889       17.651      441.495      320.006      311.570        0.081        0.054       20.302       15.388        0.575      346.862       25.416      863.409
08/09/2014  10:23:00       26.117       14.264       28.054       47.454       46.615       40.819     2251.865     2172.983     1666.185        0.388        0.305       29.758       32.121        1.165      347.234       26.055      863.416
08/09/2014  10:24:00       56.770       22.067       25.416       45.026       41.552       29.750     2027.345     1726.610      885.060        0.450        0.232       60.908       21.353        0.123      346.672       25.089      863.407
08/09/2014  10:25:00       16.556       35.478       48.002       45.317       51.375       27.548     2053.651     2639.397      758.919        0.464        0.273       39.151       20.779        0.282      347.236       26.060      863.412
08/09/2014  10:26:00      -30.377      -10.613       19.122       19.668       32.642       29.249      386.839     1065.515      855.478        0.185        0.115       32.178       21.923        0.464      346.944       25.556      863.404
08/09/2014  10:27:00       38.031       36.690       21.808       46.063       35.580       28.744     2121.774     1265.960      826.198        0.374        0.211       52.844       17.810        0.114      346.844       25.384      863.399
08/09/2014  10:28:00       82.914       45.037       -7.531       46.830       39.570       35.646     2193.015     1565.812     1270.666        0.699        0.251       94.356       18.453        0.038      346.336       24.510      863.384
08/09/2014  10:29:00       -0.377      -10.995        6.800       27.816       23.503       21.567      773.751      552.369      465.149        0.098        0.090       11.001       16.378        2.216      346.969       25.600      863.385
08/09/2014  10:30:00       -0.218       30.672        4.872       50.828       38.828       26.454     2583.534     1507.615      699.836        0.288        0.240       30.673       26.035        0.720      347.138       25.890      863.373
08/09/2014  10:31:00      -18.158       12.307       17.049       25.381       22.309       17.781      644.212      497.685      316.169        0.111        0.073       21.936       12.454        0.322      347.488       26.495      863.369
08/09/2014  10:32:00       -7.420        0.234       26.885       27.925       24.409       26.805      779.789      595.779      718.528        0.144        0.105        7.423       21.802        8.626      347.747       26.944      863.361
08/09/2014  10:33:00       62.924       43.249        8.133       41.914       39.931       35.388     1756.821     1594.456     1252.279        0.525        0.230       76.354       25.659        0.113      347.080       25.791      863.358
08/09/2014  10:34:00       56.035       71.389       10.780       36.509       31.310       36.618     1332.912      980.313     1340.911        0.600        0.183       90.754       23.353        0.066      346.799       25.306      863.354
08/09/2014  10:35:00       60.828       88.326       -0.682       39.837       46.837       44.692     1587.024     2193.704     1997.418        0.864        0.289      107.245       32.882        0.094      346.794       25.297      863.360
08/09/2014  10:36:00      123.533       77.497        2.655       32.778       33.859       32.420     1074.395     1146.431     1051.080        1.227        0.164      145.829       14.791        0.010      346.516       24.820      863.356
08/09/2014  10:37:00       84.737       72.773        3.617       48.480       37.024       31.298     2350.321     1370.767      979.580        0.859        0.235      111.697       19.398        0.030      346.983       25.623      863.359
08/09/2014  10:38:00       75.871       84.953       -9.062       34.457       37.931       28.704     1187.260     1438.766      823.918        0.825        0.172      113.901       23.208        0.042      346.574       24.920      863.342
08/09/2014  10:39:00       82.455       45.813       -0.732       24.525       35.911       28.812      601.476     1289.634      830.105        0.581        0.136       94.328       20.326        0.046      346.665       25.077      863.345
08/09/2014  10:40:00       73.432       73.637       12.457       41.632       44.628       37.291     1733.238     1991.615     1390.646        0.804        0.256      103.994       30.060        0.084      347.067       25.769      863.326
08/09/2014  10:41:00       26.896       73.859       -7.029       41.138       46.661       28.959     1692.354     2177.286      838.613        0.547        0.235       78.603       27.900        0.126      347.252       26.088      863.323
08/09/2014  10:42:00       65.715       60.042        7.528       41.319       44.772       32.798     1707.272     2004.575     1075.713        0.638        0.239       89.014       26.053        0.086      346.941       25.550      863.313
08/09/2014  10:43:00       28.497       63.941        7.139       31.602       42.900       31.065      998.699     1840.394      965.055        0.438        0.190       70.004       23.383        0.112      347.250       26.084      863.310
08/09/2014  10:44:00       39.510       75.935        6.966       29.932       27.469       33.358      895.896      754.531     1112.729        0.507        0.138       85.599       14.578        0.029      347.157       25.923      863.302
08/09/2014  10:45:00      108.403       86.316       22.452       43.013       27.056       30.637     1850.133      732.004      938.614        1.161        0.176      138.570       13.508        0.010      346.834       25.367      863.294
08/09/2014  10:46:00       94.054       55.548        1.418       38.408       37.372       37.332     1475.202     1396.647     1393.667        0.810        0.213      109.233       20.303        0.035      346.805       25.316      863.301
08/09/2014  10:47:00        8.944       10.097        8.926       42.667       59.166       30.452     1820.499     3500.564      927.303        0.325        0.312       13.488       22.488        2.780      347.243       26.071      863.298
08/09/2014  10:48:00      -24.059        0.430        1.084       23.674       28.366       15.244      560.441      804.654      232.368        0.109        0.080       24.063       11.825        0.241      347.120       25.859      863.306
08/09/2014  10:49:00      -17.867       -9.618       18.020       30.155       22.228       30.902      909.345      494.093      954.921        0.155        0.118       20.292       26.184        1.665      347.509       26.530      863.304
08/09/2014  10:50:00       47.056       15.220       25.109       53.866       30.953       52.181     2901.559      958.115     2722.838        0.483        0.329       49.457       34.488        0.486      347.240       26.067      863.322
08/09/2014  10:51:00       40.178       20.550       38.242       40.377       29.082       34.110     1630.303      845.764     1163.461        0.357        0.182       45.128       23.794        0.278      347.410       26.359      863.317
08/09/2014  10:52:00       46.614        9.185       -1.344       14.799       19.043       28.145      218.996      362.635      792.138        0.182        0.069       47.510       13.780        0.084      347.042       25.724      863.317
08/09/2014  10:53:00       19.734       50.915       -8.841       11.995       33.285       25.550      143.871     1107.894      652.778        0.248        0.095       54.606       13.920        0.065      347.049       25.737      863.308
08/09/2014  10:54:00       36.576       29.836       16.786       23.325       20.042       31.662      544.049      401.678     1002.471        0.223        0.097       47.202       15.338        0.106      347.361       26.275      863.302
08/09/2014  10:55:00       -2.773       20.769       12.754       27.122       25.647       28.818      735.595      657.794      830.485        0.141        0.111       20.953       23.724        1.282      348.012       27.398      863.291
08/09/2014  10:56:00      -13.113       -1.445       33.863       29.456       16.693       18.843      867.668      278.653      355.044        0.141        0.075       13.193       15.839        1.441      348.172       27.675      863.283
08/09/2014  10:57:00       -3.271        9.804       18.576       26.272       20.738       25.445      690.206      430.046      647.458        0.111        0.088       10.335       14.655        2.011      348.005       27.385      863.274
08/09/2014  10:58:00      -29.580       16.179        7.554       30.701       20.999       21.583      942.564      440.949      465.828        0.152        0.092       33.715       18.311        0.295      347.862       27.139      863.256
08/09/2014  10:59:00      -64.360      -33.641       -2.420       14.561       46.121       16.106      212.011     2127.130      259.418        0.394        0.130       72.622        6.959        0.009      347.187       25.975      863.248
08/09/2014  11:00:00      -54.602      -64.623      -31.696       24.775       51.661       19.154      613.796     2668.870      366.859        0.591        0.182       84.602       19.809        0.055      347.188       25.976      863.228
08/09/2014  11:01:00      -37.909      -20.261      -22.870       21.501       40.514       22.171      462.287     1641.389      491.567        0.248        0.130       42.984       18.334        0.182      347.264       26.107      863.226
08/09/2014  11:02:00       -7.333       -4.411        4.845       18.643       26.507       23.984      347.561      702.630      575.229        0.086        0.081        8.558       12.613        2.172      347.836       27.094      863.215
08/09/2014  11:03:00        7.034       86.801        6.927       30.895       27.726       46.184      954.474      768.737     2132.956        0.574        0.193       87.085       19.655        0.051      347.674       26.815      863.206
08/09/2014  11:04:00       17.643       37.796       37.232       29.835       44.909       32.215      890.139     2016.811     1037.797        0.353        0.197       41.711       30.076        0.520      348.079       27.514      863.191
08/09/2014  11:05:00       28.892       37.556       19.998       28.009       23.863       35.408      784.503      569.448     1253.735        0.263        0.130       47.383        8.699        0.034      348.077       27.510      863.176
08/09/2014  11:06:00        1.522       79.384       -7.722       27.409       43.506       27.605      751.275     1892.800      762.011        0.488        0.170       79.399       22.757        0.082      347.792       27.019      863.166
08/09/2014  11:07:00       59.727       65.934        5.667       37.853       35.781       31.809     1432.886     1280.276     1011.800        0.584        0.186       88.964       20.185        0.051      347.906       27.215      863.168
08/09/2014  11:08:00       37.947       67.541       -5.466       46.293       34.421       43.251     2143.050     1184.787     1870.655        0.561        0.260       77.471       31.715        0.168      347.632       26.742      863.159
08/09/2014  11:09:00       10.973       68.006       38.836       78.889       46.837       49.565     6223.502     2193.675     2456.643        0.856        0.544       68.886       44.270        0.413      348.006       27.388      863.140
08/09/2014  11:10:00      147.952       95.468       14.241       56.801       63.938       57.144     3226.345     4088.115     3265.491        2.089        0.529      176.079       36.283        0.042      347.431       26.393      863.121
08/09/2014  11:11:00      171.479      107.518       17.081       46.961       43.127       40.018     2205.311     1859.965     1601.480        2.346        0.283      202.398       24.416        0.015      347.335       26.226      863.111
08/09/2014  11:12:00      119.289      101.881        8.549       57.034       42.640       42.103     3252.907     1818.177     1772.658        1.576        0.342      156.875       19.947        0.016      347.464       26.452      863.117
08/09/2014  11:13:00      100.616      108.042      -20.280       70.628       38.191       29.961     4988.252     1458.531      897.661        1.477        0.367      147.637       20.622        0.020      347.402       26.346      863.112
08/09/2014  11:14:00        0.439       25.428       27.066       22.419       29.435       18.539      502.594      866.438      343.706        0.155        0.086       25.432       12.294        0.234      348.405       28.078      863.097
08/09/2014  11:15:00       -9.450      -11.950       52.328       33.511       60.138       29.157     1122.983     3616.535      850.103        0.428        0.279       15.235        2.504        0.027      348.310       27.914      863.088
08/09/2014  11:16:00       59.876       27.609       42.935       53.931       62.474       46.725     2908.560     3903.058     2183.187        0.759        0.450       65.934       44.767        0.461      347.835       27.092      863.079
08/09/2014  11:17:00       31.945       34.862       29.817       60.377       45.225       40.331     3645.341     2045.299     1626.568        0.522        0.366       47.284       29.071        0.378      348.226       27.768      863.071
08/09/2014  11:18:00       93.589       63.296       10.982       65.516       54.512       38.505     4292.382     2971.604     1482.642        1.081        0.437      112.984       25.871        0.052      348.057       27.475      863.065
08/09/2014  11:19:00       73.697       68.964       55.112       45.156       42.510       42.999     2039.075     1807.130     1848.941        0.946        0.285      100.932       24.838        0.061      348.365       28.008      863.071
08/09/2014  11:20:00       39.271       80.064      101.419       61.949       67.822       44.794     3837.697     4599.853     2006.521        1.434        0.522       89.177       41.476        0.216      348.270       27.844      863.053
08/09/2014  11:21:00       46.023       67.135       74.697       65.845       54.362       44.493     4335.613     2955.208     1979.633        1.074        0.464       81.396       32.056        0.155      348.072       27.501      863.043
08/09/2014  11:22:00      143.941       93.733       26.315       35.885       45.483       44.597     1287.756     2068.693     1988.903        1.777        0.267      171.770       27.272        0.025      347.615       26.712      863.040
08/09/2014  11:23:00       84.683       79.695       11.444       39.108       31.320       39.677     1529.452      980.938     1574.302        0.887        0.204      116.286       29.068        0.062      347.732       26.914      863.049
08/09/2014  11:24:00       -1.665      -16.446       31.169       28.385       55.633       41.765      805.721     3095.030     1744.296        0.344        0.282       16.530       35.342        4.571      348.293       27.885      863.039
08/09/2014  11:25:00       10.671       20.230       29.430       21.960       41.481       29.557      482.258     1720.636      873.620        0.223        0.154       22.872       20.649        0.815      348.296       27.889      863.041
08/09/2014  11:26:00        5.537       41.713       22.769       40.478       32.859       29.690     1638.437     1079.702      881.496        0.294        0.180       42.079       15.479        0.135      348.692       28.573      863.033
08/09/2014  11:27:00        1.219       91.287        2.971       29.172       37.627       34.296      851.002     1415.794     1176.237        0.589        0.172       91.295       30.175        0.109      348.436       28.134      863.046
08/09/2014  11:28:00       -1.263       98.989       -3.842       26.354       29.350       29.456      694.536      861.445      867.632        0.612        0.121       98.997       17.877        0.033      348.284       27.869      863.044
08/09/2014  11:29:00       -8.262       86.884        8.309       26.128       43.143       30.911      682.654     1861.288      955.507        0.559        0.175       87.276       22.561        0.067      348.635       28.476      863.040
08/09/2014  11:30:00      -15.967      182.156       -6.666       41.840       93.420       26.419     1750.559     8727.236      697.987        2.233        0.559      182.854       26.139        0.020      348.030       27.427      863.037
08/09/2014  11:31:00      150.129       82.242       -5.769       70.639       50.323       37.258     4989.805     2532.420     1388.190        1.912        0.446      171.179       29.438        0.030      347.820       27.065      863.035
08/09/2014  11:32:00       84.303       80.394       -1.113       67.700       47.367       32.264     4583.332     2243.614     1040.961        1.072        0.393      116.491       33.774        0.084      347.997       27.372      863.041
08/09/2014  11:33:00      112.016       86.084        3.452       40.637       40.246       27.444     1651.364     1619.722      753.148        1.200        0.201      141.273       10.211        0.005      347.840       27.100      863.034
08/09/2014  11:34:00      142.312       94.818       14.328       51.566       41.126       33.995     2659.022     1691.368     1155.628        1.748        0.275      171.007       29.323        0.029      347.834       27.090      863.033
08/09/2014  11:35:00      176.964      103.975       16.126       36.901       34.102       40.681     1361.713     1162.943     1654.911        2.328        0.209      205.249       22.601        0.012      347.637       26.750      863.014
08/09/2014  11:36:00      132.897       95.038        7.504       68.122       38.923       40.360     4640.575     1515.024     1628.918        1.727        0.389      163.382       27.896        0.029      347.865       27.142      863.024
08/09/2014  11:37:00       66.787      108.032      -13.868       41.386       33.074       34.632     1712.777     1093.892     1199.372        1.016        0.200      127.010       23.904        0.035      347.773       26.985      863.021
08/09/2014  11:38:00       26.880       82.092       -8.130       41.908       36.134       31.347     1756.264     1305.701      982.619        0.579        0.202       86.381       18.497        0.046      348.090       27.532      863.011
08/09/2014  11:39:00       24.873      111.611        2.712       67.159       56.862       44.238     4510.311     3233.242     1956.962        1.139        0.485      114.349       34.368        0.090      348.327       27.944      863.003
08/09/2014  11:40:00       67.700       53.249        8.930       27.698       30.964       33.477      767.152      958.771     1120.687        0.517        0.142       86.132       17.434        0.041      348.040       27.446      863.002
08/09/2014  11:41:00       97.474       60.416       14.772       42.293       28.755       30.678     1788.694      826.842      941.149        0.846        0.178      114.679       15.162        0.017      347.986       27.354      862.993
08/09/2014  11:42:00      102.158       85.051       -1.890       43.426       25.961       30.983     1885.800      673.978      959.918        1.060        0.176      132.928       21.350        0.026      347.716       26.889      862.984
08/09/2014  11:43:00       78.319       55.781       15.951       58.344       38.309       27.650     3403.974     1467.587      764.500        0.757        0.282       96.153       19.297        0.040      347.924       27.247      862.973
08/09/2014  11:44:00      132.187      120.279       40.384       70.882       37.643       70.400     5024.277     1416.979     4956.133        2.248        0.570      178.719       32.581        0.033      347.995       27.366      862.966
08/09/2014  11:45:00      159.249      115.050       44.426       63.748       50.536       44.826     4063.828     2553.863     2009.377        2.460        0.431      196.461       22.927        0.014      348.009       27.389      862.959
08/09/2014  11:46:00       47.782       91.532       15.595       55.033       53.420       42.768     3028.598     2853.748     1829.138        0.931        0.386      103.254       34.503        0.112      348.102       27.552      862.961
08/09/2014  11:47:00      -30.646      150.629      -16.918       49.131       67.917       26.639     2413.888     4612.715      709.657        1.582        0.387      153.715       26.588        0.030      348.064       27.487      862.970
08/09/2014  11:48:00      -56.309       83.338       -2.443       41.217       65.781       31.648     1698.814     4327.128     1001.619        0.857        0.351      100.578       36.564        0.132      348.362       28.004      862.971
08/09/2014  11:49:00      -44.903      114.010       -3.268       30.319       65.299       33.617      919.267     4263.924     1130.129        1.067        0.316      122.534       32.188        0.069      348.255       27.819      862.957
08/09/2014  11:50:00      -59.800       99.099      -23.892       50.208       84.254       35.557     2520.806     7098.818     1264.290        1.242        0.544      115.744       35.584        0.095      348.042       27.450      862.955
08/09/2014  11:51:00      -63.677       21.131       -2.945       27.485       38.411       19.204      755.447     1475.368      368.806        0.355        0.130       67.092       18.156        0.073      348.029       27.427      862.939
08/09/2014  11:52:00      -89.077       52.091      -10.360       74.785       64.814       29.476     5592.745     4200.918      868.826        1.071        0.533      103.190       31.645        0.094      348.120       27.585      862.935
08/09/2014  11:53:00      -67.926      -19.532       14.689       68.889       39.572       37.250     4745.643     1565.934     1387.538        0.645        0.385       70.678       43.015        0.370      348.470       28.191      862.929
08/09/2014  11:54:00       -6.649       15.198       32.791       28.155       29.811       28.409      792.676      888.710      807.053        0.192        0.124       16.588       23.970        2.088      349.370       29.749      862.915
08/09/2014  11:55:00      -11.412       15.227       56.500       14.330       33.915       32.192      205.352     1150.252     1036.319        0.297        0.120       19.029       28.269        2.207      349.330       29.680      862.911
08/09/2014  11:56:00      -22.550      -29.281       30.365       36.187       50.598       31.716     1309.500     2560.199     1005.930        0.358        0.244       36.957       35.570        0.926      348.369       28.015      862.905
08/09/2014  11:57:00        4.161      -18.287        5.901       31.213       29.602       20.350      974.275      876.279      414.114        0.133        0.113       18.754       12.440        0.440      348.379       28.031      862.902
08/09/2014  11:58:00       56.058        5.008       19.045       34.993       24.305       28.955     1224.513      590.756      838.399        0.309        0.133       56.281       14.620        0.067      348.602       28.418      862.883
08/09/2014  11:59:00       56.690       40.061       21.361       53.226       37.809       33.490     2832.990     1429.511     1121.596        0.533        0.269       69.416       26.108        0.141      348.726       28.634      862.870
08/09/2014  12:00:00      120.593       77.433        2.193       43.403       31.595       42.632     1883.853      998.230     1817.519        1.262        0.235      143.313       20.163        0.020      348.323       27.935      862.850
08/09/2014  12:01:00       98.944       55.144        8.259       66.247       41.706       30.547     4388.612     1739.400      933.098        0.998        0.353      113.273       29.764        0.069      348.624       28.456      862.825
08/09/2014  12:02:00      -14.482       15.881       28.818       23.769       35.646       20.913      564.957     1270.629      437.338        0.178        0.114       21.492       13.584        0.399      349.409       29.816      862.821
08/09/2014  12:03:00      -31.092      -13.860       49.758       50.016       48.057       36.793     2501.585     2309.508     1353.735        0.490        0.308       34.042       32.234        0.897      349.130       29.333      862.782
08/09/2014  12:04:00       34.826     -105.718       15.263       61.823      103.117       59.992     3822.136    10633.134     3599.086        1.533        0.903      111.306       61.190        0.302      348.823       28.798      862.789
08/09/2014  12:05:00       89.015     -142.374        6.615       67.424       91.698       48.081     4546.046     8408.441     2311.796        2.175        0.763      167.911       49.031        0.085      348.231       27.774      862.787
08/09/2014  12:06:00      -12.674       10.411      -18.231       46.625       60.697       35.046     2173.865     3684.175     1228.198        0.384        0.354       16.402       16.745        1.042      348.203       27.728      862.780
08/09/2014  12:07:00        8.293      -55.716       -8.946      101.795      102.102       44.423    10362.258    10424.920     1973.366        1.300        1.138       56.330       37.822        0.451      348.355       27.990      862.741
08/09/2014  12:08:00        3.895        7.385       55.366       24.107       47.604       40.479      581.133     2266.096     1638.559        0.381        0.224        8.349       32.276       14.944      349.123       29.322      862.746
08/09/2014  12:09:00       25.241       21.082       55.804       38.679       45.953       42.209     1496.058     2111.657     1781.575        0.479        0.269       32.887       38.852        1.396      348.765       28.701      862.732
08/09/2014  12:10:00       85.674        4.166       43.879       34.170       44.872       40.500     1167.555     2013.509     1640.282        0.705        0.241       85.775       34.144        0.158      348.403       28.071      862.735
08/09/2014  12:11:00       47.307      -25.522       28.696       27.254       45.199       26.746      742.773     2042.976      715.351        0.361        0.175       53.752       24.125        0.201      348.852       28.850      862.721
08/09/2014  12:12:00      -48.824      -12.447        7.829       58.923       30.506       25.505     3471.952      930.638      650.521        0.383        0.253       50.386       29.472        0.342      348.563       28.351      862.716
08/09/2014  12:13:00      -53.114      -14.247       12.688       54.140       36.400       25.157     2931.188     1324.978      632.872        0.404        0.244       54.992       26.976        0.241      348.739       28.656      862.710
08/09/2014  12:14:00     -111.634      -79.070       -5.625       55.482       81.540       30.446     3078.226     6648.778      926.979        1.470        0.533      136.799       18.643        0.019      348.355       27.989      862.698
08/09/2014  12:15:00     -201.565     -159.575       -2.810       74.263       67.363       50.093     5514.978     4537.792     2509.315        3.933        0.628      257.085       48.147        0.035      348.179       27.683      862.686
08/09/2014  12:16:00     -207.527     -171.184      -21.277       72.625       82.341       43.083     5274.374     6780.067     1856.134        4.336        0.696      269.019       29.896        0.012      348.184       27.690      862.673
08/09/2014  12:17:00     -265.083     -152.730       -1.563      113.410       93.091       59.021    12861.880     8665.932     3483.452        5.930        1.251      305.934       65.914        0.046      348.230       27.771      862.665
08/09/2014  12:18:00     -216.689     -151.961        4.156      111.792       97.295       53.360    12497.369     9466.360     2847.339        4.743        1.241      264.662       48.932        0.034      348.396       28.060      862.663
08/09/2014  12:19:00     -139.215     -122.903        9.819      110.569       63.393       43.391    12225.570     4018.618     1882.736        2.635        0.906      185.705       47.364        0.065      348.529       28.289      862.682
08/09/2014  12:20:00      -72.657      -25.179      -18.727       38.159       75.399       28.738     1456.102     5685.035      825.856        0.711        0.398       76.896       17.056        0.049      348.231       27.775      862.699
08/09/2014  12:21:00      -77.372       22.059        9.301       42.708       40.149       33.553     1823.945     1611.912     1125.825        0.556        0.228       80.455       32.420        0.162      348.578       28.376      862.690
08/09/2014  12:22:00      -69.246       16.899        6.836       38.806       26.913       25.895     1505.908      724.301      670.561        0.401        0.145       71.279       15.553        0.048      348.638       28.480      862.681
08/09/2014  12:23:00      -41.424       47.697       17.451       58.296       35.550       30.059     3398.460     1263.811      903.526        0.493        0.278       63.174       14.392        0.052      348.720       28.622      862.674
08/09/2014  12:24:00       16.360       11.714       28.554       23.590       22.459       19.970      556.498      504.410      398.801        0.134        0.073       20.121       17.739        0.777      349.657       30.246      862.667
08/09/2014  12:25:00       -3.754       20.229       38.388       18.446       28.348       18.767      340.238      803.582      352.184        0.170        0.075       20.574       12.398        0.363      349.547       30.056      862.658
08/09/2014  12:26:00      -11.681        8.396       35.295       21.939       26.814       22.767      481.316      719.013      518.357        0.159        0.086       14.386       13.271        0.851      349.478       29.935      862.653
08/09/2014  12:27:00        0.023     -129.208      -23.167       77.120       73.358       39.598     5947.423     5381.407     1567.998        1.506        0.645      129.208       41.683        0.104      348.942       29.005      862.655
08/09/2014  12:28:00       -5.818     -144.451      -19.162      120.866       68.545       40.220    14608.638     4698.387     1617.665        2.109        1.046      144.568       26.877        0.035      348.516       28.265      862.661
08/09/2014  12:29:00       -4.664      -46.872        8.254       59.050       40.851       39.282     3486.879     1668.815     1543.069        0.449        0.335       47.104       28.714        0.372      348.714       28.612      862.655
08/09/2014  12:30:00      -67.818      -56.695       11.640       43.135       72.765       30.285     1860.631     5294.774      917.153        0.801        0.404       88.395       32.069        0.132      348.908       28.948      862.643
08/09/2014  12:31:00      -61.089     -155.247      -13.186       45.041       52.859       31.850     2028.680     2794.067     1014.400        1.692        0.292      166.833       16.724        0.010      348.396       28.060      862.633
08/09/2014  12:32:00      -60.185       20.022       -0.958       29.259       52.204       21.848      856.079     2725.241      477.335        0.404        0.203       63.428        4.596        0.005      348.487       28.218      862.630
08/09/2014  12:33:00      -23.048       70.009       11.175       28.721       50.276       33.566      824.871     2527.670     1126.672        0.502        0.224       73.706       23.785        0.104      349.275       29.584      862.606
08/09/2014  12:34:00      -48.947      137.953       -0.991       40.261       61.238       47.876     1620.927     3750.090     2292.122        1.454        0.383      146.379       28.932        0.039      348.970       29.057      862.582
08/09/2014  12:35:00      -95.733       63.196       -8.792       61.505       42.047       35.492     3782.892     1767.943     1259.678        1.002        0.341      114.711       34.432        0.090      348.681       28.555      862.577
08/09/2014  12:36:00     -138.953       27.571      -10.949       81.356       46.052       39.576     6618.858     2120.826     1566.263        1.524        0.515      141.662       44.839        0.100      348.824       28.801      862.559
08/09/2014  12:37:00     -143.273       20.088      -12.256       48.847       21.711       17.594     2386.021      471.347      309.560        1.212        0.158      144.674       21.243        0.022      348.468       28.187      862.566
08/09/2014  12:38:00      -73.462       46.473       -5.169       30.151       43.440       19.947      909.060     1887.010      397.874        0.539        0.160       86.928       11.418        0.017      348.857       28.859      862.550
08/09/2014  12:39:00      -50.148       23.177       -3.541       34.585       29.755       26.530     1196.152      885.340      703.863        0.292        0.139       55.245       16.062        0.085      349.321       29.664      862.534
08/09/2014  12:40:00      -72.599      -10.900      -10.279       33.352       34.661       23.315     1112.350     1201.410      543.576        0.418        0.143       73.413       17.112        0.054      349.111       29.298      862.529
08/09/2014  12:41:00      -78.856      -48.323       -4.567       39.156       26.054       19.742     1533.225      678.809      389.742        0.559        0.130       92.484       21.362        0.053      348.915       28.960      862.509
08/09/2014  12:42:00      -92.444        0.960       -7.243       36.405       36.031       20.945     1325.313     1298.244      438.693        0.583        0.153       92.449       14.473        0.025      349.289       29.607      862.492
08/09/2014  12:43:00      -42.439       43.391       23.070       34.260       39.139       32.429     1173.734     1531.827     1051.638        0.399        0.188       60.695       26.906        0.197      349.772       30.447      862.480
08/09/2014  12:44:00       -6.967       19.768       33.127       24.933       25.730       18.164      621.639      662.018      329.934        0.157        0.081       20.960       10.665        0.259      349.951       30.757      862.474
08/09/2014  12:45:00      -27.294        8.532        2.254       36.415       26.345       31.871     1326.047      694.042     1015.791        0.193        0.152       28.597       11.603        0.165      349.375       29.756      862.471
08/09/2014  12:46:00       42.021       22.619       14.261       32.016       37.610       22.872     1025.008     1414.542      523.149        0.272        0.148       47.722       17.644        0.137      349.372       29.752      862.462
08/09/2014  12:47:00      125.012       79.503       65.480       81.693       66.049       66.261     6673.729     4362.471     4390.523        2.083        0.771      148.151       50.728        0.117      349.191       29.434      862.466
08/09/2014  12:48:00       68.834       32.909       40.085       46.104       51.290       42.907     2125.555     2630.706     1841.047        0.701        0.330       76.296       36.281        0.226      348.984       29.078      862.462
08/09/2014  12:49:00       14.019      -40.017        6.479       31.363       66.608       27.501      983.652     4436.640      756.293        0.401        0.309       42.401       35.713        0.709      349.526       30.019      862.422
08/09/2014  12:50:00       38.764      -59.853       15.768       60.373       59.342       55.976     3644.846     3521.513     3133.296        0.781        0.515       71.310       47.729        0.448      349.544       30.051      862.421
08/09/2014  12:51:00       58.711      -91.479      -13.119       44.189       35.471       28.709     1952.706     1258.214      824.191        0.801        0.202      108.699       19.345        0.032      349.133       29.337      862.415
08/09/2014  12:52:00       41.863      -36.938       14.922       43.298       74.459       52.306     1874.685     5544.187     2735.947        0.675        0.508       55.829       54.760        0.962      349.313       29.650      862.412
08/09/2014  12:53:00       89.247       59.503       26.291       93.893       75.684       63.113     8815.835     5728.041     3983.308        1.536        0.926      107.264       33.797        0.099      349.499       29.973      862.377
08/09/2014  12:54:00      120.288     -177.669      -18.580      114.296      131.982       73.061    13063.590    17419.291     5337.858        4.109        1.791      214.559       79.797        0.138      349.434       29.857      862.361
08/09/2014  12:55:00      123.020       16.636       57.410      101.798       72.528       58.314    10362.772     5260.296     3400.568        1.886        0.951      124.140       53.115        0.183      349.269       29.571      862.361
08/09/2014  12:56:00       29.922      -45.785       16.050       51.148      102.911       49.674     2616.082    10590.584     2467.521        0.946        0.784       54.696       63.728        1.358      349.395       29.791      862.366
08/09/2014  12:57:00       57.173     -110.425        2.179       97.255       69.089       45.709     9458.476     4773.246     2089.280        1.589        0.816      124.348       42.317        0.116      349.313       29.650      862.355
08/09/2014  12:58:00      -86.233     -139.729      -14.584      126.649      102.436       60.113    16039.843    10493.211     3613.560        2.865        1.507      164.196       43.310        0.070      349.242       29.526      862.357
08/09/2014  12:59:00     -237.441      -90.969       -7.882      118.169      116.677       57.766    13963.926    13613.563     3336.945        4.781        1.546      254.270       57.791        0.052      349.071       29.226      862.315
08/09/2014  13:00:00     -262.999     -135.120       -9.357      127.003       83.335       55.971    16129.655     6944.787     3132.761        5.686        1.310      295.679       61.374        0.043      348.991       29.090      862.287
08/09/2014  13:01:00     -177.489     -144.175       -4.547      117.965       87.753       50.987    13915.756     7700.529     2599.626        3.826        1.211      228.668       50.623        0.049      349.100       29.278      862.282
08/09/2014  13:02:00     -190.563     -154.195        6.740       94.048       81.112       58.213     8845.077     6579.165     3388.739        3.947        0.941      245.134       57.929        0.056      348.990       29.087      862.286
08/09/2014  13:03:00     -291.132      -24.343      -24.196       70.656       49.406       37.981     4992.251     2440.987     1442.534        4.740        0.444      292.148       36.587        0.016      348.824       28.798      862.275
08/09/2014  13:04:00     -161.684     -130.805       -8.186      123.939      149.170       59.180    15360.773    22251.602     3502.319        4.221        2.056      207.970       71.225        0.117      349.052       29.196      862.272
08/09/2014  13:05:00     -153.347     -172.061      -24.169       76.693       90.444       48.218     5881.849     8180.067     2325.001        3.504        0.819      230.478       42.753        0.034      348.910       28.948      862.282
08/09/2014  13:06:00     -161.527      -77.778       -3.883       74.119       62.262       27.136     5493.661     3876.596      736.375        2.113        0.505      179.278       15.497        0.007      348.882       28.901      862.255
08/09/2014  13:07:00      -89.771      -46.541       -1.095       51.632       38.280       26.095     2665.860     1465.385      680.970        0.752        0.241      101.119       25.526        0.064      349.169       29.399      862.255
08/09/2014  13:08:00      -51.700      -35.394       11.660       88.710       33.051       30.322     7869.507     1092.351      919.416        0.697        0.494       62.655       40.757        0.423      349.466       29.914      862.262
08/09/2014  13:09:00      -52.273       14.765       19.791       44.684       33.826       28.921     1996.643     1144.213      836.411        0.366        0.199       54.318       28.437        0.274      349.467       29.918      862.259
08/09/2014  13:10:00      -47.603       13.969       21.712       37.919       18.249       29.553     1437.813      333.010      873.384        0.279        0.132       49.610       28.309        0.326      349.707       30.334      862.254
08/09/2014  13:11:00       70.744       22.435        7.009       45.012       43.997       40.348     2026.082     1935.727     1627.993        0.557        0.279       74.216       15.768        0.045      349.548       30.056      862.251
08/09/2014  13:12:00       61.603       66.333      102.604       82.903       71.632       57.343     6872.832     5131.193     3288.262        1.700        0.765       90.526       59.678        0.435      349.661       30.252      862.238
08/09/2014  13:13:00       96.896     -114.590        9.959      112.782      104.654       56.142    12719.716    10952.418     3151.971        2.472        1.341      150.065       67.999        0.205      349.374       29.754      862.195
08/09/2014  13:14:00      160.948       -2.857       54.137      131.692       89.522       70.803    17342.823     8014.185     5013.084        2.960        1.519      160.973       73.883        0.211      349.471       29.922      862.163
08/09/2014  13:15:00       82.287      -53.077       47.201       89.418       94.805       67.926     7995.660     8987.975     4613.903        1.670        1.080       97.919       48.904        0.249      349.725       30.362      862.154
08/09/2014  13:16:00       51.913      -40.766       45.326       36.877       75.836       49.787     1359.949     5751.125     2478.746        0.800        0.479       66.006       51.892        0.618      349.479       29.937      862.170
08/09/2014  13:17:00      131.020      140.309      124.212      106.870       71.260       68.587    11421.150     5078.027     4704.225        3.674        1.060      191.971       60.659        0.100      349.324       29.665      862.150
08/09/2014  13:18:00      159.702       57.466       14.335      101.123       64.531       52.761    10225.837     4164.229     2783.748        2.309        0.859      169.726       28.087        0.027      349.338       29.689      862.144
08/09/2014  13:19:00      106.361       88.330        0.498       80.201       61.066       39.295     6432.200     3729.076     1544.130        1.541        0.585      138.257       26.188        0.036      349.325       29.669      862.160
08/09/2014  13:20:00       73.830       59.250       20.066       48.516       34.994       33.414     2353.808     1224.564     1116.515        0.703        0.235       94.665       10.012        0.011      349.670       30.268      862.169
08/09/2014  13:21:00       49.801       73.136        7.827       94.526      103.502       45.248     8935.217    10712.738     2047.405        1.479        1.085       88.481       21.418        0.059      349.643       30.220      862.168
08/09/2014  13:22:00       12.472      110.378      -18.154       55.329       45.783       29.694     3061.315     2096.045      881.739        0.935        0.302      111.080       21.062        0.036      349.069       29.226      862.177
08/09/2014  13:23:00      -76.793       -9.779      -19.263       41.288       33.605       26.941     1704.701     1129.303      725.816        0.496        0.178       77.413       14.734        0.036      349.043       29.180      862.164
08/09/2014  13:24:00      -79.935      -34.830      -15.173       30.140       29.952       23.436      908.423      897.140      549.237        0.509        0.118       87.194       19.398        0.049      349.046       29.187      862.172
08/09/2014  13:25:00       15.008        9.103       25.694       30.124       33.008       29.508      907.461     1089.496      870.707        0.192        0.143       17.553       23.257        1.755      349.889       30.648      862.192
08/09/2014  13:26:00      172.960       70.437       51.303       88.461       86.609       53.021     7825.371     7501.176     2811.274        2.782        0.907      186.753       39.902        0.046      349.325       29.669      862.181
08/09/2014  13:27:00      125.333       80.350       48.601       55.472       47.556       51.619     3077.118     2261.573     2664.518        1.626        0.400      148.878       36.030        0.059      349.460       29.903      862.164
08/09/2014  13:28:00      148.027       83.432       37.793       70.710       58.302       46.858     4999.915     3399.146     2195.651        2.045        0.530      169.920       36.738        0.047      349.351       29.712      862.152
08/09/2014  13:29:00       24.960      -45.380       21.681       28.202       58.483       31.130      795.367     3420.225      969.102        0.417        0.259       51.791       29.536        0.325      349.575       30.105      862.150
08/09/2014  13:30:00       14.158      -75.061        5.881       28.477       33.738       27.038      810.959     1138.285      731.066        0.427        0.134       76.384       21.918        0.082      349.498       29.969      862.134
08/09/2014  13:31:00       25.926      -28.482       30.822       54.223       66.027       30.964     2940.099     4359.580      958.768        0.534        0.413       38.514       30.518        0.628      349.805       30.502      862.105
08/09/2014  13:32:00       86.881       29.412       37.099       52.074       30.266       34.234     2711.689      916.010     1171.935        0.729        0.240       91.724       20.178        0.048      349.364       29.740      862.093
08/09/2014  13:33:00       50.862       40.631        5.354       30.837       20.431       31.936      950.944      417.412     1019.893        0.333        0.119       65.099       16.087        0.061      349.323       29.666      862.083
08/09/2014  13:34:00      -34.788       -5.347       19.269       37.232       57.914       36.481     1386.191     3354.082     1330.887        0.384        0.304       35.196       29.392        0.697      349.658       30.249      862.087
08/09/2014  13:35:00      -30.686       34.832       13.444       23.428       28.867       36.340      548.891      833.329     1320.630        0.252        0.135       46.420        6.474        0.019      349.936       30.731      862.080
08/09/2014  13:36:00      -26.592       43.347        9.892       35.791       35.844       27.746     1281.003     1284.824      769.842        0.301        0.167       50.854       26.170        0.265      350.146       31.095      862.054
08/09/2014  13:37:00      -63.731      -36.865       13.243       67.808       50.713       32.049     4597.879     2571.840     1027.108        0.689        0.410       73.625       32.346        0.193      349.847       30.576      862.036
08/09/2014  13:38:00     -100.443     -105.796        0.691       62.082       50.981       40.621     3854.130     2599.012     1650.078        1.469        0.405      145.882       27.160        0.035      349.430       29.853      862.018
08/09/2014  13:39:00     -167.850      -52.711       -6.296       52.303       84.968       31.596     2735.563     7219.622      998.287        2.097        0.548      175.932       28.231        0.026      349.353       29.716      861.991
08/09/2014  13:40:00     -216.014      -25.384      -15.536       69.046       83.719       45.222     4767.358     7008.817     2045.044        3.068        0.691      217.500       31.462        0.021      349.486       29.947      861.973
08/09/2014  13:41:00     -145.097      -16.734       -8.233       50.073       70.555       34.810     2507.272     4977.983     1211.765        1.505        0.435      146.059       31.546        0.047      349.724       30.362      861.966
08/09/2014  13:42:00     -175.803       18.541      -13.415       79.291       48.370       34.313     6287.130     2339.661     1177.407        2.062        0.490      176.778       36.381        0.042      349.442       29.871      861.940
08/09/2014  13:43:00      -29.194       72.733       -0.227       39.967       38.150       35.792     1597.385     1455.431     1281.064        0.524        0.217       78.373       25.206        0.103      349.769       30.440      861.931
08/09/2014  13:44:00      -30.984       85.554        7.769       62.160       78.221       42.914     3863.911     6118.556     1841.639        1.008        0.591       90.992       49.443        0.295      350.008       30.855      861.908
08/09/2014  13:45:00      -85.217      147.189       -8.002       54.565       63.905       39.579     2977.339     4083.838     1566.466        1.881        0.431      170.078       34.371        0.041      349.646       30.225      861.887
08/09/2014  13:46:00      -17.867       62.841       -3.105       25.471       68.521       37.059      648.783     4695.150     1373.382        0.550        0.336       65.332       37.625        0.332      349.809       30.509      861.885
08/09/2014  13:47:00       42.989       42.067        5.423       51.981       29.652       30.522     2702.074      879.239      931.601        0.408        0.226       60.147       20.195        0.113      349.797       30.489      861.868
08/09/2014  13:48:00       -1.789       15.677        2.168       35.839       33.102       28.982     1284.432     1095.727      839.968        0.174        0.161       15.778       21.319        1.826      350.135       31.078      861.849
08/09/2014  13:49:00      -37.205      -32.935       25.700       98.177       77.335       47.235     9638.636     5980.729     2231.172        1.049        0.893       49.688       51.871        1.090      350.050       30.927      861.831
08/09/2014  13:50:00     -106.333      104.441       -4.446       94.337       56.490       43.645     8899.376     3191.064     1904.881        1.811        0.700      149.046       39.455        0.070      349.993       30.827      861.812
08/09/2014  13:51:00     -125.877       80.803      -31.828       84.363      102.125       29.080     7117.084    10429.457      845.660        2.089        0.920      149.580       15.006        0.010      349.801       30.493      861.791
08/09/2014  13:52:00      -61.250       71.762      -18.376       44.633       60.700       22.398     1992.115     3684.519      501.679        0.771        0.309       94.347       12.276        0.017      349.758       30.420      861.793
08/09/2014  13:53:00       -6.921        8.201        8.393       44.015       13.668       29.525     1937.358      186.804      871.734        0.159        0.150       10.731       30.892        8.287      350.300       31.364      861.789
08/09/2014  13:54:00       36.368      -45.734       13.786       34.540       74.896       30.992     1192.982     5609.445      960.496        0.568        0.388       58.432       38.769        0.440      350.200       31.190      861.789
08/09/2014  13:55:00     -135.311      -11.105      -17.209       74.807       59.657       30.680     5596.161     3558.976      941.240        1.441        0.505      135.766       38.077        0.079      349.554       30.067      861.783
08/09/2014  13:56:00      -85.519      107.282       -7.229       52.263       81.337       44.736     2731.464     6615.741     2001.347        1.511        0.567      137.196       40.625        0.088      349.981       30.807      861.792
08/09/2014  13:57:00     -170.222      158.844      -37.685       30.207       71.401       27.463      912.436     5098.134      754.212        3.119        0.338      232.824        9.516        0.002      349.476       29.928      861.784
08/09/2014  13:58:00      -68.957      105.522      -18.024      118.707       68.249       47.053    14091.343     4657.902     2213.967        1.858        1.048      126.056       57.577        0.209      349.945       30.744      861.775
08/09/2014  13:59:00      203.452      139.052        6.048      103.596       69.054       57.001    10732.064     4768.452     3249.153        3.975        0.937      246.431       36.157        0.022      349.775       30.449      861.762
08/09/2014  14:00:00      210.061      115.895       27.311       85.817       56.499       48.280     7364.615     3192.186     2330.931        3.559        0.644      239.911       15.203        0.004      349.655       30.240      861.772
08/09/2014  14:01:00      127.799       71.006       34.314       49.151       46.059       40.306     2415.860     2121.463     1624.539        1.436        0.308      146.200       20.226        0.019      349.825       30.536      861.749
08/09/2014  14:02:00      195.730      111.197       20.607       61.013       71.886       43.898     3722.548     5167.596     1927.039        3.096        0.541      225.111       18.591        0.007      349.675       30.275      861.735
08/09/2014  14:03:00       55.990       52.392       18.430       55.735       45.338       44.521     3106.396     2055.494     1982.079        0.668        0.357       76.679       10.472        0.019      350.252       31.280      861.722
08/09/2014  14:04:00        4.012       25.347       15.544       34.290       24.342       23.118     1175.818      592.541      534.423        0.160        0.115       25.662       12.443        0.235      350.220       31.225      861.702
08/09/2014  14:05:00       67.661       70.492       11.223       76.666       61.732       44.848     5877.730     3810.890     2011.345        1.068        0.585       97.709       34.181        0.122      350.182       31.157      861.697
08/09/2014  14:06:00       93.815       95.611       -7.713       58.869       82.486       40.985     3465.597     6803.930     1679.775        1.497        0.597      133.950       31.305        0.055      350.135       31.075      861.689
08/09/2014  14:07:00      -18.778      189.773      -12.887       43.556       50.535       35.967     1897.153     2553.833     1293.618        2.114        0.287      190.700       33.304        0.030      349.826       30.538      861.670
08/09/2014  14:08:00       13.300       41.128       -0.114       42.398       40.088       34.625     1797.560     1607.016     1198.910        0.324        0.230       43.225       19.614        0.206      349.816       30.523      861.670
08/09/2014  14:09:00       32.715      -10.193       26.401       34.908       38.192       34.006     1218.571     1458.657     1156.375        0.285        0.192       34.266       25.063        0.535      349.830       30.547      861.639
08/09/2014  14:10:00      -92.052       34.951      -12.745       67.735       66.103       37.211     4587.994     4369.601     1384.666        1.010        0.517       98.463       27.627        0.079      350.036       30.905      861.609
08/09/2014  14:11:00     -238.538      -37.304      -16.920       62.234       50.696       38.687     3873.089     2570.051     1496.693        3.326        0.397      241.438       32.980        0.019      349.841       30.562      861.588
08/09/2014  14:12:00     -138.173      -36.626      -11.420       47.901       43.606       30.218     2294.528     1901.465      913.140        1.284        0.255      142.945       23.867        0.028      349.826       30.540      861.586
08/09/2014  14:13:00     -156.116      -64.026      -18.602       69.390       54.266       36.028     4815.020     2944.789     1298.034        1.894        0.453      168.735       32.550        0.037      349.657       30.244      861.546
08/09/2014  14:14:00     -209.325      -98.191        1.640      112.266       69.184       40.532    12603.634     4786.470     1642.822        3.624        0.952      231.210       40.820        0.031      349.935       30.725      861.519
08/09/2014  14:15:00     -128.834      -41.489        9.936       82.835       69.849       43.968     6861.686     4878.834     1933.198        1.604        0.684      135.350       44.736        0.109      350.133       31.072      861.512
08/09/2014  14:16:00     -105.642      -42.224        3.651       74.939       61.928       46.906     5615.918     3835.049     2200.214        1.230        0.583      113.767       31.954        0.079      350.145       31.092      861.509
08/09/2014  14:17:00      -61.637       39.978       11.782       75.275       81.720       38.258     5666.269     6678.218     1463.663        0.967        0.690       73.467       38.001        0.268      350.186       31.165      861.511
08/09/2014  14:18:00      -13.551      130.144        3.910       75.950      100.108       49.687     5768.345    10021.586     2468.827        1.769        0.913      130.847       41.972        0.103      350.281       31.327      861.515
08/09/2014  14:19:00       43.058      165.684      -24.242       55.556       94.036       47.572     3086.461     8842.761     2263.136        2.204        0.710      171.188       55.134        0.104      350.011       30.858      861.506
08/09/2014  14:20:00       58.984      129.489       -1.220       40.732       77.485       45.854     1659.080     6003.931     2102.553        1.500        0.488      142.290       42.204        0.088      349.995       30.831      861.513
08/09/2014  14:21:00       76.836      136.891        4.818      110.946       85.859       55.057    12309.114     7371.773     3031.240        2.368        1.136      156.980       43.694        0.077      349.996       30.832      861.506
08/09/2014  14:22:00      175.198       46.113       34.541      111.147       76.986       79.501    12353.699     5926.874     6320.436        2.930        1.230      181.165       53.306        0.087      349.962       30.774      861.493
08/09/2014  14:23:00      168.067       96.893       39.181       99.214       78.446       56.226     9843.364     6153.814     3161.398        2.916        0.958      193.997       29.637        0.023      350.205       31.194      861.493
08/09/2014  14:24:00      137.433       47.976       39.116      107.811       70.244       63.685    11623.188     4934.162     4055.744        2.166        1.031      145.566       48.937        0.113      350.104       31.021      861.496
08/09/2014  14:25:00      113.592      -79.377       23.487      102.732       92.813       66.645    10553.807     8614.264     4441.590        2.168        1.180      138.578       57.243        0.171      350.023       30.878      861.490
08/09/2014  14:26:00       45.823       22.690       42.496       58.314       52.701       40.184     3400.494     2777.429     1614.766        0.610        0.390       51.133       41.448        0.657      350.034       30.900      861.477
08/09/2014  14:27:00       29.974       86.940       88.220       75.255       78.032       70.123     5663.304     6089.038     4917.222        1.645        0.833       91.962       56.135        0.373      350.023       30.881      861.444
08/09/2014  14:28:00      232.797      169.297       35.481      107.823      101.156       72.530    11625.887    10232.625     5260.646        5.561        1.356      287.847       39.777        0.019      350.108       31.027      861.456
08/09/2014  14:29:00      205.611      148.875       11.741      112.328       66.196       61.890    12617.644     4381.857     3830.326        4.270        1.041      253.849       39.388        0.024      350.103       31.018      861.452
08/09/2014  14:30:00      186.945      105.419       27.279       75.971       62.625       53.528     5771.527     3921.928     2865.275        2.968        0.628      214.620       26.920        0.016      349.885       30.638      861.461
08/09/2014  14:31:00       49.652       86.304        3.797       66.168       49.008       36.991     4378.242     2401.737     1368.356        0.904        0.407       99.567       26.940        0.073      349.872       30.619      861.461
08/09/2014  14:32:00        2.383       57.883        7.299       23.152       54.399       31.410      536.008     2959.238      986.611        0.394        0.224       57.932       32.526        0.315      350.095       31.007      861.444
08/09/2014  14:33:00      -49.930       65.828      -11.420       41.309       52.517       32.088     1706.441     2758.021     1029.658        0.622        0.275       82.621       31.427        0.145      350.079       30.978      861.423
08/09/2014  14:34:00      -30.552      -33.622      -14.149       37.081       41.870       24.800     1374.981     1753.055      615.051        0.300        0.187       45.430       19.479        0.184      349.848       30.577      861.406
08/09/2014  14:35:00      -69.321        3.553       -4.300       53.054       49.144       22.639     2814.729     2415.148      512.525        0.529        0.287       69.412       19.346        0.078      350.074       30.971      861.378
08/09/2014  14:36:00      -65.831       80.343       -9.923       57.244       54.844       39.810     3276.852     3007.914     1584.803        0.938        0.393      103.869       38.386        0.137      350.005       30.850      861.366
08/09/2014  14:37:00       -6.347       19.109       12.666       31.099       31.068       27.791      967.146      965.246      772.340        0.163        0.135       20.136       12.479        0.384      350.067       30.957      861.370
08/09/2014  14:38:00       71.994       55.709       17.133       61.217       50.818       42.058     3747.566     2582.458     1768.897        0.834        0.405       91.031        7.845        0.007      349.845       30.571      861.353
08/09/2014  14:39:00       35.409       99.040        6.148       67.984       94.890       54.152     4621.800     9004.033     2932.463        1.383        0.828      105.180       56.266        0.286      349.986       30.815      861.325
08/09/2014  14:40:00      156.204       73.124       21.342       97.436       65.645       54.396     9493.699     4309.292     2958.979        2.348        0.838      172.473       25.649        0.022      349.875       30.624      861.301
08/09/2014  14:41:00       45.084      205.496      -26.437       57.915       99.296       44.921     3354.141     9859.726     2017.878        3.009        0.762      210.384       54.827        0.068      349.716       30.346      861.297
08/09/2014  14:42:00      137.718      106.551       -2.159       42.074       34.845       34.173     1770.239     1214.191     1167.798        1.724        0.208      174.125       26.281        0.023      349.575       30.103      861.285
08/09/2014  14:43:00       12.085       43.171       46.572       37.789       41.525       34.801     1427.995     1724.298     1211.129        0.427        0.218       44.830       23.189        0.268      350.051       30.931      861.266
08/09/2014  14:44:00      -63.231       87.928      -10.479       67.637       64.425       35.990     4574.811     4150.594     1295.314        1.093        0.501      108.303       34.678        0.103      350.049       30.926      861.271
08/09/2014  14:45:00      -97.094      115.055      -25.691       39.457       76.353       22.443     1556.851     5829.852      503.674        1.561        0.395      150.549       18.225        0.015      349.765       30.432      861.275
08/09/2014  14:46:00      -23.209       69.023        2.375       29.202       74.089       21.944      852.746     5489.200      481.523        0.606        0.341       72.820       28.668        0.155      350.248       31.271      861.267
08/09/2014  14:47:00      -49.679      160.558      -11.273       88.256       74.076       50.528     7789.060     5487.275     2553.048        2.210        0.791      168.068       46.662        0.077      350.074       30.968      861.266
08/09/2014  14:48:00       45.013      170.196      -10.587       54.205       74.866       49.735     2938.147     5604.990     2473.568        2.106        0.551      176.048       43.814        0.062      349.904       30.673      861.251
08/09/2014  14:49:00       79.741      168.440      -11.272       83.947       76.622       51.536     7047.117     5870.936     2655.925        2.521        0.779      186.362       49.193        0.070      350.052       30.930      861.237
08/09/2014  14:50:00       37.044      183.029      -25.158       77.266       96.658       43.050     5969.992     9342.765     1853.321        2.633        0.858      186.741       47.457        0.065      349.998       30.833      861.222
08/09/2014  14:51:00       15.440       33.203       10.194       40.983       46.072       28.681     1679.635     2122.650      822.592        0.303        0.231       36.617       11.409        0.097      350.124       31.058      861.221
08/09/2014  14:52:00       59.486       34.606       32.663       54.336       45.741       38.086     2952.419     2092.239     1450.538        0.615        0.325       68.820       21.947        0.102      350.016       30.870      861.212
08/09/2014  14:53:00      178.231      121.464       27.802       65.196       44.929       51.130     4250.583     2018.620     2614.297        2.809        0.444      215.684       27.454        0.016      349.739       30.383      861.188
08/09/2014  14:54:00       86.506       36.778       27.689       55.443       47.331       34.303     3073.901     2240.254     1176.682        0.805        0.325       94.000       25.097        0.071      349.786       30.469      861.170
08/09/2014  14:55:00       51.235       22.854       17.168       60.062       43.454       30.427     3607.502     1888.229      925.774        0.493        0.321       56.101       12.518        0.050      349.807       30.505      861.151
08/09/2014  14:56:00       -1.365       32.725       10.009       25.241       45.180       24.700      637.116     2041.264      610.089        0.223        0.164       32.754       28.674        0.766      349.892       30.654      861.139
08/09/2014  14:57:00       -0.506      189.541      -36.174       44.711       38.217       22.932     1999.065     1460.541      525.855        2.061        0.199      189.542       19.562        0.011      349.730       30.372      861.123
08/09/2014  14:58:00       -5.221      139.108      -13.090       35.590       37.630       16.715     1266.642     1416.006      279.384        1.126        0.148      139.206       18.985        0.019      349.778       30.456      861.105
08/09/2014  14:59:00      108.058       76.273        3.105       64.487       44.482       34.809     4158.545     1978.650     1211.686        1.242        0.367      132.265       23.068        0.030      349.802       30.496      861.105
08/09/2014  15:00:00        0.429       60.681       -0.112       36.574       38.793       20.787     1337.628     1504.929      432.103        0.348        0.164       60.683       20.628        0.116      350.041       30.912      861.100
08/09/2014  15:01:00      -34.186      152.400      -24.933       24.002       39.245       23.065      576.108     1540.141      532.011        1.383        0.132      156.187       21.274        0.019      349.949       30.753      861.096
08/09/2014  15:02:00      -39.629      120.150      -33.322       24.930       42.045       21.701      621.516     1767.756      470.943        0.999        0.143      126.517       14.118        0.012      349.887       30.644      861.073
08/09/2014  15:03:00      -41.114       71.401        0.256       32.496       40.156       30.949     1056.005     1612.526      957.839        0.521        0.181       82.392       29.283        0.126      350.259       31.291      861.066
08/09/2014  15:04:00      -97.205      105.592      -11.784       40.852       54.587       32.579     1668.907     2979.720     1061.379        1.322        0.286      143.522       30.262        0.044      350.043       30.915      861.046
08/09/2014  15:05:00      -65.197       63.844       -0.996       41.791       43.264       28.887     1746.481     1871.746      834.488        0.639        0.223       91.251       26.496        0.084      350.159       31.117      861.029
08/09/2014  15:06:00      -18.777      -90.461        1.922       51.200       89.661       34.796     2621.487     8039.045     1210.761        1.020        0.594       92.389       33.346        0.130      350.172       31.138      861.014
08/09/2014  15:07:00      -14.515     -133.631        9.777       78.005       55.643       52.815     6084.754     3096.186     2789.376        1.506        0.599      134.417       32.291        0.058      350.050       30.927      860.994
08/09/2014  15:08:00       -2.714     -171.668      -24.300       71.427       64.687       47.485     5101.859     4184.376     2254.860        2.080        0.577      171.689       33.281        0.038      350.041       30.910      860.992
08/09/2014  15:09:00      -41.988      -34.008        7.814       49.745       40.703       33.959     2474.557     1656.703     1153.193        0.413        0.264       54.032       28.539        0.279      350.306       31.373      861.002
08/09/2014  15:10:00      -74.920        6.326        6.335       27.921       36.983       24.008      779.598     1367.751      576.375        0.421        0.136       75.187       13.783        0.034      350.113       31.036      860.975
08/09/2014  15:11:00      -65.848      -46.088        1.073       56.988       40.309       29.276     3247.674     1624.803      857.107        0.609        0.286       80.374       31.556        0.154      350.209       31.206      860.954
08/09/2014  15:12:00      -56.471      -59.087       -0.765       65.582       54.706       31.004     4301.041     2992.795      961.274        0.747        0.413       81.732       22.673        0.077      350.087       30.991      860.940
08/09/2014  15:13:00       28.417      -90.751       -1.842       62.634       49.778       34.135     3923.010     2477.892     1165.231        0.830        0.378       95.096       27.763        0.085      350.045       30.919      860.923
08/09/2014  15:14:00       -2.281      -30.689       16.255       34.002       53.620       31.608     1156.131     2875.060      999.092        0.312        0.252       30.774       24.046        0.611      350.154       31.110      860.905
08/09/2014  15:15:00       -9.717      -44.160       17.879       24.654       38.947       28.982      607.811     1516.906      839.930        0.266        0.148       45.217       24.850        0.302      350.364       31.475      860.889
08/09/2014  15:16:00       18.539      -33.240       26.117       26.735       57.351       36.264      714.750     3289.189     1315.069        0.372        0.266       38.061       41.176        1.170      350.426       31.583      860.878
08/09/2014  15:17:00       49.091       34.649       31.948       34.791       28.562       24.420     1210.434      815.761      596.347        0.363        0.131       60.087       22.511        0.140      350.080       30.980      860.852
08/09/2014  15:18:00       32.428       37.038        1.588       35.756       36.849       27.903     1278.497     1357.861      778.566        0.292        0.171       49.228       20.183        0.168      350.103       31.021      860.828
08/09/2014  15:19:00        4.607       28.442       17.006       33.656       22.918       21.767     1132.697      525.254      473.821        0.163        0.107       28.812       15.913        0.305      350.334       31.422      860.811
08/09/2014  15:20:00       48.352       40.624       14.540       35.061       34.800       29.781     1229.303     1211.069      886.899        0.376        0.166       63.152       22.633        0.128      350.085       30.990      860.788
08/09/2014  15:21:00      -36.798      100.235        3.220       52.316       57.360       37.000     2737.011     3290.184     1369.002        0.940        0.370      106.776       36.289        0.116      350.333       31.420      860.778
08/09/2014  15:22:00      -39.043       95.650      -14.397       69.297       67.527       30.403     4802.033     4559.914      924.319        1.058        0.514      103.311       24.322        0.055      350.313       31.387      860.766
08/09/2014  15:23:00       12.007      191.972      -19.317       42.340       77.715       38.822     1792.715     6039.551     1507.116        2.335        0.467      192.347       43.636        0.051      350.161       31.117      860.738
08/09/2014  15:24:00        4.628      153.139      -17.945       36.934       70.067       30.657     1364.125     4909.346      939.835        1.550        0.361      153.209       35.522        0.054      350.214       31.212      860.727
08/09/2014  15:25:00       -5.060      125.436      -16.576       33.349       52.179       34.830     1112.172     2722.659     1213.163        1.054        0.252      125.538       25.341        0.041      350.172       31.141      860.720
08/09/2014  15:26:00       -1.218      160.345      -17.839       45.546       66.160       31.426     2074.406     4377.163      987.583        1.673        0.372      160.350       37.660        0.055      350.037       30.905      860.714
08/09/2014  15:27:00       -4.065      139.377      -15.959       40.987       62.720       30.017     1679.940     3933.849      901.002        1.310        0.326      139.436       36.593        0.069      350.169       31.135      860.702
08/09/2014  15:28:00      -19.307       89.524      -21.927       32.717       73.400       29.502     1070.372     5387.522      870.361        0.810        0.366       91.582       32.879        0.129      350.541       31.783      860.687
08/09/2014  15:29:00      -43.021       93.745       -7.599       65.084       56.162       32.149     4235.952     3154.212     1033.585        0.956        0.421      103.145       29.223        0.080      350.412       31.558      860.682
08/09/2014  15:30:00      -66.656      115.276       -7.966       47.443       62.887       36.744     2250.863     3954.740     1350.114        1.267        0.378      133.160       37.323        0.079      350.232       31.244      860.678
08/09/2014  15:31:00      -41.836      106.127      -13.579       31.257       68.810       32.053      977.016     4734.802     1027.369        0.997        0.337      114.076       32.213        0.080      350.227       31.237      860.663
08/09/2014  15:32:00      -24.411      138.252       -2.950       66.798       93.734       44.833     4462.037     8785.970     2010.031        1.749        0.763      140.391       48.751        0.121      350.358       31.464      860.646
08/09/2014  15:33:00       14.125      200.247      -23.253       42.125       48.269       26.567     1774.494     2329.862      705.819        2.282        0.241      200.745       24.997        0.016      350.074       30.967      860.649
08/09/2014  15:34:00       67.369      184.333      -20.741       54.568       70.696       46.179     2977.712     4997.883     2132.537        2.453        0.505      196.258       43.861        0.050      350.074       30.968      860.652
08/09/2014  15:35:00        8.797      102.971      -17.197       55.525       74.218       34.979     3082.998     5508.284     1223.496        1.039        0.491      103.346       33.871        0.107      350.045       30.920      860.638
08/09/2014  15:36:00      -25.191       79.776       23.784       38.689       76.603       44.666     1496.840     5867.946     1995.060        0.846        0.468       83.659       47.126        0.317      350.608       31.898      860.634
08/09/2014  15:37:00      -45.228       63.146        5.156       42.654       48.149       42.258     1819.389     2318.306     1785.735        0.599        0.296       77.672       34.785        0.201      350.350       31.449      860.636
08/09/2014  15:38:00       -5.936       41.676      -13.548       19.514       30.610       24.920      380.787      936.942      621.010        0.195        0.097       42.096       20.248        0.231      350.309       31.377      860.625
08/09/2014  15:39:00       -9.025       18.466       -1.002       27.087       23.331       16.373      733.681      544.329      268.068        0.098        0.077       20.553       16.321        0.631      350.280       31.329      860.618
08/09/2014  15:40:00      -45.548       62.051      -13.766       30.166       38.379       19.026      909.992     1472.966      361.989        0.443        0.137       76.974       16.730        0.047      350.283       31.332      860.626
08/09/2014  15:41:00      -34.621       24.725       -7.162       25.243       29.811       18.798      637.189      888.724      353.364        0.187        0.094       42.544       10.180        0.057      350.366       31.477      860.623
08/09/2014  15:42:00      -38.181      -32.548       -9.480       31.136       38.645       24.915      969.424     1493.470      620.753        0.284        0.154       50.171       24.474        0.238      350.064       30.953      860.606
08/09/2014  15:43:00       -9.553      -19.674       -2.265       34.586       61.266       19.856     1196.166     3753.508      394.267        0.291        0.267       21.871       12.860        0.346      350.383       31.506      860.589
08/09/2014  15:44:00        9.504      -34.061       20.428       31.553       62.555       23.141      995.581     3913.092      535.495        0.355        0.272       35.362       17.171        0.236      350.390       31.519      860.577
08/09/2014  15:45:00       22.429      -70.737       19.795       24.562       60.310       25.461      603.305     3637.286      648.286        0.539        0.244       74.208       28.198        0.144      350.289       31.344      860.548
08/09/2014  15:46:00       32.508     -138.961       11.420       38.752       36.633       25.561     1501.697     1341.970      653.364        1.200        0.175      142.713       18.904        0.018      350.011       30.861      860.520
08/09/2014  15:47:00       33.009       32.951       58.222       40.710       45.844       25.424     1657.283     2101.708      646.359        0.498        0.220       46.641       23.980        0.264      350.212       31.210      860.511
08/09/2014  15:48:00        5.120       78.817        8.864       39.669       60.448       33.598     1573.612     3653.985     1128.831        0.634        0.318       78.983       35.949        0.207      350.205       31.198      860.487
08/09/2014  15:49:00      -39.918      -23.725       11.206       75.246       59.405       32.703     5661.987     3528.987     1069.516        0.627        0.513       46.437       36.890        0.631      350.980       32.546      860.468
08/09/2014  15:50:00     -139.156      -22.612       -2.359       62.908       53.319       27.137     3957.412     2842.879      736.429        1.371        0.377      140.981       19.128        0.018      350.836       32.295      860.460
08/09/2014  15:51:00     -101.649       -4.050       -0.871       99.980       60.783       54.035     9996.093     3694.609     2919.799        1.348        0.831      101.730       59.190        0.339      350.549       31.796      860.436
08/09/2014  15:52:00      -67.996       69.904       11.501       66.213       58.112       52.294     4384.167     3377.008     2734.631        1.007        0.525       97.520       46.067        0.223      350.777       32.192      860.427
08/09/2014  15:53:00     -167.629       14.815      -11.336      101.655       81.692       50.588    10333.667     6673.505     2559.132        2.400        0.978      168.283       52.576        0.098      350.458       31.636      860.429
08/09/2014  15:54:00     -124.857       22.383       -7.872       59.609       66.890       40.676     3553.179     4474.296     1654.525        1.292        0.484      126.848       26.160        0.043      350.673       32.012      860.409
08/09/2014  15:55:00     -110.209      106.242       -0.352       88.928       85.363       43.905     7908.170     7286.913     1927.690        2.027        0.856      153.080       49.295        0.104      350.579       31.845      860.410
08/09/2014  15:56:00     -182.538      123.354      -26.438       71.472      103.207       40.910     5108.254    10651.597     1673.664        3.333        0.872      220.309       40.382        0.034      350.189       31.166      860.416
08/09/2014  15:57:00     -151.844       15.172      -31.950       54.565       90.217       36.494     2977.290     8139.179     1331.808        1.838        0.622      152.600       23.508        0.024      350.216       31.217      860.398
08/09/2014  15:58:00       15.145        7.086        5.094       73.093       38.491       49.534     5342.544     1481.530     2453.616        0.479        0.464       16.721       42.884        6.578      350.413       31.560      860.402
08/09/2014  15:59:00      -47.162       88.154        4.855       86.636       79.680       39.819     7505.800     6348.824     1585.580        1.273        0.772       99.977       48.253        0.233      350.332       31.418      860.395
08/09/2014  16:00:00     -133.817      112.019      -37.657       63.923       51.718       25.026     4086.133     2674.785      626.290        1.963        0.369      174.514       34.295        0.039      349.931       30.720      860.392
08/09/2014  16:01:00      -23.394       25.606       -0.922       35.369       33.309       22.280     1250.954     1109.518      496.414        0.203        0.143       34.683       19.201        0.306      350.340       31.435      860.383
08/09/2014  16:02:00     -105.030       20.068      -14.434       23.315       29.306       20.074      543.609      858.846      402.949        0.672        0.090      106.930       12.714        0.014      350.440       31.608      860.376
08/09/2014  16:03:00      -10.348       14.154        5.189       26.635       30.699       26.712      709.446      942.400      713.516        0.135        0.118       17.533       17.491        0.995      350.787       32.210      860.373
08/09/2014  16:04:00      -62.213      -33.754        4.198       62.841       65.845       44.118     3948.935     4335.559     1946.425        0.763        0.512       70.780       29.230        0.171      350.563       31.820      860.377
08/09/2014  16:05:00     -160.220      -50.779      -17.098       53.373       70.536       29.265     2848.692     4975.347      856.413        1.861        0.434      168.074       25.912        0.024      350.140       31.083      860.381
08/09/2014  16:06:00      -74.521      -55.311       -2.663       93.249       47.127       36.478     8695.334     2220.919     1330.628        1.043        0.612       92.804       39.807        0.184      350.112       31.035      860.376
08/09/2014  16:07:00       24.901       -0.757       25.128       32.355       23.472       27.741     1046.862      550.929      769.564        0.181        0.118       24.913       15.241        0.374      350.273       31.315      860.369
08/09/2014  16:08:00       -3.346        8.442       16.801       49.090       30.398       26.288     2409.839      924.069      691.061        0.219        0.201        9.081       23.880        6.916      350.340       31.432      860.365
08/09/2014  16:09:00       24.680       -5.733      -10.547       36.483       20.539       15.075     1331.031      421.846      227.266        0.137        0.099       25.337        5.762        0.052      349.969       30.787      860.356
08/09/2014  16:10:00      -12.428        1.580       17.968       21.104       18.850       22.590      445.369      355.329      510.311        0.090        0.066       12.528       16.485        1.732      350.556       31.808      860.347
08/09/2014  16:11:00      -21.530      -11.521        7.109       76.583       49.884       25.247     5864.963     2488.442      637.421        0.482        0.450       24.419       25.138        1.060      350.174       31.143      860.328
08/09/2014  16:12:00      -39.816      -60.666       -2.345       49.518       50.362       27.213     2452.029     2536.323      740.571        0.550        0.286       72.565       26.401        0.132      350.356       31.460      860.314
08/09/2014  16:13:00      -11.182      -63.939        6.004       36.928       31.125       18.929     1363.649      968.770      358.298        0.347        0.135       64.910       17.038        0.069      350.289       31.343      860.305
08/09/2014  16:14:00      -78.833      -50.731       -0.534       59.092       22.623       28.558     3491.841      511.803      815.575        0.680        0.241       93.746       32.105        0.117      350.574       31.839      860.301
08/09/2014  16:15:00      -20.357      -43.025       -6.464       48.756       23.511       24.140     2377.125      552.748      582.763        0.291        0.176       47.598       15.003        0.099      350.374       31.491      860.303
08/09/2014  16:16:00       30.842      -51.770       -1.498       31.312       46.213       35.861      980.468     2135.685     1286.003        0.402        0.220       60.261       30.652        0.259      350.584       31.857      860.298
08/09/2014  16:17:00      -47.347       -9.793       -6.834       47.573       31.380       21.774     2263.144      984.712      474.098        0.305        0.186       48.349       14.300        0.087      350.811       32.251      860.301
08/09/2014  16:18:00       20.102      -28.550        1.726       21.934       23.115       21.102      481.107      534.307      445.290        0.134        0.073       34.917       12.019        0.118      350.620       31.920      860.309
08/09/2014  16:19:00       41.489      -54.094        5.775       60.147       69.504       41.109     3617.660     4830.849     1689.972        0.741        0.507       68.172       38.114        0.313      350.388       31.517      860.309
08/09/2014  16:20:00       33.942      -17.498       33.361       47.746       65.354       42.197     2279.686     4271.082     1780.628        0.545        0.417       38.187       34.361        0.810      350.518       31.742      860.309
08/09/2014  16:21:00       -3.283       -2.381       43.560       15.013       33.435       24.646      225.384     1117.888      607.432        0.193        0.098        4.055       20.743       26.162      350.247       31.270      860.319
08/09/2014  16:22:00      -22.635      -56.069        3.487       24.733       33.349       20.904      611.738     1112.185      436.986        0.291        0.108       60.465       12.319        0.042      350.307       31.374      860.334
08/09/2014  16:23:00       -2.960      -29.614        9.707       24.309       40.211       23.732      590.936     1616.908      563.192        0.187        0.139       29.761       22.398        0.566      350.272       31.312      860.337
08/09/2014  16:24:00       -1.287      -49.866        4.646       49.044       42.659       25.625     2405.337     1819.755      656.622        0.369        0.244       49.882       19.538        0.153      350.261       31.295      860.330
08/09/2014  16:25:00       74.653     -138.551       -8.368       57.677       57.601       45.510     3326.612     3317.871     2071.181        1.678        0.436      157.383       35.234        0.050      350.085       30.987      860.312
08/09/2014  16:26:00      -70.244      -17.351       23.299      147.118       79.074       67.993    21643.849     6252.622     4623.090        1.914        1.626       72.356       73.163        1.022      350.228       31.237      860.284
08/09/2014  16:27:00     -194.171       43.083      -14.780       82.076       96.999       47.158     6736.442     9408.870     2223.830        2.907        0.918      198.893       48.392        0.059      350.306       31.372      860.270
08/09/2014  16:28:00      -87.347      -50.216       -5.364      122.655       94.272       40.882    15044.181     8887.148     1671.357        1.789        1.280      100.753       57.473        0.325      350.263       31.298      860.240
08/09/2014  16:29:00     -125.496      -51.982        7.674      120.823       79.967       45.410    14598.309     6394.753     2062.049        2.078        1.153      135.836       52.461        0.149      350.120       31.047      860.263
08/09/2014  16:30:00     -117.436     -152.075        6.838       76.611      129.610       35.354     5869.277    16798.751     1249.878        3.044        1.196      192.140       42.672        0.049      350.026       30.884      860.299
08/09/2014  16:31:00     -123.552     -107.873       -1.787       94.455      110.492       55.711     8921.806    12208.533     3103.704        2.556        1.212      164.017       52.211        0.101      349.908       30.679      860.319
08/09/2014  16:32:00      -87.957      -38.756       -7.903       73.560       33.824       27.892     5411.101     1144.060      777.973        0.832        0.367       96.117       33.006        0.118      349.846       30.575      860.342
08/09/2014  16:33:00      -23.005        2.595       18.225       41.243       50.258       25.687     1700.999     2525.886      659.818        0.288        0.244       23.151       32.657        1.990      349.487       29.951      860.343
08/09/2014  16:34:00      -34.904        6.030        7.100       46.186       23.177       17.132     2133.144      537.152      293.493        0.213        0.148       35.421       19.310        0.297      349.378       29.763      860.347
08/09/2014  16:35:00       -9.588      -46.004       23.402       47.474       50.667       31.470     2253.745     2567.126      990.339        0.428        0.291       46.993       28.318        0.363      349.617       30.176      860.354
08/09/2014  16:36:00      -45.498      -19.486       18.107       75.100       39.315       32.419     5640.059     1545.663     1050.988        0.551        0.412       49.495       34.509        0.486      349.869       30.614      860.340
08/09/2014  16:37:00       16.484       -0.011       26.444       23.597       34.496       21.452      556.833     1189.996      460.178        0.159        0.110       16.484       16.667        1.022      349.849       30.581      860.334
08/09/2014  16:38:00       25.004       34.121        3.491       28.237       23.911       15.143      797.303      571.713      229.320        0.170        0.080       42.302        7.069        0.028      349.706       30.331      860.296
08/09/2014  16:39:00       12.733       11.702        7.133       57.538       43.993       31.842     3310.674     1935.357     1013.884        0.330        0.313       17.294       14.637        0.716      349.741       30.393      860.257
08/09/2014  16:40:00      193.232      116.643       -0.065       75.817       62.025       45.805     5748.200     3847.158     2098.090        3.132        0.585      225.708       36.780        0.027      349.606       30.153      860.243
08/09/2014  16:41:00       95.770       96.491       14.245       74.912       51.228       48.817     5611.827     2624.333     2383.108        1.465        0.531      135.950       27.774        0.042      349.620       30.179      860.241
08/09/2014  16:42:00      145.327       85.202       14.667       52.969       51.546       42.234     2805.701     2656.961     1783.710        1.792        0.362      168.461       20.320        0.015      349.712       30.339      860.247
08/09/2014  16:43:00      136.061       85.938       21.784       69.335       55.014       37.198     4807.380     3026.499     1383.722        1.779        0.461      160.929       33.868        0.044      349.659       30.246      860.252
08/09/2014  16:44:00      163.813       78.565       34.546       66.420       52.283       48.851     4411.567     2733.549     2386.435        2.186        0.477      181.679       34.721        0.037      349.744       30.394      860.268
08/09/2014  16:45:00      111.846       53.306       22.134       50.122       44.505       39.590     2512.177     1980.673     1567.337        1.095        0.303      123.900       31.417        0.064      349.607       30.160      860.283
08/09/2014  16:46:00       60.782       23.995       13.200       36.296       37.212       26.622     1317.389     1384.769      708.752        0.393        0.171       65.347       21.861        0.112      349.628       30.197      860.302
08/09/2014  16:47:00       51.234      -77.313        3.000       65.642       74.932       47.467     4308.839     5614.805     2253.079        1.039        0.609       92.748       53.666        0.335      349.336       29.688      860.328
08/09/2014  16:48:00      162.654     -168.750      -21.314       73.465      105.168       51.870     5397.078    11060.309     2690.518        3.726        0.957      234.378       50.287        0.046      349.605       30.153      860.357
08/09/2014  16:49:00      159.218     -118.188        7.673       76.893      133.988       70.689     5912.516    17952.677     4996.889        3.411        1.443      198.289       82.589        0.173      349.450       29.884      860.371
08/09/2014  16:50:00      127.021     -120.287       16.265      136.240      187.737       96.505    18561.398    35244.996     9313.172        4.698        3.156      174.938      121.910        0.486      349.297       29.620      860.380
08/09/2014  16:51:00       92.724       -0.718      104.145      136.181      254.235      120.181    18545.285    64635.628    14443.390        5.851        4.881       92.727      167.868        3.277      349.330       29.677      860.400
08/09/2014  16:52:00       23.594       45.488       59.570       44.557       38.996       44.880     1985.340     1520.722     2014.221        0.585        0.276       51.243       30.370        0.351      349.108       29.295      860.438
08/09/2014  16:53:00       22.186       26.643       45.454       33.682       30.895       25.407     1134.472      954.493      645.520        0.300        0.137       34.671       23.082        0.443      348.959       29.036      860.447
08/09/2014  16:54:00      148.699       72.240       19.978       79.024       83.715       40.507     6244.750     7008.121     1640.783        2.131        0.745      165.318       19.052        0.013      349.181       29.418      860.447
08/09/2014  16:55:00       49.770       59.957        8.187       78.767       56.747       46.851     6204.229     3220.238     2195.000        0.888        0.581       77.923       37.302        0.229      349.175       29.410      860.430
08/09/2014  16:56:00      -92.342        2.485       -3.673       60.219       72.084       38.224     3626.306     5196.055     1461.086        0.941        0.514       92.375       21.326        0.053      349.166       29.395      860.448
08/09/2014  16:57:00       -6.742       29.095       24.105       32.425       50.310       30.965     1051.366     2531.138      958.862        0.301        0.227       29.866       31.231        1.093      349.135       29.340      860.449
08/09/2014  16:58:00      -50.921       75.550       -3.112       43.159       40.049       26.268     1862.703     1603.952      690.004        0.623        0.208       91.109       28.910        0.101      349.109       29.296      860.469
08/09/2014  16:59:00       23.439       16.038        4.235       25.329       38.498       26.812      641.567     1482.070      718.870        0.183        0.142       28.401       19.230        0.458      349.064       29.218      860.483
08/09/2014  17:00:00       45.631       51.190       11.444       50.252       47.799       35.527     2525.217     2284.738     1262.199        0.545        0.304       68.576       27.921        0.166      349.199       29.451      860.507
08/09/2014  17:01:00       41.694       12.028        6.669       22.449       19.123       15.185      503.978      365.674      230.581        0.151        0.055       43.394        7.086        0.027      349.077       29.240      860.521
08/09/2014  17:02:00       29.749       19.087        4.815       34.111       21.856       17.101     1163.576      477.687      292.431        0.160        0.097       35.346       14.039        0.158      349.125       29.325      860.529
08/09/2014  17:03:00        9.115       -8.866       -6.158       42.565       20.693       17.590     1811.806      428.190      309.396        0.137        0.127       12.716       18.489        2.114      349.121       29.315      860.537
08/09/2014  17:04:00      -43.036       12.726        7.995       22.879       37.280       21.482      523.447     1389.805      461.487        0.223        0.119       44.878       12.816        0.082      349.171       29.404      860.533
08/09/2014  17:05:00       10.834       65.546        3.743       24.793       27.868       23.483      614.695      776.644      551.457        0.318        0.097       66.435       22.503        0.115      349.008       29.120      860.556
08/09/2014  17:06:00       43.638       60.061       -2.728       33.890       34.818       25.666     1148.544     1212.266      658.745        0.427        0.151       74.240       18.515        0.062      349.041       29.177      860.576
08/09/2014  17:07:00      109.324       95.261       12.371       46.697       36.777       35.085     2180.650     1352.529     1230.930        1.297        0.238      145.005       17.463        0.015      349.024       29.149      860.601
08/09/2014  17:08:00       86.382       59.775       13.501       57.879       39.531       32.197     3350.022     1562.735     1036.673        0.858        0.297      105.047       18.426        0.031      348.916       28.962      860.614
08/09/2014  17:09:00      146.506       87.310       13.941       44.967       33.127       37.727     2022.062     1097.387     1423.290        1.691        0.227      170.550       10.468        0.004      348.747       28.669      860.634
08/09/2014  17:10:00      155.095       72.315       50.182       98.919       75.404       61.017     9785.037     5685.738     3723.044        2.549        0.960      171.126       56.340        0.108      348.769       28.705      860.651
08/09/2014  17:11:00      206.269       95.747       71.180      110.092       85.556       84.110    12120.274     7319.824     7074.538        4.164        1.326      227.408       60.143        0.070      348.703       28.588      860.667
08/09/2014  17:12:00      207.471      100.192       52.785      118.074       85.779       69.992    13941.469     7357.988     4898.926        4.103        1.310      230.397       48.026        0.043      348.614       28.435      860.681
08/09/2014  17:13:00      147.326      140.566      102.322      114.421      101.267       90.242    13092.257    10254.946     8143.673        4.171        1.575      203.626       63.641        0.098      348.223       27.759      860.713
08/09/2014  17:14:00      152.726      104.974      113.342      105.918      104.441       91.842    11218.684    10907.874     8434.986        3.887        1.528      185.323       67.736        0.134      348.077       27.507      860.737
08/09/2014  17:15:00      222.692       85.439       64.423      131.704       91.534       83.703    17345.908     8378.535     7006.211        4.688        1.637      238.519       81.419        0.117      348.017       27.403      860.773
08/09/2014  17:16:00       81.599       98.539      105.162      102.226       86.146       62.782    10450.172     7421.180     3941.629        2.462        1.091      127.939       53.252        0.173      347.730       26.909      860.798
08/09/2014  17:17:00       74.673       68.750      102.664       73.587       79.562       62.668     5415.120     6330.050     3927.236        1.825        0.784      101.502       38.791        0.146      347.856       27.127      860.802
08/09/2014  17:18:00       60.315      127.426      140.706       70.842       73.463       46.101     5018.555     5396.809     2125.333        2.610        0.627      140.980       47.003        0.111      347.532       26.567      860.822
08/09/2014  17:19:00      175.029      -81.002       64.215      137.746      145.112      118.107    18973.982    21057.419    13949.186        4.764        2.699      192.863      114.805        0.354      348.091       27.531      860.843
08/09/2014  17:20:00      195.888       50.267      100.040      112.944      180.599      107.344    12756.281    32616.059    11522.741        5.389        2.845      202.235      105.641        0.273      348.311       27.911      860.893
08/09/2014  17:21:00      160.173       91.423       35.405       99.186       84.439       62.815     9837.899     7129.876     3945.782        2.809        1.046      184.428       43.746        0.056      348.589       28.392      860.926
08/09/2014  17:22:00      258.975      164.634       34.122       82.957       62.164       56.772     6881.812     3864.398     3223.010        5.465        0.698      306.876       34.190        0.012      348.643       28.484      860.921
08/09/2014  17:23:00       90.985      164.973      -18.000       73.417       58.354       51.052     5390.048     3405.206     2606.339        2.361        0.570      188.399       43.681        0.054      348.514       28.262      860.943
08/09/2014  17:24:00       49.560      193.446      -35.143       53.715       48.405       27.312     2885.296     2343.079      745.946        2.354        0.299      199.694       13.323        0.004      348.664       28.523      860.946
08/09/2014  17:25:00      -41.617      130.947      -11.351       27.720       71.619       29.621      768.404     5129.301      877.425        1.289        0.339      137.401       39.801        0.084      348.457       28.166      860.953
08/09/2014  17:26:00      -43.524       84.112       -8.186       40.837       49.310       29.677     1667.650     2431.472      880.735        0.701        0.249       94.706       32.113        0.115      348.462       28.174      860.956
08/09/2014  17:27:00      -25.495       82.804       -6.777       27.048       30.761       23.201      731.614      946.251      538.276        0.488        0.111       86.640       19.382        0.050      348.341       27.966      860.961
08/09/2014  17:28:00      -29.783      138.134      -19.581       26.828       44.616       18.473      719.719     1990.573      341.249        1.170        0.153      141.308       14.079        0.010      348.363       28.004      860.962
08/09/2014  17:29:00      -15.306      190.297      -28.582       25.369       27.247       10.605      643.561      742.416      112.456        1.938        0.075      190.912        7.969        0.002      348.682       28.557      860.950
08/09/2014  17:30:00       32.464      203.930      -31.534       32.380       54.761       28.265     1048.445     2998.756      798.928        2.424        0.242      206.498       25.958        0.016      348.519       28.273      860.929
08/09/2014  17:31:00       71.776      106.097       11.965       72.228       69.987       51.903     5216.832     4898.184     2693.934        1.468        0.640      128.095       42.514        0.110      348.159       27.652      860.931
08/09/2014  17:32:00      101.972      121.683        8.629       76.954       55.288       46.399     5921.958     3056.762     2152.900        1.820        0.557      158.761       43.929        0.077      348.066       27.490      860.919
08/09/2014  17:33:00      156.555      129.566       23.005       56.693       45.794       39.885     3214.126     2097.115     1590.808        2.436        0.345      203.216       19.205        0.009      348.098       27.543      860.901
08/09/2014  17:34:00      164.403      114.616       23.199       72.253       53.998       53.048     5220.478     2915.838     2814.130        2.582        0.548      200.413       26.083        0.017      348.470       28.186      860.894
08/09/2014  17:35:00      146.509       88.584       24.862       61.399       41.366       29.276     3769.778     1711.163      857.066        1.813        0.317      171.207       16.802        0.010      348.341       27.964      860.888
08/09/2014  17:36:00       86.815       63.941       18.476       31.467       27.682       24.957      990.180      766.283      622.834        0.717        0.119      107.821        8.329        0.006      348.242       27.794      860.883
08/09/2014  17:37:00       52.847       37.037       10.172       41.705       32.791       19.123     1739.337     1075.263      365.673        0.372        0.159       64.534       11.996        0.035      348.142       27.622      860.895
08/09/2014  17:38:00       20.564       85.147      -10.649       21.198       32.318       13.533      449.342     1044.455      183.134        0.473        0.084       87.595       12.848        0.022      348.045       27.455      860.908
08/09/2014  17:39:00       47.547      114.303      -13.260       36.639       71.867       28.041     1342.405     5164.856      786.316        1.140        0.365      123.798       30.868        0.062      348.234       27.780      860.916
08/09/2014  17:40:00       41.637       56.561       -2.798       38.067       37.581       31.501     1449.068     1412.296      992.312        0.440        0.193       70.234       24.429        0.121      348.179       27.687      860.917
08/09/2014  17:41:00       72.402       77.369        6.512       68.687       49.869       34.562     4717.852     2486.897     1194.517        0.983        0.420      105.962       28.101        0.070      348.160       27.654      860.928
08/09/2014  17:42:00       88.652       75.446       48.332       52.641       46.198       40.494     2771.082     2134.221     1639.753        1.121        0.327      116.410       34.129        0.086      347.823       27.070      860.941
08/09/2014  17:43:00      170.467       97.655       44.218       53.287       36.320       35.094     2839.495     1319.138     1231.599        2.297        0.270      196.457       22.455        0.013      347.950       27.288      860.964
08/09/2014  17:44:00      152.447      116.951       23.974       97.135       62.811       45.957     9435.278     3945.280     2112.028        2.649        0.775      192.140       28.525        0.022      348.149       27.631      860.984
08/09/2014  17:45:00      200.201      126.267       41.699      111.579       75.378       47.126    12449.789     5681.867     2220.895        3.905        1.018      236.694       41.013        0.030      348.395       28.057      860.995
08/09/2014  17:46:00      164.219      125.222       58.810      110.345       91.561       75.994    12175.941     8383.460     5775.145        3.622        1.317      206.515       32.986        0.026      348.295       27.884      861.001
08/09/2014  17:47:00      212.565      141.791       43.719      124.337       87.546       65.271    15459.812     7664.307     4260.328        4.729        1.369      255.516       53.038        0.043      348.326       27.937      861.007
08/09/2014  17:48:00      179.993      124.717       38.470      117.081       86.886       63.089    13708.013     7549.229     3980.284        3.733        1.262      218.979       31.198        0.020      348.348       27.975      861.016
08/09/2014  17:49:00      192.633      114.416       58.374      116.494       77.526       57.386    13570.857     6010.294     3293.111        3.824        1.144      224.050       32.070        0.020      348.257       27.819      861.019
08/09/2014  17:50:00      142.358       96.774       59.309       94.124       72.888       66.342     8859.253     5312.680     4401.213        2.586        0.929      172.136       52.778        0.094      348.189       27.702      861.026
08/09/2014  17:51:00      153.251       73.458       51.432      100.454       70.219       65.751    10091.002     4930.764     4323.201        2.543        0.967      169.947       47.243        0.077      348.216       27.748      861.040
08/09/2014  17:52:00      183.798       90.233       31.474       88.912       92.288       49.908     7905.256     8517.107     2490.807        3.091        0.946      204.753       44.919        0.048      348.273       27.845      861.053
08/09/2014  17:53:00      190.654       91.849       36.667       75.595       79.207       50.367     5714.547     6273.746     2536.832        3.032        0.726      211.625       28.818        0.019      348.251       27.808      861.070
08/09/2014  17:54:00      193.786       98.750       33.042       89.887       65.592       50.788     8079.631     4302.325     2579.415        3.168        0.748      217.496       12.695        0.003      348.189       27.699      861.095
08/09/2014  17:55:00      260.417      131.169       51.698       88.088       83.074       57.727     7759.549     6901.357     3332.402        5.284        0.900      291.586       32.987        0.013      348.292       27.877      861.116
08/09/2014  17:56:00      159.746       75.512       44.448       97.103       74.443       51.381     9429.011     5541.768     2640.025        2.540        0.881      176.695       41.773        0.056      348.182       27.687      861.125
08/09/2014  17:57:00      175.063       49.082       13.825      128.562       86.280       62.249    16528.287     7444.276     3874.941        3.054        1.392      181.814       36.646        0.041      348.176       27.678      861.136
08/09/2014  17:58:00      167.852       83.741       19.992       89.845       56.273       39.094     8072.135     3166.672     1528.363        2.417        0.638      187.581       29.627        0.025      347.990       27.357      861.167
08/09/2014  17:59:00      141.116       94.089       49.728       62.068       65.330       57.603     3852.496     4268.006     3318.092        2.134        0.572      169.607       40.326        0.057      347.907       27.216      861.180
08/09/2014  18:00:00      197.187      111.639       72.901       97.618       74.924       64.596     9529.204     5613.650     4172.707        3.798        0.966      226.596       49.875        0.048      347.963       27.310      861.191
08/09/2014  18:01:00      165.031       57.887       32.136       93.640       71.143       50.659     8768.506     5061.272     2566.307        2.400        0.820      174.889       24.257        0.019      347.841       27.102      861.203
08/09/2014  18:02:00      180.129      106.016       66.224      114.129       80.146       71.703    13025.370     6423.402     5141.360        3.633        1.230      209.012       51.182        0.060      347.993       27.362      861.196
08/09/2014  18:03:00      143.428       83.261       67.619      106.398       68.021       61.749    11320.640     4626.853     3812.899        2.591        0.988      165.843       57.300        0.119      347.831       27.083      861.216
08/09/2014  18:04:00       89.366       28.900       53.673       56.462       55.663       45.730     3187.975     3098.386     2091.202        1.004        0.419       93.923       32.403        0.119      347.705       26.867      861.221
08/09/2014  18:05:00      116.501       58.429       38.012       91.854       59.064       40.730     8437.140     3488.590     1658.927        1.601        0.679      130.332       23.829        0.033      347.681       26.825      861.235
08/09/2014  18:06:00      161.200       72.001       40.780      107.489       63.177       54.773    11553.873     3991.361     3000.132        2.569        0.927      176.549       47.102        0.071      347.881       27.169      861.259
08/09/2014  18:07:00      107.146       65.034       46.815       77.930       60.332       53.497     6073.027     3639.975     2861.960        1.524        0.629      125.338       28.666        0.052      347.713       26.882      861.282
08/09/2014  18:08:00      189.524      102.857       55.687      103.701       83.095       63.300    10753.799     6904.727     4006.882        3.563        1.083      215.636       49.785        0.053      348.041       27.445      861.296
08/09/2014  18:09:00       49.435       36.407       47.786       49.794       36.864       32.150     2479.415     1358.966     1033.622        0.546        0.244       61.395       26.292        0.183      347.877       27.165      861.333
08/09/2014  18:10:00       56.161       46.535       20.551       31.812       28.208       22.324     1012.026      795.669      498.345        0.402        0.115       72.935        9.886        0.018      347.773       26.984      861.376
08/09/2014  18:11:00       89.080       55.660       23.895       21.565       19.496       20.788      465.070      380.098      432.154        0.644        0.064      105.040        5.630        0.003      347.851       27.119      861.410
08/09/2014  18:12:00       42.385       34.520       22.587       31.234       39.387       21.498      975.563     1551.356      462.183        0.324        0.149       54.663       20.188        0.136      348.021       27.412      861.429
08/09/2014  18:13:00       37.345       40.967       34.852       28.794       21.448       18.348      829.072      460.037      336.663        0.296        0.081       55.434       14.303        0.067      348.042       27.449      861.458
08/09/2014  18:14:00      -11.502       76.785      -11.194       25.275       28.878       14.406      638.810      833.933      207.532        0.392        0.084       77.642       14.122        0.033      347.911       27.223      861.503
08/09/2014  18:15:00       -9.951       89.564      -18.246       27.789       17.788       10.055      772.207      316.425      101.107        0.482        0.059       90.115        7.716        0.007      348.008       27.391      861.556
08/09/2014  18:16:00      -15.986      106.066      -11.846       24.568       20.094       12.947      603.593      403.781      167.624        0.641        0.059      107.264       11.014        0.011      348.057       27.475      861.607
08/09/2014  18:17:00       39.376       91.477       -3.694       37.504       31.371       19.688     1406.523      984.134      387.603        0.635        0.139       99.592       23.865        0.057      348.056       27.473      861.660
08/09/2014  18:18:00       95.047       44.434       29.004       58.311       49.807       41.732     3400.124     2480.688     1741.527        0.973        0.381      104.921       36.251        0.119      347.731       26.913      861.681
08/09/2014  18:19:00       26.014      219.736       -4.121       92.218      111.362       67.681     8504.219    12401.569     4580.765        3.723        1.274      221.271       72.391        0.107      348.008       27.388      861.740
08/09/2014  18:20:00     -108.264      365.487      -37.527      132.543      176.973       69.739    17567.612    31319.351     4863.493       10.022        2.688      381.185       77.310        0.041      348.063       27.482      861.773
08/09/2014  18:21:00      -51.166      467.528      -38.721      108.775      352.191       96.496    11832.065   124038.777     9311.552       18.391        7.259      470.319      144.817        0.095      347.948       27.284      861.776
08/09/2014  18:22:00     -186.744      519.685      -70.739      159.919      219.016       91.221    25574.063    47968.057     8321.223       19.589        4.093      552.219       97.912        0.031      347.890       27.184      861.809
08/09/2014  18:23:00     -322.876      565.499      -77.201      179.658      234.070      115.183    32276.990    54788.721    13267.162       26.515        5.017      651.182      119.947        0.034      347.947       27.283      861.905
08/09/2014  18:24:00     -241.702      531.858      -77.605      156.310      164.357       87.875    24432.881    27013.114     7722.059       20.323        2.958      584.203       94.677        0.026      347.988       27.353      861.959
08/09/2014  18:25:00      -37.353      513.659      -69.787      120.582      123.943       67.695    14540.043    15361.978     4582.636       15.229        1.724      515.015       57.376        0.012      347.874       27.156      862.039
08/09/2014  18:26:00      -45.794      255.155      -19.488       89.027      134.670       65.922     7925.792    18136.034     4345.656        4.899        1.520      259.232       62.224        0.058      347.717       26.886      862.160
08/09/2014  18:27:00      159.369      101.579       23.848      125.853       86.751       61.389    15838.874     7525.751     3768.656        3.170        1.357      188.989       44.003        0.054      347.847       27.111      862.318
08/09/2014  18:28:00       59.696      -31.822       22.365       79.586      142.122       83.652     6333.948    20198.590     6997.657        1.930        1.677       67.648       63.023        0.868      347.394       26.331      862.340
08/09/2014  18:29:00        3.028       42.868      114.245       54.120      129.637       76.565     2928.958    16805.647     5862.168        2.024        1.280       42.975       78.299        3.320      346.959       25.580      862.375
08/09/2014  18:30:00       45.346      140.749      171.725      104.718      110.635       88.604    10965.814    12240.191     7850.726        4.120        1.553      147.874       83.727        0.321      346.932       25.533      862.460
08/09/2014  18:31:00       63.502       10.867       23.568       69.939      123.144       48.050     4891.454    15164.530     2308.842        1.353        1.118       64.425       49.035        0.579      347.320       26.203      862.497
08/09/2014  18:32:00      159.109      103.817       87.552      104.238       68.634       60.986    10865.639     4710.597     3719.252        3.152        0.965      189.983       39.751        0.044      346.805       25.314      862.511
08/09/2014  18:33:00      110.316      195.286      187.034      120.391      112.573      100.479    14494.075    12672.727    10095.975        6.127        1.863      224.290      105.409        0.221      347.241       26.065      862.502
08/09/2014  18:34:00       96.210       13.253       93.820      125.995      176.819      111.646    15874.626    31265.110    12464.930        3.891        2.980       97.119      124.345        1.639      347.456       26.436      862.513
08/09/2014  18:35:00      152.540     -190.263      -22.760       99.575      101.901       58.548     9915.225    10383.780     3427.884        4.185        1.186      243.861       63.079        0.067      347.489       26.492      862.498
08/09/2014  18:36:00      157.376     -183.130        9.334      146.903      123.911      100.156    21580.590    15353.899    10031.226        5.267        2.348      241.462       86.498        0.128      346.861       25.409      862.480
08/09/2014  18:37:00      151.181     -213.388      -22.596       87.747       95.838       64.731     7699.514     9184.936     4190.069        4.498        1.054      261.514       58.222        0.050      346.700       25.132      862.490
08/09/2014  18:38:00      148.355     -339.688      -15.098      131.708      156.742       85.198    17347.026    24567.964     7258.641        9.339        2.459      370.671       79.403        0.046      346.483       24.759      862.472
08/09/2014  18:39:00      110.543     -127.589       36.871      131.488      162.531      111.229    17289.143    26416.356    12371.921        4.296        2.804      168.816      120.852        0.512      346.141       24.172      862.548
08/09/2014  18:40:00      127.370     -279.294       -7.362      114.422      109.712       68.809    13092.301    12036.722     4734.710        6.207        1.493      306.966       56.786        0.034      346.619       24.992      862.631
08/09/2014  18:41:00      141.436     -206.493       24.353      112.977      117.812       87.737    12763.753    13879.571     7697.831        4.878        1.717      250.287       83.535        0.111      346.484       24.762      862.702
08/09/2014  18:42:00       78.708        5.195      103.260       97.370      127.107       91.026     9480.886    16156.240     8285.724        2.540        1.696       78.879       89.777        1.295      346.177       24.235      862.756
08/09/2014  18:43:00      140.695     -154.817       54.617      139.698      242.909      134.480    19515.559    59004.972    18084.908        7.166        4.830      209.198      177.254        0.718      346.001       23.931      862.806
08/09/2014  18:44:00      192.828     -288.133      -18.888      182.942      137.204      101.366    33467.788    18824.967    10274.984        9.155        3.128      346.704       78.468        0.051      345.890       23.740      862.887
08/09/2014  18:45:00      215.848     -104.546       68.689      187.272      189.807      103.679    35070.804    36026.662    10749.346        7.203        4.092      239.833      127.865        0.284      346.297       24.440      862.941
08/09/2014  18:46:00      262.810     -225.934      -12.504      135.550      174.460       87.395    18373.680    30436.393     7637.821        8.835        2.822      346.576      107.114        0.096      346.238       24.338      862.995
08/09/2014  18:47:00      125.293       65.915      131.433      129.627      124.278       99.711    16803.154    15445.052     9942.277        3.975        2.110      141.574      103.934        0.539      345.752       23.503      863.078
08/09/2014  18:48:00       92.256       18.835      125.093      126.230      172.486      113.129    15933.945    29751.524    12798.128        4.149        2.924       94.159      120.606        1.641      345.580       23.209      863.141
08/09/2014  18:49:00       96.370       30.328      131.385      119.383      190.766      124.254    14252.193    36391.626    15439.021        4.676        3.304      101.029      141.727        1.968      345.573       23.197      863.240
08/09/2014  18:50:00      105.671       11.566      117.879      107.940      158.080       90.932    11651.000    24989.442     8268.653        3.504        2.245      106.302      104.557        0.967      345.590       23.226      863.340
08/09/2014  18:51:00      221.115     -161.215       10.482      130.737      146.123       94.010    17092.167    21351.842     8837.837        6.113        2.364      273.646       97.535        0.127      345.692       23.403      863.482
08/09/2014  18:52:00      208.765      -10.656      157.090      185.744      309.420      186.982    34500.858    95740.459    34962.147       11.676        8.260      209.036      230.230        1.213      345.440       22.968      863.583
08/09/2014  18:53:00      156.195     -299.436        0.647      153.173      138.527       93.869    23461.889    19189.772     8811.372        8.275        2.573      337.726       92.618        0.075      345.043       22.289      863.789
08/09/2014  18:54:00       94.497     -120.492       40.804      125.740      129.735       78.336    15810.552    16831.287     6136.515        3.194        1.939      153.128       72.758        0.226      344.772       21.826      863.888
08/09/2014  18:55:00      153.603     -232.467       24.274      160.936      166.824      114.536    25900.516    27830.253    13118.506        7.252        3.342      278.630      115.643        0.172      344.619       21.562      863.945
08/09/2014  18:56:00      146.372     -208.703       17.957      145.784      189.326      120.116    21253.069    35844.470    14427.770        6.840        3.576      254.915      140.884        0.305      344.668       21.647      864.033
08/09/2014  18:57:00       65.991      -95.484       28.329       76.178      102.159       71.350     5803.077    10436.496     5090.755        1.780        1.067      116.069       64.349        0.307      344.454       21.284      864.133
08/09/2014  18:58:00      198.219     -280.225       16.461      123.812      179.463       89.766    15329.392    32207.056     8057.971        8.683        2.780      343.245       84.496        0.061      344.857       21.971      864.195
08/09/2014  18:59:00       87.460     -212.293        7.961      125.741      134.107       63.670    15810.862    17984.818     4053.916        4.531        1.892      229.603       54.436        0.056      345.059       22.317      864.252
08/09/2014  19:00:00      116.511     -224.257      -12.358       82.644       91.453       57.441     6830.066     8363.686     3299.414        4.125        0.925      252.717       45.971        0.033      344.780       21.839      864.322
08/09/2014  19:01:00       46.994     -171.605      -24.151       85.394       67.097       49.154     7292.068     4502.035     2416.071        2.322        0.711      177.924       33.255        0.035      344.600       21.533      864.346
08/09/2014  19:02:00       34.311     -115.176        7.191       72.318       56.144       38.213     5229.840     3152.151     1460.247        1.217        0.492      120.178       22.578        0.035      344.467       21.306      864.366
08/09/2014  19:03:00       18.860     -104.996        8.049       76.820       66.405       37.629     5901.361     4409.559     1415.936        1.158        0.586      106.676       26.218        0.060      344.509       21.380      864.391
08/09/2014  19:04:00       20.520     -136.440        6.492       69.028       82.785       40.469     4764.842     6853.376     1637.745        1.616        0.663      137.974       29.244        0.045      344.492       21.349      864.461
08/09/2014  19:05:00      -58.787     -101.720        0.321       45.413       38.605       27.981     2062.304     1490.325      782.929        0.907        0.217      117.485       18.049        0.024      344.624       21.575      864.505
08/09/2014  19:06:00      -66.466      -48.584        6.715       52.111       41.500       28.524     2715.592     1722.242      813.616        0.604        0.263       82.329       26.386        0.103      344.543       21.436      864.557
08/09/2014  19:07:00      -99.097      -44.954       -3.965       26.950       30.849       17.626      726.318      951.663      310.691        0.692        0.099      108.817       14.874        0.019      344.627       21.580      864.596
08/09/2014  19:08:00     -101.492      -43.087       -7.517       33.860       27.631       15.671     1146.470      763.476      245.594        0.718        0.108      110.260       12.389        0.013      344.495       21.354      864.619
08/09/2014  19:09:00     -103.975        2.694       -6.177       64.721       43.116       20.600     4188.824     1859.016      424.367        0.866        0.324      104.010       30.394        0.085      344.383       21.162      864.647
08/09/2014  19:10:00     -124.014       54.145       -8.048       54.160       28.900       29.089     2933.254      835.191      846.165        1.149        0.231      135.319       25.944        0.037      344.150       20.763      864.630
08/09/2014  19:11:00     -144.194       68.264      -10.324       62.025       32.841       30.439     3847.050     1078.520      926.532        1.570        0.293      159.537       28.823        0.033      344.084       20.651      864.626
08/09/2014  19:12:00     -110.494       57.188       -7.875       39.525       30.755       25.264     1562.260      945.856      638.287        0.934        0.157      124.416       17.613        0.020      344.120       20.714      864.628
08/09/2014  19:13:00     -100.029       26.286       -0.145       39.111       34.490       22.823     1529.707     1189.561      520.870        0.697        0.162      103.425       17.993        0.030      344.066       20.620      864.621
08/09/2014  19:14:00      -89.165       13.394      -11.128       35.890       26.207       17.233     1288.089      686.805      296.976        0.526        0.114       90.165       13.470        0.022      344.317       21.050      864.619
08/09/2014  19:15:00      -10.649       34.960        8.056       27.439       25.127       16.464      752.883      631.350      271.060        0.153        0.083       36.546       11.861        0.105      344.250       20.933      864.615
08/09/2014  19:16:00       49.517       48.233       -2.136       19.797       25.328       16.953      391.923      641.488      287.406        0.305        0.066       69.125       16.622        0.058      343.970       20.457      864.627
08/09/2014  19:17:00       38.173       41.596       -1.994       24.921       31.444       21.165      621.055      988.726      447.976        0.262        0.103       56.457       20.446        0.131      344.017       20.538      864.636
08/09/2014  19:18:00        2.693       53.272       -3.189       20.184       46.513       16.764      407.406     2163.414      281.018        0.285        0.143       53.340       21.461        0.162      344.196       20.843      864.621
08/09/2014  19:19:00       20.989       54.042       -6.329       27.802       39.850       14.973      772.930     1587.985      224.196        0.299        0.129       57.975       11.412        0.039      344.376       21.150      864.600
08/09/2014  19:20:00       13.640       15.004       14.039       20.555       11.987       20.045      422.501      143.690      401.822        0.079        0.048       20.277       15.925        0.617      344.112       20.700      864.594
08/09/2014  19:21:00       -3.941       11.272       35.108       17.516       33.578       15.054      306.793     1127.479      226.623        0.152        0.083       11.941       13.665        1.310      344.054       20.601      864.603
08/09/2014  19:22:00       12.957      -20.813       25.088       26.626       63.320       29.907      708.920     4009.471      894.434        0.342        0.281       24.517       34.556        1.987      344.176       20.809      864.620
08/09/2014  19:23:00       15.942       24.291       70.947       38.260       60.573       35.916     1463.811     3669.064     1289.925        0.615        0.321       29.055       35.638        1.504      344.345       21.098      864.647
08/09/2014  19:24:00       78.617      -29.061       44.078       70.187       87.419       47.100     4926.158     7642.089     2218.425        1.187        0.739       83.817       56.836        0.460      344.530       21.413      864.670
08/09/2014  19:25:00      106.973     -118.398       -8.198       48.417       52.932       34.125     2344.203     2801.757     1164.519        1.592        0.316      159.567       32.047        0.040      344.711       21.722      864.671
08/09/2014  19:26:00      134.384     -134.420       -1.723       61.755       94.496       40.600     3813.631     8929.411     1648.378        2.526        0.720      190.073       54.763        0.083      345.077       22.347      864.661
08/09/2014  19:27:00      113.597      -96.466       10.237       69.039       78.060       47.274     4766.377     6093.406     2234.851        1.770        0.655      149.030       53.459        0.129      345.006       22.227      864.666
08/09/2014  19:28:00       61.891       -4.348       66.469       52.206       63.709       38.115     2725.451     4058.838     1452.735        0.825        0.412       62.043       35.441        0.326      344.817       21.906      864.678
08/09/2014  19:29:00       16.631       86.728      101.270       43.196       54.177       34.580     1865.933     2935.135     1195.793        1.202        0.300       88.308       33.925        0.148      344.739       21.770      864.678
08/09/2014  19:30:00       26.379       82.756       96.798       50.793       45.133       26.007     2579.915     2036.957      676.343        1.110        0.265       86.858       26.765        0.095      344.572       21.485      864.697
08/09/2014  19:31:00      138.540       99.754       64.365       54.335       39.013       43.960     2952.269     1522.045     1932.525        1.985        0.320      170.717       26.328        0.024      344.212       20.870      864.687
08/09/2014  19:32:00      115.892       54.967       48.276       66.448       70.413       57.086     4415.327     4957.927     3258.770        1.570        0.632      128.266       38.313        0.089      344.111       20.696      864.663
08/09/2014  19:33:00      172.873       96.663       43.742       64.707       50.138       48.224     4186.937     2513.800     2325.588        2.508        0.451      198.063       33.966        0.029      344.166       20.790      864.645
08/09/2014  19:34:00      201.610      116.610       40.800       84.431       47.680       52.831     7128.603     2273.430     2791.106        3.405        0.610      232.904       47.420        0.041      344.192       20.833      864.639
08/09/2014  19:35:00      141.460       96.268       66.814       94.278       59.165       41.353     8888.261     3500.480     1710.080        2.392        0.705      171.109       30.496        0.032      344.315       21.047      864.662
08/09/2014  19:36:00       39.728       62.386       69.138       48.385       40.733       40.912     2341.152     1659.149     1673.832        0.796        0.284       73.962       35.812        0.234      344.266       20.962      864.638
08/09/2014  19:37:00       36.528       38.592       53.044       44.996       39.184       30.077     2024.597     1535.419      904.643        0.505        0.223       53.138       23.757        0.200      344.440       21.260      864.604
08/09/2014  19:38:00        4.967       22.630       64.009       32.066       46.591       33.723     1028.248     2170.715     1137.274        0.448        0.217       23.169       30.999        1.790      344.562       21.469      864.563
08/09/2014  19:39:00       69.656      -30.306       49.472       54.114       51.857       37.266     2928.320     2689.128     1388.756        0.761        0.350       75.963       24.651        0.105      344.674       21.661      864.522
08/09/2014  19:40:00       44.816       -3.437       40.121       51.510       69.489       47.675     2653.234     4828.694     2272.878        0.669        0.488       44.947       52.794        1.380      344.740       21.772      864.475
08/09/2014  19:41:00       51.824      -24.814       37.755       52.609       61.574       41.360     2767.742     3791.378     1710.668        0.650        0.413       57.458       39.786        0.479      344.733       21.760      864.440
08/09/2014  19:42:00       41.894       30.597       69.743       65.807       62.452       43.322     4330.626     3900.200     1876.837        0.883        0.505       51.878       43.800        0.713      344.727       21.750      864.420
08/09/2014  19:43:00       98.529       14.862       76.488       99.360       74.949       60.770     9872.348     5617.331     3692.956        1.748        0.959       99.643       62.434        0.393      344.824       21.916      864.404
08/09/2014  19:44:00       79.691      -27.134       57.014       74.181       74.767       54.074     5502.867     5590.167     2924.028        1.217        0.701       84.184       51.981        0.381      344.886       22.023      864.363
08/09/2014  19:45:00       38.821      -20.509       74.390       59.238      105.378       69.710     3509.161    11104.541     4859.546        1.346        0.974       43.905       75.256        2.938      344.900       22.047      864.376
08/09/2014  19:46:00      177.368     -203.262       13.837      127.515      134.781       76.088    16260.197    18165.854     5789.456        5.658        2.011      269.768       90.261        0.112      344.953       22.135      864.367
08/09/2014  19:47:00      214.276     -171.051       27.780      168.788      226.309      103.327    28489.509    51215.973    10676.383        8.315        4.519      274.176      143.569        0.274      344.922       22.081      864.348
08/09/2014  19:48:00      211.382     -173.108       56.178      191.868      283.032      145.569    36813.314    80106.947    21190.258       10.793        6.906      273.219      181.211        0.440      344.900       22.044      864.297
08/09/2014  19:49:00      187.628      -87.152       60.930      175.381      171.128      107.994    30758.620    29284.846    11662.705        5.909        3.585      206.881      119.357        0.333      344.819       21.906      864.272
08/09/2014  19:50:00      184.853       42.747      127.539      194.297      153.515      110.176    37751.166    23566.797    12138.818        6.285        3.673      189.731      124.645        0.432      344.815       21.898      864.214
08/09/2014  19:51:00      196.428      117.026      163.634      177.722      183.966      106.060    31585.170    33843.406    11248.700        7.785        3.834      228.647      107.868        0.223      344.760       21.802      864.171
08/09/2014  19:52:00      113.621      125.339      207.338      124.718      228.411      140.891    15554.692    52171.682    19850.319        7.958        4.379      169.173      157.233        0.864      344.832       21.927      864.129
08/09/2014  19:53:00      196.988      223.368      196.939      141.817      111.436       87.375    20112.054    12417.914     7634.405        8.382        2.008      297.822       68.963        0.054      344.748       21.783      864.081
08/09/2014  19:54:00      141.275      129.610      180.157      150.233      155.619      103.865    22569.889    24217.383    10788.032        6.338        2.879      191.722      117.952        0.378      344.723       21.740      864.016
08/09/2014  19:55:00      108.087       40.996      113.780      124.576      116.659       87.518    15519.128    13609.296     7659.419        3.154        1.839      115.600       78.845        0.465      344.635       21.591      863.934
08/09/2014  19:56:00      291.584      -74.869      129.211      261.155      259.875      149.714    68201.939    67535.119    22414.262       13.270        7.908      301.042      177.499        0.348      344.708       21.715      863.811
08/09/2014  19:57:00      230.069      -89.079      187.992      247.844      402.676      190.277    61426.796   162148.353    36205.501       17.794       12.989      246.712      259.906        1.110      344.833       21.928      863.706
08/09/2014  19:58:00      580.809     -588.541      -34.043      296.538      335.311      158.507    87934.911   112433.668    25124.589       45.514       11.275      826.874      197.347        0.057      345.260       22.660      863.629
08/09/2014  19:59:00      259.409       62.943      167.729      252.743      290.588      178.213    63879.266    84441.598    31759.818       13.970        9.004      266.936      188.346        0.498      346.076       24.061      864.007
08/09/2014  20:00:00      363.602      190.128      114.083      181.807      128.367      111.560    33053.717    16478.077    12445.622       12.166        3.099      410.311       88.998        0.047      346.073       24.054      863.875
08/09/2014  20:01:00      220.642      123.363      127.301      167.796      131.984      128.836    28155.452    17419.827    16598.647        7.113        3.109      252.787      113.389        0.201      345.612       23.263      863.866
08/09/2014  20:02:00      149.719      111.363      121.253      138.418      105.474       96.969    19159.536    11124.783     9402.963        4.460        1.984      186.594       87.224        0.219      345.028       22.264      863.917
08/09/2014  20:03:00      145.237       16.356       62.030      132.802      147.824       75.566    17636.500    21852.015     5710.149        3.519        2.260      146.155       57.112        0.153      344.855       21.969      864.018
08/09/2014  20:04:00       18.195      -82.968       13.284      113.085      102.613       56.913    12788.290    10529.427     3239.070        1.697        1.328       84.940       56.294        0.439      344.683       21.675      864.119
08/09/2014  20:05:00     -145.742      -61.142        0.407       90.196       64.667       45.905     8135.346     4181.860     2107.266        1.970        0.721      158.048       34.658        0.048      344.591       21.516      864.200
08/09/2014  20:06:00     -172.432      -60.545       -4.436       83.920       56.142       34.620     7042.556     3151.882     1198.535        2.240        0.570      182.752       37.203        0.041      344.663       21.638      864.233
08/09/2014  20:07:00     -167.531      -52.405      -17.769       77.955       50.109       39.462     6076.982     2510.871     1557.211        2.063        0.507      175.536       36.771        0.044      344.798       21.870      864.281
08/09/2014  20:08:00      -64.741     -135.423        6.184       68.685       88.379       49.599     4717.684     7810.931     2460.026        1.878        0.749      150.103       50.354        0.113      344.765       21.814      864.289
08/09/2014  20:09:00      -96.210      -38.119      -10.058       91.472       41.048       29.019     8367.128     1684.904      842.093        1.085        0.545      103.486       39.954        0.149      344.773       21.829      864.313
08/09/2014  20:10:00      -12.329        3.950        8.202       66.019       31.025       38.879     4358.478      962.570     1511.576        0.353        0.342       12.946       38.397        8.797      344.749       21.789      864.314
08/09/2014  20:11:00       68.385       46.136       41.776       46.950       43.076       37.116     2204.303     1855.554     1377.611        0.699        0.272       82.493       24.114        0.085      344.835       21.935      864.307
08/09/2014  20:12:00       49.523       24.075       13.108       48.886       29.338       24.296     2389.885      860.726      590.291        0.352        0.192       55.065       22.644        0.169      344.829       21.925      864.315
08/09/2014  20:13:00       28.639      121.063      -18.555       47.347       29.364       25.874     2241.764      862.232      669.477        0.980        0.189      124.404       21.791        0.031      344.831       21.928      864.304
08/09/2014  20:14:00      -59.028       21.850       -6.285       26.377       39.019       17.335      695.752     1522.466      300.507        0.326        0.126       62.942       19.906        0.100      344.762       21.809      864.306
08/09/2014  20:15:00      -36.098      -42.399       -7.601       33.585       13.828       17.175     1127.964      191.207      294.972        0.239        0.081       55.685       15.648        0.079      344.811       21.893      864.313
08/09/2014  20:16:00      -14.089       53.825      -25.000       56.102       54.169       23.214     3147.401     2934.234      538.906        0.517        0.331       55.639       24.256        0.190      344.768       21.820      864.325
08/09/2014  20:17:00        5.782       52.179       -0.252       28.884       31.879       18.495      834.258     1016.239      342.051        0.247        0.110       52.498       18.802        0.128      344.602       21.538      864.327
08/09/2014  20:18:00      -30.379       15.124       -2.239       29.178       31.060       17.974      851.370      964.739      323.068        0.165        0.107       33.936       16.388        0.233      344.655       21.627      864.344
08/09/2014  20:19:00       19.292       20.655        9.380       32.924       44.056       13.028     1083.989     1940.960      169.722        0.204        0.160       28.263       14.256        0.254      344.635       21.594      864.389
08/09/2014  20:20:00       73.974       90.545        1.617       45.974       51.247       34.167     2113.603     2626.240     1167.413        0.979        0.295      116.921       28.829        0.061      344.638       21.600      864.415
08/09/2014  20:21:00       65.568       94.998      -12.952       62.509       37.320       23.424     3907.395     1392.804      548.662        0.967        0.292      115.429       20.917        0.033      344.655       21.626      864.412
08/09/2014  20:22:00      -88.378       52.496      -12.250       44.621       28.331       23.748     1991.047      802.659      563.979        0.704        0.168      102.794       16.879        0.027      344.547       21.443      864.394
08/09/2014  20:23:00      -42.393       26.421       10.081       63.198       27.285       25.015     3994.019      744.458      625.753        0.398        0.268       49.952       35.202        0.497      344.447       21.271      864.396
08/09/2014  20:24:00      -91.408      110.254      -21.086       45.617       77.476       23.255     2080.900     6002.467      540.775        1.479        0.431      143.218       27.386        0.037      344.733       21.762      864.428
08/09/2014  20:25:00      -44.408       39.816      -10.387       25.842       50.620       23.597      667.819     2562.350      556.799        0.373        0.189       59.643       24.187        0.164      344.805       21.884      864.482
08/09/2014  20:26:00      -11.874       13.400       -1.650       32.160       35.047       30.297     1034.293     1228.301      917.926        0.175        0.159       17.904       14.663        0.671      344.677       21.663      864.523
08/09/2014  20:27:00       28.119       46.748        9.761       32.866       37.252       15.348     1080.150     1387.678      235.558        0.289        0.135       54.553       13.082        0.058      344.552       21.453      864.541
08/09/2014  20:28:00      -10.635        3.881        2.590       28.334       18.415       18.679      802.806      339.119      348.890        0.081        0.075       11.320       13.674        1.459      344.602       21.538      864.558
08/09/2014  20:29:00      -92.261      -68.543        6.794       62.375       50.130       30.216     3890.662     2512.984      913.035        1.029        0.366      114.935       34.376        0.089      344.646       21.611      864.559
08/09/2014  20:30:00     -143.099      -97.538        5.279       73.491       78.234       47.321     5400.912     6120.513     2239.297        2.189        0.688      173.179       43.999        0.065      344.545       21.438      864.563
08/09/2014  20:31:00     -213.954      -79.545       -8.720       79.855       87.816       40.707     6376.892     7711.729     1657.080        3.396        0.787      228.263       34.022        0.022      344.402       21.192      864.573
08/09/2014  20:32:00     -185.118      -51.495       -0.771       83.017       70.450       41.956     6891.812     4963.232     1760.342        2.527        0.681      192.147       45.927        0.057      344.309       21.034      864.553
08/09/2014  20:33:00     -182.692     -117.010       17.503      125.932       90.631       54.487    15858.947     8214.014     2968.872        3.720        1.352      216.951       69.805        0.104      344.327       21.064      864.545
08/09/2014  20:34:00     -208.711      -97.509       -2.460       88.958       81.911       41.747     7913.442     6709.466     1742.827        3.472        0.818      230.366       43.131        0.035      344.333       21.074      864.550
08/09/2014  20:35:00     -162.698      -30.910       -2.021       66.576       57.531       33.903     4432.347     3309.818     1149.388        1.816        0.445      165.608       31.199        0.035      344.413       21.212      864.542
08/09/2014  20:36:00     -186.456      -52.800        7.719       85.604       59.883       39.416     7327.972     3585.963     1553.637        2.504        0.623      193.787       42.266        0.048      344.437       21.252      864.525
08/09/2014  20:37:00     -190.484      -93.786       -4.026       78.873       70.340       37.931     6221.018     4947.682     1438.797        2.885        0.630      212.320       44.635        0.044      344.406       21.198      864.503
08/09/2014  20:38:00     -185.237      -50.537        3.076       60.020       42.972       31.571     3602.403     1846.632      996.706        2.166        0.322      192.007       34.569        0.032      344.346       21.097      864.507
08/09/2014  20:39:00     -140.188      -21.433       -7.898       41.668       48.727       27.472     1736.261     2374.298      754.704        1.252        0.243      141.817       22.235        0.025      344.325       21.065      864.498
08/09/2014  20:40:00     -132.382      -26.021        9.740       73.119       54.517       37.176     5346.355     2972.067     1382.050        1.400        0.485      134.915       34.565        0.066      344.299       21.018      864.490
08/09/2014  20:41:00     -162.023      -28.483        5.745       87.732       68.906       42.716     7696.976     4748.023     1824.652        2.068        0.713      164.507       46.889        0.081      344.439       21.257      864.497
08/09/2014  20:42:00     -181.588      -13.200      -14.724       95.447       66.048       43.328     9110.063     4362.387     1877.343        2.435        0.767      182.067       52.358        0.083      344.521       21.395      864.524
08/09/2014  20:43:00     -220.979      -42.268      -15.421       56.432       61.502       34.999     3184.597     3782.516     1224.900        2.952        0.410      224.985       32.514        0.021      344.560       21.462      864.541
08/09/2014  20:44:00     -202.691      -77.422       -7.077       76.924       67.223       32.857     5917.291     4518.879     1079.597        2.932        0.576      216.974       31.978        0.022      344.555       21.454      864.533
08/09/2014  20:45:00     -166.669      -15.276        6.062       82.014       59.593       46.533     6726.320     3551.296     2165.296        2.024        0.622      167.368       51.704        0.095      344.584       21.504      864.568
08/09/2014  20:46:00     -100.336       -2.178        8.968       67.027       56.699       38.744     4492.638     3214.740     1501.075        0.968        0.460      100.359       34.742        0.120      344.723       21.743      864.611
08/09/2014  20:47:00     -138.698      -37.530       -2.930       58.615       47.922       28.520     3435.686     2296.523      813.368        1.360        0.327      143.686       33.117        0.053      344.731       21.758      864.632
08/09/2014  20:48:00     -198.194      -68.217       -0.835       49.885       37.160       24.374     2488.501     1380.889      594.083        2.420        0.223      209.606       23.403        0.012      344.719       21.733      864.621
08/09/2014  20:49:00     -175.468     -105.370        1.339       55.797       35.491       27.542     3113.252     1259.613      758.573        2.351        0.257      204.675       25.568        0.016      344.700       21.700      864.599
08/09/2014  20:50:00     -143.277      -41.511       -8.930       51.636       43.521       19.896     2666.327     1894.055      395.866        1.364        0.248      149.170       21.452        0.021      344.640       21.603      864.592
08/09/2014  20:51:00     -118.845        1.154        1.704       55.191       41.650       23.989     3046.017     1734.702      575.483        0.974        0.268      118.851       26.922        0.051      344.602       21.538      864.597
08/09/2014  20:52:00     -117.599       -5.541       -1.498       49.880       32.425       25.014     2488.053     1051.396      625.683        0.901        0.208      117.730       24.627        0.044      344.569       21.481      864.588
08/09/2014  20:53:00      -83.313       -3.853        1.019       33.824       27.315       22.620     1144.041      746.102      511.665        0.468        0.120       83.402       20.361        0.060      344.554       21.455      864.612
08/09/2014  20:54:00     -107.799      -28.710        2.518       55.051       31.656       18.695     3030.580     1002.132      349.510        0.842        0.219      111.557       19.293        0.030      344.603       21.539      864.646
08/09/2014  20:55:00     -168.650      -57.192       -1.427       44.264       32.649       24.244     1959.296     1065.975      587.770        1.766        0.181      178.083       22.564        0.016      344.761       21.808      864.677
08/09/2014  20:56:00     -130.183      -36.924        6.680       52.285       41.466       27.957     2733.760     1719.405      781.592        1.179        0.262      135.318       23.274        0.030      344.774       21.832      864.693
08/09/2014  20:57:00      -84.217      -84.922        4.680       48.625       42.448       31.949     2364.411     1801.811     1020.754        0.976        0.259      119.601       26.427        0.049      344.695       21.695      864.696
08/09/2014  20:58:00     -102.694      -52.390       -7.055       56.948       41.122       32.331     3243.061     1690.987     1045.314        0.966        0.299      115.286       31.385        0.074      344.685       21.679      864.701
08/09/2014  20:59:00     -109.966      -47.818        6.386       87.275       71.051       36.840     7616.950     5048.261     1357.202        1.422        0.701      119.912       48.160        0.161      344.645       21.609      864.711
08/09/2014  21:00:00     -157.158      -77.324        3.647       75.020       50.007       31.752     5627.973     2500.743     1008.175        1.991        0.457      175.150       27.151        0.024      344.687       21.682      864.705
08/09/2014  21:01:00     -133.734     -108.039      -10.296       82.526       70.798       47.317     6810.569     5012.317     2238.886        2.186        0.703      171.922       43.509        0.064      344.644       21.606      864.690
08/09/2014  21:02:00     -187.340      -53.774        7.253      103.710       78.173       51.522    10755.663     6111.081     2654.472        2.878        0.976      194.905       50.182        0.066      344.621       21.567      864.657
08/09/2014  21:03:00     -168.008      -72.914        3.245       75.785       78.195       44.607     5743.429     6114.396     1989.753        2.370        0.692      183.148       34.900        0.036      344.575       21.490      864.630
08/09/2014  21:04:00     -197.008     -162.469       -6.042      124.308       91.429       60.860    15452.401     8359.277     3703.957        4.637        1.376      255.359       71.400        0.078      344.716       21.729      864.611
08/09/2014  21:05:00     -217.344     -114.940        1.607       73.650       76.193       47.259     5424.395     5805.377     2233.369        3.695        0.673      245.865       46.030        0.035      344.815       21.897      864.586
08/09/2014  21:06:00     -257.114     -131.715      -12.530       84.421       60.994       40.362     7126.877     3720.236     1629.062        4.804        0.624      288.888       43.213        0.022      344.833       21.927      864.567
08/09/2014  21:07:00      -92.364      -82.602        2.309       98.646       57.696       39.606     9731.056     3328.815     1568.631        1.499        0.731      123.912       46.320        0.140      344.773       21.828      864.541
08/09/2014  21:08:00     -110.064      -80.495        0.035       70.130       54.550       34.418     4918.253     2975.741     1184.600        1.383        0.454      136.358       37.405        0.075      344.774       21.830      864.506
08/09/2014  21:09:00     -115.939     -123.504       -2.466       81.136       73.414       39.287     6583.038     5389.550     1543.473        2.111        0.676      169.396       48.667        0.083      344.795       21.865      864.481
08/09/2014  21:10:00     -144.717      -95.675        1.774       95.939       91.565       40.360     9204.244     8384.222     1628.932        2.465        0.961      173.484       55.817        0.104      344.874       22.000      864.450
08/09/2014  21:11:00     -114.901      -58.684        0.725       76.558       50.868       32.887     5861.104     2587.509     1081.584        1.309        0.477      129.019       37.094        0.083      344.873       22.000      864.429
08/09/2014  21:12:00      -99.202      -59.473       13.438       58.665       48.640       32.432     3441.625     2365.852     1051.811        1.021        0.343      115.664       29.843        0.067      344.851       21.963      864.414
08/09/2014  21:13:00     -153.652     -122.175        6.382       93.672       67.498       48.810     8774.497     4556.027     2382.440        2.714        0.786      196.305       50.916        0.067      344.937       22.107      864.402
08/09/2014  21:14:00     -166.188     -126.482        9.265      112.186       85.295       58.974    12585.678     7275.224     3477.960        3.352        1.167      208.845       65.519        0.098      344.948       22.125      864.385
08/09/2014  21:15:00     -186.721     -111.466       11.193       86.475       85.740       47.765     7477.860     7351.368     2281.527        3.226        0.856      217.461       47.889        0.048      344.888       22.024      864.387
08/09/2014  21:16:00     -170.343     -106.913        7.762      101.399       75.661       45.742    10281.713     5724.641     2092.349        2.930        0.905      201.115       47.193        0.055      344.838       21.938      864.385
08/09/2014  21:17:00     -201.823     -126.047       -1.933       86.343       79.027       45.797     7455.095     6245.320     2097.371        3.621        0.790      237.950       45.662        0.037      344.788       21.852      864.391
08/09/2014  21:18:00     -155.926      -97.387       12.233      111.923       83.251       47.437    12526.803     6930.787     2250.232        2.782        1.085      183.840       56.642        0.095      344.723       21.741      864.398
08/09/2014  21:19:00     -184.954      -70.704        4.678       78.765       58.170       35.808     6203.903     3383.758     1282.194        2.505        0.543      198.008       28.963        0.021      344.724       21.743      864.396
08/09/2014  21:20:00     -169.566      -98.529        3.555      107.250       68.216       45.998    11502.477     4653.420     2115.785        2.837        0.914      196.114       53.225        0.074      344.739       21.769      864.394
08/09/2014  21:21:00     -127.525     -101.441       -1.113       64.704       72.431       42.994     4186.596     5246.213     1848.489        1.892        0.564      162.950       40.200        0.061      344.744       21.779      864.412
08/09/2014  21:22:00     -189.347     -113.614      -14.529       55.286       59.596       36.106     3056.538     3551.654     1303.617        2.844        0.396      220.817       30.153        0.019      344.767       21.816      864.414
08/09/2014  21:23:00     -165.416      -31.942        2.041       92.108       60.542       46.266     8483.840     3665.338     2140.500        2.134        0.714      168.472       44.898        0.071      344.699       21.700      864.417
08/09/2014  21:24:00     -142.627      -34.629        5.854       86.555       67.352       42.650     7491.801     4536.326     1819.015        1.771        0.692      146.771       46.692        0.101      344.714       21.728      864.424
08/09/2014  21:25:00      -94.845      -33.848        6.244       74.101       53.775       36.190     5490.996     2891.758     1309.731        0.993        0.485      100.704       40.269        0.160      344.676       21.663      864.427
08/09/2014  21:26:00     -108.907      -20.668       17.663       76.426       56.906       42.513     5840.971     3238.300     1807.347        1.174        0.544      110.851       44.122        0.158      344.620       21.568      864.445
08/09/2014  21:27:00      -73.169      -21.987        6.987       57.628       33.796       23.712     3321.014     1142.195      562.282        0.545        0.251       76.402       26.544        0.121      344.632       21.588      864.454
08/09/2014  21:28:00     -104.495      -82.999       -4.840       28.925       29.494       17.921      836.641      869.887      321.167        0.993        0.101      133.447       14.282        0.011      344.692       21.690      864.456
08/09/2014  21:29:00      -99.675     -101.094        2.618       66.059       64.129       32.839     4363.764     4112.528     1078.420        1.486        0.478      141.969       37.121        0.068      344.777       21.837      864.460
08/09/2014  21:30:00      -93.764      -81.080        4.483       50.585       35.507       31.396     2558.832     1260.750      985.690        1.009        0.240      123.958       30.096        0.059      344.819       21.908      864.455
08/09/2014  21:31:00     -152.412      -64.880      -13.530       38.004       51.330       30.532     1444.280     2634.779      932.176        1.632        0.251      165.647       25.339        0.023      344.977       22.179      864.443
08/09/2014  21:32:00     -104.281      -71.196        0.413       53.145       32.181       24.064     2824.349     1035.644      579.064        1.019        0.222      126.267       19.226        0.023      344.878       22.011      864.436
08/09/2014  21:33:00      -79.988      -51.634        4.453       57.772       39.519       19.710     3337.568     1561.776      388.489        0.718        0.264       95.206       24.619        0.067      344.920       22.082      864.429
08/09/2014  21:34:00     -110.684      -18.876        2.879       78.749       37.446       32.464     6201.434     1402.172     1053.884        1.063        0.433      112.282       38.049        0.115      344.849       21.960      864.425
08/09/2014  21:35:00     -140.404      -31.618       -4.227       62.172       26.167       24.491     3865.397      684.688      599.817        1.294        0.257      143.920       26.946        0.035      344.866       21.989      864.432
08/09/2014  21:36:00     -108.662       -5.395       -7.451       34.091       22.643       20.462     1162.197      512.717      418.680        0.699        0.105      108.796       14.719        0.018      344.831       21.928      864.447
08/09/2014  21:37:00      -94.463       -4.998       -1.283       37.528       26.573       19.497     1408.336      706.111      380.141        0.572        0.125       94.595       20.980        0.049      344.823       21.915      864.461
08/09/2014  21:38:00      -79.388       19.047       -8.963       38.316       40.359       18.207     1468.117     1628.871      331.508        0.509        0.171       81.641       17.556        0.046      344.752       21.794      864.466
08/09/2014  21:39:00      -33.902       36.434       -0.822       15.469       27.843       13.057      239.300      775.248      170.483        0.183        0.059       49.768        8.991        0.033      344.737       21.768      864.469
08/09/2014  21:40:00     -113.279      101.006      -25.455       23.679       21.455       15.524      560.691      460.313      240.989        1.247        0.063      151.770       10.547        0.005      344.759       21.804      864.466
08/09/2014  21:41:00     -124.959      101.634      -24.367       28.506       25.019       16.527      812.599      625.955      273.158        1.412        0.086      161.072       10.535        0.004      344.736       21.766      864.446
08/09/2014  21:42:00     -111.267      132.000      -23.691       37.667       30.056       25.316     1418.817      903.373      640.878        1.666        0.148      172.639       16.534        0.009      344.722       21.741      864.442
08/09/2014  21:43:00     -126.377      136.551      -26.762       37.382       35.163       24.416     1397.419     1236.419      596.150        1.928        0.161      186.057       23.850        0.016      344.703       21.709      864.427
08/09/2014  21:44:00      -91.047      140.714      -23.509       32.741       32.601       24.425     1071.963     1062.836      596.579        1.569        0.137      167.601       22.329        0.018      344.670       21.654      864.419
08/09/2014  21:45:00      -70.478      129.192      -18.265       29.432       29.083       19.214      866.231      845.836      369.196        1.204        0.104      147.166       13.077        0.008      344.664       21.642      864.414
08/09/2014  21:46:00     -105.004       73.325      -17.312       42.411       37.586       25.043     1798.732     1412.682      627.130        1.027        0.192      128.072       18.935        0.022      344.718       21.735      864.403
08/09/2014  21:47:00     -116.362      103.118      -26.467       40.857       37.560       23.177     1669.266     1410.717      537.172        1.424        0.181      155.478       17.896        0.013      344.837       21.938      864.400
08/09/2014  21:48:00      -75.150       82.489      -15.457       50.655       29.948       24.749     2565.882      896.870      612.492        0.838        0.204      111.588       22.166        0.039      344.800       21.875      864.393
08/09/2014  21:49:00      -74.152       81.935       -4.451       35.781       39.824       23.624     1280.272     1585.983      558.095        0.783        0.171      110.507       18.099        0.027      344.855       21.970      864.386
08/09/2014  21:50:00      -74.885      109.295      -10.456       44.985       41.985       27.045     2023.684     1762.723      731.417        1.109        0.226      132.488       30.660        0.054      344.911       22.066      864.397
08/09/2014  21:51:00      -27.658       78.567      -10.372       20.389       26.185       16.634      415.731      685.643      276.675        0.421        0.069       83.294       15.979        0.037      344.922       22.085      864.406
08/09/2014  21:52:00      -41.447       39.791       -2.396       37.825       23.744       15.094     1430.720      563.788      227.843        0.276        0.111       57.456        8.932        0.024      344.928       22.094      864.416
08/09/2014  21:53:00        3.595       50.193       -9.576       16.886       15.774        9.083      285.152      248.809       82.509        0.162        0.031       50.322        5.957        0.014      344.910       22.064      864.430
08/09/2014  21:54:00       -8.157       50.010       -4.318       18.283       37.439       15.677      334.279     1401.652      245.760        0.228        0.099       50.671       20.592        0.165      344.899       22.045      864.445
08/09/2014  21:55:00       23.258       23.428      -10.381       15.162       19.919        9.269      229.899      396.783       85.912        0.095        0.036       33.012        8.717        0.070      344.713       21.726      864.455
08/09/2014  21:56:00       67.736       32.026       -6.973       17.779       21.791       16.693      316.102      474.840      278.662        0.337        0.053       74.925       13.537        0.033      344.605       21.543      864.458
08/09/2014  21:57:00       41.729       18.341       12.113       26.958       23.738       18.702      726.751      563.475      349.768        0.193        0.082       45.582       12.864        0.080      344.576       21.493      864.461
08/09/2014  21:58:00       54.618       33.157       11.107       29.951       28.809       19.057      897.047      829.976      363.166        0.315        0.105       63.894       17.639        0.076      344.482       21.334      864.465
08/09/2014  21:59:00       66.393       49.160        3.668       24.678       21.539       19.394      608.987      463.911      376.122        0.414        0.072       82.611       17.075        0.043      344.478       21.323      864.471
08/09/2014  22:00:00       48.198       40.661        8.077       28.011       26.664       17.359      784.606      710.984      301.347        0.292        0.090       63.058        8.818        0.020      344.560       21.466      864.479
08/09/2014  22:01:00       29.385       35.063       -2.171       18.620       22.448       14.915      346.689      503.932      222.472        0.159        0.054       45.748       12.663        0.077      344.672       21.657      864.476
08/09/2014  22:02:00       32.611       79.807      -12.332       16.667       32.564       11.849      277.774     1060.444      140.389        0.453        0.074       86.213       14.140        0.027      344.750       21.790      864.475
08/09/2014  22:03:00       28.618      104.526      -17.886       14.314       11.943        9.471      204.894      142.643       89.707        0.625        0.022      108.372        5.785        0.003      344.828       21.924      864.469
08/09/2014  22:04:00        6.804       94.167      -14.683        9.291       12.131        5.380       86.326      147.162       28.943        0.470        0.013       94.413        3.887        0.002      344.878       22.011      864.458
08/09/2014  22:05:00      -17.443      121.966      -16.451       11.623       13.239        6.734      135.089      175.283       45.349        0.790        0.018      123.207        5.355        0.002      344.929       22.096      864.446
08/09/2014  22:06:00      -42.522      125.159      -20.589       17.620       38.744       13.502      310.455     1501.104      182.307        0.994        0.100      132.185       15.281        0.013      344.921       22.082      864.424
08/09/2014  22:07:00      -49.012      146.312      -17.293       26.466       35.432       20.883      700.424     1255.399      436.080        1.325        0.120      154.303       16.420        0.011      344.936       22.107      864.396
08/09/2014  22:08:00      -60.501      114.493      -17.098       21.343       35.006       19.357      455.519     1225.430      374.688        0.956        0.103      129.495       15.875        0.015      344.864       21.987      864.350
08/09/2014  22:09:00     -105.046       88.476      -26.360       36.953       34.805       23.853     1365.552     1211.375      568.972        1.135        0.157      137.341       17.954        0.017      344.810       21.893      864.305
08/09/2014  22:10:00     -132.368      137.001      -37.872       44.673       47.535       23.995     1995.654     2259.562      575.742        2.128        0.242      190.501       22.245        0.014      344.852       21.963      864.251
08/09/2014  22:11:00     -167.474      143.740      -37.117       50.949       64.225       38.127     2595.797     4124.851     1453.645        2.913        0.409      220.701       38.323        0.030      344.871       21.994      864.210
08/09/2014  22:12:00     -147.359      101.971      -16.749       57.831       49.175       43.408     3344.374     2418.229     1884.272        2.002        0.382      179.200       31.511        0.031      344.864       21.985      864.162
08/09/2014  22:13:00     -194.280      148.271      -38.782       58.500       60.415       38.327     3422.195     3650.019     1468.931        3.489        0.427      244.395       35.765        0.021      344.860       21.975      864.132
08/09/2014  22:14:00     -193.959      175.490      -44.938       48.659       58.398       35.000     2367.695     3410.381     1225.030        3.872        0.350      261.566       31.107        0.014      344.991       22.199      864.108
08/09/2014  22:15:00     -184.939      210.990      -48.553       54.335       71.660       39.588     2952.242     5135.136     1567.177        4.536        0.483      280.570       37.085        0.017      345.047       22.294      864.076
08/09/2014  22:16:00     -157.893      161.073      -38.770       70.475       73.680       43.679     4966.655     5428.777     1907.859        3.234        0.615      225.554       47.714        0.045      345.069       22.333      864.061
08/09/2014  22:17:00     -124.466      120.566      -12.639       57.545       60.098       46.505     3311.419     3611.751     2162.677        1.963        0.454      173.286       38.641        0.050      345.006       22.227      864.050
08/09/2014  22:18:00      -94.476       85.008      -10.648       47.157       41.665       28.701     2223.807     1735.993      823.727        1.052        0.239      127.091       31.965        0.063      345.066       22.331      864.059
08/09/2014  22:19:00      -59.113       54.990      -11.713       33.857       43.598       24.018     1146.302     1900.745      576.872        0.514        0.181       80.736       18.851        0.055      345.142       22.462      864.080
08/09/2014  22:20:00       -3.169       64.924       -2.403       33.381       47.999       29.413     1114.267     2303.950      865.133        0.426        0.214       65.002       30.323        0.218      345.204       22.568      864.096
08/09/2014  22:21:00      -24.721       -8.526        3.500       15.508       14.876       12.198      240.502      221.297      148.796        0.065        0.031       26.150        8.213        0.099      345.105       22.398      864.097
08/09/2014  22:22:00      -49.180       19.653       -3.912       16.448       23.449        9.178      270.544      549.870       84.239        0.186        0.045       52.961        5.965        0.013      345.078       22.352      864.061
08/09/2014  22:23:00     -109.216      -26.428       -5.444       24.091       32.536       13.518      580.397     1058.564      182.723        0.724        0.091      112.368       11.842        0.011      344.960       22.149      864.000
08/09/2014  22:24:00     -139.656       34.255      -18.755       21.883       40.126       17.267      478.871     1610.059      298.145        1.171        0.119      143.796       20.220        0.020      344.881       22.015      863.931
08/09/2014  22:25:00     -141.363       48.870      -20.256       44.462       62.635       26.966     1976.908     3923.121      727.152        1.470        0.331      149.572       29.370        0.039      345.099       22.387      863.859
08/09/2014  22:26:00     -111.631       12.076      -11.622       61.811       49.402       30.445     3820.602     2440.553      926.873        0.996        0.359      112.282       32.574        0.084      345.096       22.383      863.803
08/09/2014  22:27:00      -81.093        8.074      -17.677       33.948       37.087       27.201     1152.462     1375.458      739.899        0.511        0.163       81.494       16.542        0.041      344.969       22.166      863.772
08/09/2014  22:28:00      -25.642      -13.180       -4.992       44.661       40.177       24.038     1994.597     1614.212      577.819        0.252        0.209       28.831       22.708        0.620      344.997       22.213      863.756
08/09/2014  22:29:00       -4.223      -43.985       -5.118       33.870       26.015       20.460     1147.161      676.755      418.609        0.211        0.112       44.187       12.860        0.085      344.969       22.165      863.741
08/09/2014  22:30:00      -21.129        8.625       -1.647       33.198       29.436       24.108     1102.137      866.452      581.194        0.154        0.127       22.822       19.348        0.719      344.923       22.084      863.744
08/09/2014  22:31:00      -30.475       -2.746       -2.557       24.878       29.023       14.737      618.893      842.307      217.185        0.131        0.084       30.599       13.800        0.203      344.924       22.087      863.742
08/09/2014  22:32:00      -29.456       13.062        4.654       24.242       19.421       16.629      587.668      377.158      276.524        0.115        0.062       32.222       12.931        0.161      344.908       22.061      863.741
08/09/2014  22:33:00     -100.971       44.022      -16.422       21.708       31.640       16.003      471.217     1001.084      256.085        0.707        0.086      110.150       18.627        0.029      344.930       22.098      863.723
08/09/2014  22:34:00     -131.985       79.705      -24.370       37.521       41.353       24.871     1407.841     1710.060      618.560        1.405        0.187      154.184       27.562        0.032      345.018       22.248      863.693
08/09/2014  22:35:00     -168.461      104.213      -34.772       41.622       34.784       28.685     1732.357     1209.933      822.833        2.211        0.188      198.090       27.712        0.020      345.181       22.526      863.647
08/09/2014  22:36:00     -171.861       55.745      -14.470       46.287       39.556       25.374     2142.521     1564.638      643.842        1.860        0.218      180.676       14.451        0.006      345.072       22.342      863.594
08/09/2014  22:37:00     -149.599       55.483      -16.421       49.769       66.744       27.075     2476.974     4454.828      733.065        1.669        0.383      159.556       26.947        0.029      345.093       22.377      863.537
08/09/2014  22:38:00     -172.546      211.158      -38.187       78.261       82.463       49.080     6124.843     6800.204     2408.871        4.557        0.767      272.690       53.580        0.039      345.157       22.483      863.494
08/09/2014  22:39:00     -207.111      216.601      -51.851       50.442       75.155       44.460     2544.371     5648.203     1976.653        5.133        0.508      299.685       33.873        0.013      345.161       22.489      863.455
08/09/2014  22:40:00     -225.345      225.661      -56.937       70.153       97.463       49.222     4921.458     9499.117     2422.774        6.089        0.842      318.909       43.279        0.018      345.243       22.630      863.409
08/09/2014  22:41:00     -141.748      133.361      -11.475       60.799      109.712       55.221     3696.468    12036.735     3049.397        2.839        0.939      194.622       42.742        0.048      345.177       22.521      863.361
08/09/2014  22:42:00     -169.952       35.928       -6.082       85.669       92.873       57.917     7339.125     8625.336     3354.339        2.476        0.966      173.708       58.563        0.114      345.193       22.547      863.332
08/09/2014  22:43:00     -164.879       91.272      -15.884       78.063       87.668       62.806     6093.797     7685.710     3944.592        2.674        0.886      188.455       51.295        0.074      345.200       22.558      863.311
08/09/2014  22:44:00      -97.377        7.872      -17.795       52.590       64.003       32.335     2765.735     4096.328     1045.555        0.888        0.395       97.695       28.405        0.085      345.101       22.392      863.294
08/09/2014  22:45:00     -134.181       66.250      -18.917       81.938       53.460       41.401     6713.768     2857.972     1714.054        1.702        0.564      149.645       40.383        0.073      345.073       22.342      863.291
08/09/2014  22:46:00     -145.314      129.657      -15.610       74.191       88.002       53.176     5504.232     7744.368     2827.646        2.712        0.804      194.749       48.598        0.062      345.092       22.375      863.304
08/09/2014  22:47:00     -148.017      178.352      -33.641       60.637       68.908       40.381     3676.823     4748.343     1630.595        3.245        0.503      231.773       32.567        0.020      345.259       22.658      863.316
08/09/2014  22:48:00     -168.982      127.845      -26.883       64.330       65.916       38.590     4138.328     4344.878     1489.224        2.780        0.499      211.894       27.391        0.017      345.299       22.727      863.320
08/09/2014  22:49:00     -112.835      168.292      -17.730       66.768      108.591       41.453     4457.900    11792.052     1718.390        2.966        0.898      202.617       47.798        0.056      345.457       22.999      863.343
08/09/2014  22:50:00      -86.432      183.114      -19.442       56.745       71.430       42.145     3219.994     5102.198     1776.214        2.574        0.505      202.487       38.184        0.036      345.437       22.963      863.386
08/09/2014  22:51:00     -120.075      208.769      -34.973       45.418       77.695       36.511     2062.819     6036.516     1333.038        3.433        0.472      240.837       31.767        0.017      345.410       22.917      863.400
08/09/2014  22:52:00     -146.162      157.765      -30.604       95.026       88.591       47.105     9029.881     7848.281     2218.922        3.314        0.955      215.065       60.168        0.078      345.386       22.877      863.409
08/09/2014  22:53:00     -167.808      116.114      -28.692       66.009       60.458       41.818     4357.223     3655.138     1748.730        2.611        0.488      204.064       44.013        0.047      345.373       22.854      863.395
08/09/2014  22:54:00     -164.937      128.082      -37.676       63.257      102.733       38.923     4001.397    10554.095     1515.022        3.055        0.804      208.828       36.061        0.030      345.358       22.830      863.374
08/09/2014  22:55:00     -115.638       37.870      -16.685       51.050       66.014       37.441     2606.071     4357.899     1401.828        1.172        0.418      121.681       29.631        0.059      345.330       22.783      863.368
08/09/2014  22:56:00      -36.493      -17.302        3.810       63.833       38.593       28.211     4074.594     1489.413      795.867        0.400        0.318       40.387       32.784        0.659      345.285       22.706      863.374
08/09/2014  22:57:00      -80.721        0.485       -1.055       73.441       49.176       25.344     5393.636     2418.239      642.326        0.748        0.423       80.723       29.700        0.135      345.265       22.671      863.361
08/09/2014  22:58:00     -142.401      -46.139        2.777       80.886       97.763       39.988     6542.495     9557.627     1599.040        2.005        0.885      149.689       38.865        0.067      345.284       22.703      863.340
08/09/2014  22:59:00      -79.703      -14.760        6.897       67.829       54.905       25.980     4600.810     3014.583      674.967        0.745        0.415       81.058       29.342        0.131      345.231       22.613      863.326
08/09/2014  23:00:00     -123.962      -66.724       -2.490       58.699       58.346       31.053     3445.627     3404.201      964.283        1.382        0.391      140.778       27.716        0.039      345.231       22.612      863.342
08/09/2014  23:01:00     -234.341      -93.647      -13.723       81.640       52.834       30.484     6665.066     2791.478      929.257        3.713        0.519      252.360       34.746        0.019      345.253       22.648      863.312
08/09/2014  23:02:00     -170.846      -93.233       -0.084       84.556       58.726       31.783     7149.799     3448.711     1010.171        2.474        0.580      194.630       37.146        0.036      345.235       22.617      863.273
08/09/2014  23:03:00     -148.933      -98.603        3.630       89.233       57.447       40.578     7962.589     3300.152     1646.577        2.241        0.645      178.616       36.607        0.042      345.145       22.463      863.236
08/09/2014  23:04:00     -172.591     -136.546        9.572       99.543       70.510       47.719     9908.754     4971.730     2277.103        3.284        0.858      220.074       41.833        0.036      345.059       22.316      863.207
08/09/2014  23:05:00     -186.063     -113.756       -6.503      100.846       83.017       47.543    10169.934     6891.820     2260.348        3.346        0.966      218.083       50.113        0.053      345.058       22.315      863.177
08/09/2014  23:06:00     -213.219     -118.668        0.969       93.558       86.944       48.998     8753.061     7559.295     2400.763        3.913        0.936      244.018       53.097        0.047      344.977       22.175      863.190
08/09/2014  23:07:00     -157.307      -88.390       21.421      112.721       69.913       44.865    12706.106     4887.793     2012.869        2.631        0.980      180.439       52.093        0.083      344.927       22.091      863.214
08/09/2014  23:08:00     -127.583      -75.370        6.443       98.110       65.112       46.074     9625.570     4239.627     2122.771        1.899        0.799      148.183       61.068        0.170      344.931       22.098      863.250
08/09/2014  23:09:00     -194.491     -145.457       -5.004       96.655       67.692       48.239     9342.205     4582.228     2327.001        3.763        0.813      242.867       57.989        0.057      345.010       22.232      863.274
08/09/2014  23:10:00     -139.940      -82.681        6.704       73.373       44.953       37.959     5383.602     2020.802     1440.855        1.765        0.442      162.541       39.064        0.058      344.953       22.137      863.329
08/09/2014  23:11:00     -146.671      -36.536       -0.598       53.270       63.493       31.301     2837.739     4031.384      979.761        1.535        0.392      151.153       22.694        0.023      344.928       22.095      863.379
08/09/2014  23:12:00     -215.192      -53.150       -5.362       85.089       66.277       41.834     7240.054     4392.620     1750.062        3.127        0.669      221.658       46.121        0.043      344.957       22.142      863.411
08/09/2014  23:13:00     -208.226      -62.939        1.092       79.482       75.358       43.931     6317.335     5678.820     1929.906        3.062        0.696      217.531       45.149        0.043      344.917       22.073      863.447
08/09/2014  23:14:00     -183.252      -54.574       -6.989       82.454       74.092       37.619     6798.718     5489.651     1415.198        2.515        0.685      191.205       39.784        0.043      344.895       22.036      863.482
08/09/2014  23:15:00     -305.747      -91.539      -15.303      103.419       69.826       45.444    10695.414     4875.631     2065.170        5.986        0.882      319.156       51.479        0.026      345.057       22.312      863.528
08/09/2014  23:16:00     -171.869      -25.352       -5.386       83.577       64.661       38.903     6985.143     4180.987     1513.428        2.144        0.634      173.729       38.188        0.048      345.074       22.343      863.588
08/09/2014  23:17:00     -114.976      -49.547        6.145       83.542       83.057       38.346     6979.268     6898.424     1470.387        1.553        0.767      125.198       40.386        0.104      345.108       22.404      863.676
08/09/2014  23:18:00      -77.793       41.860        0.820       49.334       35.474       25.230     2433.823     1258.388      636.535        0.607        0.216       88.340       14.618        0.027      345.115       22.416      863.800
08/09/2014  23:19:00       -8.161      148.165      -20.031       63.511       51.603       25.906     4033.596     2662.896      671.117        1.489        0.368      148.389       31.585        0.045      345.103       22.394      863.955
08/09/2014  23:20:00     -104.206      229.240      -46.108      123.399       97.008       36.178    15227.426     9410.522     1308.813        4.574        1.297      251.813       33.407        0.018      345.287       22.706      864.050
08/09/2014  23:21:00     -220.979       34.647      -39.632       59.953       74.395       36.646     3594.380     5534.546     1342.940        3.104        0.524      223.679       18.670        0.007      345.232       22.610      863.997
08/09/2014  23:22:00     -138.460       41.253      -12.708       68.566       72.283       38.945     4701.344     5224.770     1516.717        1.624        0.572      144.475       37.551        0.068      345.094       22.379      863.887
08/09/2014  23:23:00     -198.410      134.201      -37.282       88.239       93.767       47.345     7786.057     8792.323     2241.577        3.879        0.941      239.534       50.353        0.044      345.096       22.379      863.880
08/09/2014  23:24:00     -195.034      144.571      -45.609       70.355       73.210       43.199     4949.870     5359.730     1866.116        3.660        0.609      242.774       42.137        0.030      345.245       22.634      863.856
08/09/2014  23:25:00     -259.891      128.890      -47.521       86.473       63.781       46.063     7477.598     4068.040     2121.798        5.004        0.683      290.096       36.300        0.016      345.266       22.667      863.816
08/09/2014  23:26:00     -205.301      185.842      -56.293       89.677      106.267       47.955     8041.876    11292.726     2299.638        5.074        1.082      276.922       36.026        0.017      345.190       22.539      863.756
08/09/2014  23:27:00      -27.697      281.598      -32.931      105.489      124.509       53.471    11127.859    15502.498     2859.137        5.531        1.474      282.957       50.485        0.032      345.310       22.746      863.764
08/09/2014  23:28:00      150.917      134.713       49.319       75.735      110.787       93.089     5735.736    12273.734     8665.601        3.501        1.334      202.296       49.332        0.059      345.187       22.534      863.832
08/09/2014  23:29:00       51.348      -74.038        0.326       64.200       95.047       45.440     4121.611     9033.857     2064.774        1.167        0.761       90.101       48.705        0.292      345.039       22.285      863.930
08/09/2014  23:30:00       40.704       50.824       44.440       31.999       41.271       33.250     1023.919     1703.291     1105.593        0.502        0.192       65.114       33.826        0.270      345.001       22.222      863.999
08/09/2014  23:31:00       57.341       46.078       66.516       50.683       64.983       48.031     2568.747     4222.772     2306.967        0.947        0.455       73.560       43.830        0.355      345.024       22.258      864.098
08/09/2014  23:32:00       63.113      -23.134       13.402       61.950       82.838       28.852     3837.741     6862.150      832.449        0.811        0.577       67.219       25.290        0.142      345.066       22.330      864.147
08/09/2014  23:33:00       62.852      -24.537       24.285       46.122       72.087       40.577     2127.272     5196.494     1646.485        0.705        0.449       67.472       47.863        0.503      345.089       22.371      864.162
08/09/2014  23:34:00       41.905      -16.866        0.470       38.931       27.063       20.305     1515.637      732.381      412.307        0.235        0.133       45.172       16.793        0.138      345.082       22.359      864.189
08/09/2014  23:35:00      -68.573       14.979        0.199       69.483       44.815       20.532     4827.827     2008.340      421.578        0.609        0.363       70.190       28.435        0.164      345.022       22.256      864.218
08/09/2014  23:36:00      -42.303       37.385       -2.171       33.260       40.216       16.409     1106.244     1617.353      269.266        0.309        0.150       56.455       14.332        0.064      344.966       22.159      864.227
08/09/2014  23:37:00      -68.576        6.926       -3.628       22.350       24.363       15.755      499.528      593.548      248.205        0.305        0.067       68.924        8.494        0.015      345.024       22.259      864.225
08/09/2014  23:38:00     -137.375      -30.826       -8.375       46.678       42.145       23.784     2178.855     1776.240      565.680        1.221        0.226      140.791       24.397        0.030      345.059       22.320      864.193
08/09/2014  23:39:00     -154.914      -47.221       -2.368       65.104       48.413       29.967     4238.478     2343.773      898.018        1.686        0.374      161.951       30.004        0.034      345.039       22.284      864.134
08/09/2014  23:40:00     -121.677      -57.254        8.174       75.739       43.918       27.811     5736.453     1928.808      773.463        1.329        0.422      134.474       28.076        0.044      345.053       22.309      864.084
08/09/2014  23:41:00     -148.413      -66.444       -5.126       50.704       34.293       24.354     2570.870     1176.033      593.122        1.540        0.217      162.607       22.152        0.019      345.109       22.405      864.051
08/09/2014  23:42:00     -123.130      -31.338       -2.811       58.545       41.002       25.028     3427.517     1681.127      626.417        1.094        0.287      127.055       28.653        0.051      345.074       22.345      864.033
08/09/2014  23:43:00     -171.110      -13.735      -12.867       39.221       32.345       28.604     1538.317     1046.173      818.164        1.652        0.170      171.661       20.630        0.014      344.910       22.063      864.019
08/09/2014  23:44:00     -126.709      -29.527       -0.185       58.844       34.909       24.493     3462.588     1218.672      599.889        1.110        0.264      130.104       25.381        0.038      344.856       21.971      864.002
08/09/2014  23:45:00     -163.565      -47.750       -5.126       37.908       34.049       19.054     1437.012     1159.345      363.043        1.601        0.148      170.393       16.761        0.010      344.873       22.002      863.999
08/09/2014  23:46:00     -149.220      -44.591       -4.879       26.611       31.243       20.090      708.149      976.132      403.605        1.318        0.104      155.740        9.488        0.004      344.845       21.954      864.016
08/09/2014  23:47:00     -118.207      -23.311       -2.039       42.044       32.161       20.125     1767.727     1034.325      405.023        0.886        0.160      120.484       21.371        0.031      344.829       21.926      864.031
08/09/2014  23:48:00     -121.708      -66.200       -3.845       35.601       28.665       16.879     1267.414      821.699      284.916        1.079        0.119      138.547       16.054        0.013      344.873       22.003      864.041
08/09/2014  23:49:00      -80.891      -55.666        1.711       54.922       25.948       22.865     3016.391      673.290      522.812        0.693        0.211       98.194       22.766        0.054      344.825       21.920      864.049
08/09/2014  23:50:00      -93.444      -32.612        4.200       43.714       29.710       23.947     1910.874      882.667      573.473        0.659        0.168       98.971       20.729        0.044      344.734       21.761      864.051
08/09/2014  23:51:00     -109.710      -30.674       -1.581       39.928       35.487       20.150     1594.222     1259.319      406.036        0.812        0.163      113.918       19.199        0.028      344.701       21.705      864.065
08/09/2014  23:52:00     -116.169      -35.808       -9.345       21.113       25.393       15.098      445.742      644.788      227.950        0.809        0.066      121.562       12.889        0.011      344.723       21.744      864.082
08/09/2014  23:53:00      -91.481      -16.646      -21.204       45.332       25.292       26.390     2054.997      639.689      696.448        0.624        0.170       92.983       20.550        0.049      344.723       21.742      864.091
08/09/2014  23:54:00      -83.670      -33.970       -1.846       39.666       30.465       28.162     1573.421      928.137      793.123        0.573        0.165       90.304       20.139        0.050      344.691       21.689      864.100
08/09/2014  23:55:00     -106.955      -61.944        2.210       50.161       32.506       25.631     2516.139     1056.620      656.953        0.975        0.211      123.598       16.351        0.018      344.775       21.832      864.115
08/09/2014  23:56:00     -157.010      -77.047       -3.136       65.598       58.022       31.566     4303.035     3366.584      996.393        1.963        0.433      174.895       28.550        0.027      344.705       21.711      864.124
08/09/2014  23:57:00     -112.083      -25.590        0.602       68.725       47.790       31.536     4723.189     2283.913      994.528        1.061        0.400      114.967       32.962        0.082      344.657       21.632      864.130
08/09/2014  23:58:00     -112.014      -43.673       -4.265       34.539       36.767       17.537     1192.915     1351.831      307.536        0.866        0.143      120.226       13.990        0.014      344.729       21.753      864.136
08/09/2014  23:59:00      -71.518      -21.106       -7.605       31.678       28.403       15.752     1003.485      806.703      248.120        0.384        0.103       74.567        8.273        0.012      344.713       21.728      864.139
